[[[{"header":{"parameterUnit":"kt","parameterCategory":2,"dx":1,"dy":1,"la1":29.587661999999998,"la2":31.0,"lo1":-88.76705300000003,"lo2":-86.6583820000003,"nx":115,"ny":88,"refTime":"2022-10-31T00:00:00:Z","depth":0,"parameterNumber":1,"parameterNumberName":"U-component_of_WINDS"},"data":[5.3072,5.4365,5.5755,5.644,5.6564,5.681,5.6933,5.6893,5.6054,5.5549,5.4862,5.3197,5.2739,5.3752,5.2806,5.1934,5.1262,5.0895,5.0816,5.0769,5.0418,5.0357,5.0364,5.0345,5.1947,5.3581,5.4841,5.4557,5.5248,5.4814,5.4377,5.481,5.5705,5.6287,5.7337,5.8404,5.942,5.9852,6.0106,6.008,6.0182,6.0207,6.0233,6.0233,6.0207,5.9521,5.881,5.8404,5.7616,5.635,5.4706,5.3595,5.2705,5.1843,5.094,5.1522,5.3692,5.6532,5.7812,5.7979,5.768,5.7568,5.7597,5.7624,5.8378,5.8735,5.8735,5.8735,5.8735,5.8735,5.8735,5.8735,5.8735,5.8558,5.8448,5.8426,5.838,5.8558,5.907,6.0118,6.0627,6.1517,6.3141,6.3364,6.303,6.283,6.3052,6.3813,6.4024,6.4403,6.4693,6.4693,6.4693,6.4693,6.4693,6.4693,6.4693,6.4693,6.4693,6.4887,6.5081,6.566,6.5853,6.5853,6.6214,6.6765,6.7123,6.7502,6.7362,6.7504,6.8045,6.8656,6.9541,7.0857,7.2339,5.1669,5.2733,5.4821,5.6068,5.644,5.6317,5.6317,5.666,5.6866,5.6243,5.5231,5.5879,5.5701,5.4916,5.3853,5.2544,5.1826,5.177,5.0906,5.0778,5.0863,5.124,5.1478,5.1488,5.2382,5.4042,5.6339,5.6357,5.5674,5.4985,5.5036,5.6126,5.6584,5.6839,5.8937,5.9979,5.9928,6.0157,6.0233,6.0233,6.0233,6.0233,6.0233,6.0233,6.0131,5.9623,5.8607,5.7667,5.6524,5.5373,5.4202,5.362,5.3031,5.2812,5.1942,5.2433,5.4577,5.6411,5.7743,5.7866,5.7643,5.7506,5.7411,5.7708,5.8467,5.8735,5.8735,5.8735,5.8735,5.8735,5.8735,5.8735,5.8735,5.8757,5.8537,5.8314,5.8468,5.8578,5.9424,6.0364,6.0227,5.9553,6.0733,6.1465,6.1376,6.0783,6.1234,6.2241,6.3119,6.3497,6.3727,6.3882,6.386,6.4298,6.4693,6.4693,6.4499,6.4499,6.4715,6.4693,6.4887,6.5081,6.5274,6.5468,6.5853,6.6383,6.6765,6.6932,6.7336,6.7479,6.7903,6.828,6.9379,7.0674,7.2158,5.1517,5.3221,5.4883,5.5694,5.5944,5.6068,5.6068,5.6317,5.6687,5.6242,5.5755,5.6708,5.6983,5.6189,5.619,5.545,5.3574,5.3235,5.2548,5.235,5.2807,5.2691,5.2882,5.3094,5.3479,5.3679,5.6357,5.765,5.6431,5.5635,5.5889,5.7388,5.7591,5.8099,5.9699,6.0182,6.0182,6.0233,6.0233,6.0233,6.0233,6.0233,6.0233,6.0233,5.9928,5.909,5.82,5.7235,5.5889,5.4542,5.3907,5.3422,5.3367,5.3609,5.3792,5.4305,5.5404,5.6864,5.7238,5.7642,5.7945,5.7988,5.7905,5.8345,5.8941,5.9087,5.9087,5.8911,5.8911,5.8735,5.8735,5.8735,5.8735,5.8735,5.8669,5.8559,5.867,5.8759,5.9248,5.9851,5.9537,5.9091,5.8953,5.9681,5.9381,5.9001,5.9893,6.1057,6.1831,6.2384,6.2679,6.2943,6.2685,6.2839,6.3733,6.3954,6.4237,6.4499,6.4521,6.4499,6.4693,6.4693,6.4693,6.5081,6.5468,6.583,6.6214,6.6406,6.6788,6.7146,6.7525,6.8092,6.9193,7.0465,7.1539,5.1443,5.3416,5.4574,5.5206,5.5542,5.5819,5.5819,5.5694,5.6068,5.6076,5.6249,5.7011,5.7339,5.7215,5.7387,5.6741,5.5114,5.4499,5.4441,5.4091,5.3757,5.3562,5.3934,5.3911,5.4402,5.4551,5.5082,5.6338,5.6941,5.7195,5.7362,5.8404,5.8429,5.8785,6.0157,6.0233,6.0233,6.0233,6.0233,6.0233,6.0233,6.0233,6.0233,6.0233,6.0106,5.9217,5.8124,5.7159,5.5685,5.4237,5.378,5.3422,5.3422,5.4568,5.5,5.5474,5.6957,5.7129,5.7338,5.7497,5.8197,5.8381,5.8387,5.8975,5.9486,5.9493,5.9438,5.9263,5.9263,5.9087,5.8911,5.8735,5.8735,5.8735,5.8757,5.8757,5.8757,5.8779,5.8779,5.8846,5.8824,5.8426,5.8071,5.7712,5.7303,5.7715,5.8826,5.985,6.0663,6.0717,6.0923,6.1098,6.0995,6.1757,6.2605,6.3128,6.3803,6.4109,6.3825,6.4237,6.4693,6.4499,6.4304,6.4693,6.5081,6.5468,6.583,6.6045,6.6237,6.6597,6.7146,6.7502,6.8608,6.9325,7.0454,5.0673,5.21,5.2973,5.4247,5.5033,5.5416,5.5343,5.4836,5.5038,5.5842,5.6837,5.6944,5.728,5.7753,5.7539,5.6994,5.6081,5.5262,5.4939,5.4606,5.4679,5.4483,5.4442,5.4368,5.5203,5.6284,5.6794,5.6608,5.7855,5.8227,5.8138,5.8363,5.8566,5.9217,6.0106,6.0207,6.0233,6.0309,6.036,6.036,6.0334,6.0233,6.0233,6.0233,6.0055,5.9649,5.8455,5.7388,5.6346,5.5152,5.4288,5.3729,5.378,5.4339,5.6676,5.7766,5.8272,5.7966,5.7617,5.7857,5.8692,5.8855,5.8318,5.9126,6.0045,6.0589,5.9962,5.9613,6.0137,6.0137,5.9087,5.8735,5.8735,5.8735,5.8735,5.8735,5.8735,5.8735,5.8735,5.858,5.8404,5.8027,5.765,5.6957,5.6654,5.6986,5.7801,5.8569,5.896,5.8667,5.9025,5.9177,5.9915,6.0723,6.15,6.2084,6.278,6.3129,6.289,6.3303,6.4043,6.4087,6.3891,6.4476,6.5081,6.5274,6.5422,6.566,6.6045,6.6214,6.6574,6.6932,6.7481,6.8111,6.9332,5.135,5.2521,5.3738,5.4567,5.5086,5.5416,5.4911,5.4146,5.4248,5.5151,5.6344,5.6238,5.6763,5.762,5.7802,5.7526,5.6611,5.6246,5.6308,5.6634,5.6887,5.6127,5.5714,5.5902,5.6137,5.585,5.6158,5.7031,5.814,5.8608,5.9029,5.9445,5.9598,5.9903,6.0131,6.0309,6.0284,6.0512,6.0715,6.0715,6.0512,6.0233,6.0233,6.0233,6.0233,5.9572,5.8556,5.7464,5.6803,5.6194,5.5101,5.4822,5.5533,5.5635,5.7464,5.9166,5.9471,5.8998,5.8659,5.9031,6.0023,6.0664,6.0237,6.0432,6.1017,6.152,6.0831,6.0137,6.0831,6.1004,5.9788,5.8735,5.8735,5.8735,5.8735,5.8735,5.8735,5.8735,5.858,5.8404,5.8049,5.7672,5.7136,5.644,5.6143,5.6612,5.7115,5.7706,5.748,5.7416,5.7545,5.7964,5.8749,5.9631,5.9867,6.0211,6.1348,6.1997,6.1955,6.2324,6.3434,6.363,6.3843,6.4298,6.473,6.4775,6.4856,6.5139,6.5343,6.566,6.583,6.5483,6.5241,6.6242,6.81,5.1483,5.2458,5.4034,5.4758,5.4859,5.4797,5.4524,5.3888,5.3888,5.5176,5.6439,5.5582,5.642,5.7942,5.8126,5.7889,5.7993,5.8441,5.8548,5.8654,5.8443,5.7969,5.7391,5.671,5.6266,5.6163,5.6631,5.7694,5.875,5.9454,6.0096,6.0192,6.0167,6.0226,6.0455,6.071,6.0862,6.1117,6.1452,6.1325,6.097,6.0436,6.0233,6.0233,6.0233,5.9953,5.9115,5.8099,5.7591,5.721,5.627,5.6575,5.7591,5.7946,5.82,6.008,6.0233,6.0233,6.0309,6.0122,6.0654,6.169,6.1976,6.2106,6.2384,6.2546,6.184,6.1153,6.1176,6.0831,5.9788,5.9087,5.8735,5.8735,5.8735,5.8735,5.8735,5.8735,5.858,5.8227,5.8071,5.7693,5.7293,5.6598,5.608,5.626,5.6483,5.6388,5.6431,5.6474,5.6623,5.7029,5.7798,5.8461,5.8739,5.9059,6.01,6.087,6.0917,6.1434,6.2207,6.2767,6.3379,6.3483,6.3399,6.3723,6.3957,6.3858,6.3577,6.4239,6.4474,6.3638,6.3124,6.4205,6.5765,5.0683,5.1163,5.3194,5.4222,5.4348,5.352,5.3649,5.4555,5.4146,5.5642,5.8066,5.4963,5.592,5.9093,5.749,5.7727,5.9521,5.9126,5.9626,6.0047,5.9946,5.8759,5.7916,5.7704,5.7495,5.7548,5.8019,5.8984,5.9943,6.0419,6.0085,5.9802,6.0481,6.0746,6.1232,6.1693,6.2302,6.1974,6.2056,6.1703,6.1097,6.0614,6.0309,6.0233,6.0233,6.008,5.9674,5.8963,5.8531,5.8226,5.7591,5.8455,5.9242,6.0055,6.0106,6.0233,6.0233,6.0233,6.0239,6.0802,6.143,6.2468,6.327,6.3935,6.4036,6.3777,6.2716,6.2011,6.1863,6.1004,5.9962,5.9438,5.8735,5.8911,5.8911,5.8735,5.8735,5.858,5.8404,5.8227,5.7893,5.7537,5.7136,5.6778,5.608,5.626,5.626,5.608,5.592,5.592,5.6047,5.643,5.6769,5.7385,5.781,5.8337,5.9098,5.9749,6.0009,5.9965,6.063,6.13,6.2219,6.2719,6.2328,6.2216,6.2618,6.2528,6.2194,6.2089,6.2342,6.1897,6.1514,6.2396,6.3516,4.9887,4.9624,5.1841,5.2914,5.3117,5.3172,5.3351,5.3708,5.3836,5.5036,5.6762,5.5623,5.614,5.7573,5.7495,5.8155,5.8738,5.9324,6.0351,6.1065,6.1145,6.0311,5.9653,5.9521,5.8944,5.8918,5.9468,6.0179,6.0567,6.097,6.0949,6.0912,6.1236,6.1387,6.2461,6.3107,6.3799,6.2985,6.2405,6.1928,6.129,6.0684,6.0233,6.0233,6.0233,6.0233,5.9928,5.9445,5.8861,5.9369,5.9394,5.9547,5.9852,6.0207,6.0207,6.0233,6.0233,6.0087,6.0218,6.0579,6.1721,6.264,6.3673,6.4294,6.4398,6.4304,6.3416,6.2909,6.3078,6.2058,6.0681,5.9263,5.9087,5.9438,5.9263,5.8735,5.8735,5.8735,5.858,5.7849,5.7493,5.7158,5.6778,5.644,5.6058,5.626,5.626,5.592,5.5558,5.5739,5.6165,5.609,5.6323,5.6578,5.6918,5.7406,5.7991,5.8676,5.8775,5.8667,5.9175,6.0195,6.111,6.1807,6.1658,6.1457,6.1569,6.1636,6.1613,6.153,6.0948,6.0388,5.9963,6.0765,6.1649,4.9727,4.9792,5.1896,5.2558,5.2202,5.279,5.317,5.3346,5.3679,5.4929,5.6593,5.582,5.621,5.7343,5.7711,5.7539,5.8096,5.9251,6.0117,6.0821,6.156,6.1179,6.0665,6.0174,5.9942,5.9574,6.0074,6.0653,6.0896,6.0874,6.1388,6.187,6.1456,6.2042,6.3584,6.4603,6.5047,6.3922,6.303,6.2296,6.1455,6.0874,6.0353,6.0233,6.0233,6.0233,6.0157,5.9725,5.9547,5.9953,6.003,6.0055,6.0182,6.0233,6.0233,6.0233,6.0233,6.0087,6.0122,6.1077,6.1947,6.2837,6.3688,6.4349,6.4304,6.4304,6.3801,6.3271,6.3777,6.2909,6.1863,6.0461,5.9613,6.0137,5.9613,5.9263,5.8735,5.8735,5.8404,5.7849,5.7315,5.7158,5.662,5.608,5.6058,5.6058,5.5739,5.5397,5.5376,5.5718,5.608,5.608,5.608,5.608,5.6143,5.6408,5.7051,5.7727,5.7823,5.7874,5.8367,5.931,5.9979,6.0383,6.0654,6.0721,6.0386,6.0208,6.0609,6.0654,5.9873,5.9226,5.9359,5.9668,6.0281,5.0189,5.1926,5.2891,5.2789,5.2179,5.19,5.2561,5.345,5.3552,5.4904,5.701,5.6228,5.6925,5.8059,5.7512,5.7052,5.7454,5.8336,5.9185,5.9852,6.0834,6.0975,6.0647,6.0474,6.0489,5.9653,6.0147,6.0909,6.0889,6.1005,6.1539,6.1801,6.1723,6.2064,6.4796,6.5647,6.5757,6.5178,6.3637,6.2875,6.2039,6.1173,6.0721,6.0379,6.0379,6.0233,6.0233,5.9953,5.9979,6.0207,6.0233,6.0233,6.0233,6.0233,6.0233,6.0233,6.0233,6.0233,6.034,6.2195,6.2899,6.315,6.3743,6.428,6.4304,6.4304,6.4137,6.3801,6.4112,6.3585,6.303,6.2158,6.1325,6.0831,6.0137,5.9613,5.9087,5.8911,5.8404,5.7871,5.7515,5.7158,5.644,5.608,5.6058,5.5899,5.5397,5.5215,5.5376,5.5718,5.608,5.608,5.608,5.608,5.608,5.608,5.626,5.6979,5.7424,5.7913,5.8402,5.8914,5.8981,5.8958,5.9248,5.9717,5.9315,5.8891,5.9293,5.965,5.8891,5.8735,5.8735,5.8956,5.9353,5.019,5.0189,5.1623,5.2586,5.2993,5.3018,5.3221,5.3371,5.3396,5.4904,5.7043,5.7413,5.7642,5.745,5.6981,5.6737,5.6236,5.6652,5.7624,5.866,5.9712,6.0485,6.1053,6.1195,6.097,6.132,6.1414,6.1414,6.1503,6.1467,6.1933,6.2179,6.232,6.3042,6.4876,6.5741,6.6257,6.5573,6.4263,6.3109,6.2132,6.1402,6.0789,6.0644,6.0379,6.0379,6.0233,6.0233,6.0233,6.0233,6.0233,6.0233,6.0233,6.0233,6.0233,6.0233,6.0233,5.994,6.0303,6.179,6.3727,6.3713,6.4182,6.4231,6.4304,6.4304,6.4304,6.4304,6.4304,6.428,6.3945,6.303,6.2181,6.1715,6.1027,6.016,5.9613,5.8911,5.8404,5.8049,5.7715,5.7358,5.6821,5.6641,5.68,5.7158,5.626,5.5537,5.5537,5.5899,5.608,5.608,5.608,5.608,5.608,5.608,5.626,5.6778,5.7315,5.7849,5.8204,5.8625,5.8802,5.8735,5.8735,5.8735,5.8757,5.8802,5.8779,5.8735,5.8735,5.8735,5.8735,5.8735,5.9087,5.0152,5.0488,5.1264,5.2222,5.3111,5.3111,5.3241,5.3396,5.3396,5.4568,5.6321,5.7769,5.7946,5.7184,5.6854,5.6092,5.472,5.5189,5.61,5.7282,5.8264,5.9428,6.0381,6.0808,6.1314,6.1833,6.1795,6.1873,6.1989,6.1859,6.2248,6.2389,6.2478,6.3713,6.4998,6.6086,6.6425,6.5968,6.4873,6.3625,6.259,6.1898,6.1077,6.0933,6.0499,6.0379,6.0233,6.0233,6.0233,6.0233,6.0233,6.0233,6.0233,6.0233,6.0233,6.0233,6.0233,6.0087,6.02,6.2306,6.4361,6.465,6.4471,6.4304,6.4304,6.4304,6.4304,6.4304,6.4304,6.4304,6.4304,6.3585,6.2885,6.2593,6.1739,6.0681,5.9985,5.9109,5.858,5.8404,5.8049,5.7715,5.7358,5.7201,5.7715,5.8049,5.6778,5.5697,5.5899,5.626,5.626,5.608,5.608,5.608,5.608,5.608,5.6239,5.6778,5.7337,5.7849,5.8558,5.8735,5.8735,5.8735,5.8735,5.8735,5.8735,5.8735,5.8735,5.8735,5.8735,5.8735,5.8735,5.8735,5.8911,5.0228,5.2299,5.1455,5.172,5.2562,5.2431,5.2824,5.3396,5.3396,5.4187,5.5558,5.7261,5.7743,5.7108,5.6727,5.5711,5.3628,5.4593,5.5152,5.566,5.6431,5.8044,5.9274,5.993,6.0214,6.1548,6.1704,6.173,6.1847,6.1989,6.2274,6.2531,6.2531,6.4164,6.5316,6.5859,6.6381,6.6513,6.588,6.4652,6.3546,6.28,6.1716,6.1181,6.0789,6.0644,6.0379,6.0233,6.0233,6.0233,6.0233,6.0233,6.0233,6.0233,6.0233,6.0233,6.0233,6.0868,6.1533,6.3445,6.4759,6.502,6.4921,6.4471,6.4304,6.4304,6.4304,6.4304,6.4304,6.4304,6.4304,6.4304,6.3609,6.2957,6.2081,6.1027,6.016,5.9285,5.8757,5.8558,5.8381,5.8049,5.7893,5.7693,5.8027,5.8227,5.7136,5.6957,5.6957,5.6778,5.662,5.626,5.608,5.608,5.608,5.608,5.644,5.68,5.7158,5.7849,5.8558,5.8735,5.8735,5.8735,5.8735,5.8735,5.8735,5.8735,5.8735,5.8735,5.8735,5.8735,5.8735,5.8735,5.8735,4.9968,5.0429,5.0182,5.1102,5.2431,5.2431,5.2849,5.3396,5.3396,5.4136,5.533,5.66,5.7235,5.6956,5.6778,5.5685,5.3628,5.3806,5.439,5.4974,5.5795,5.7352,5.8861,5.9339,6.0021,6.1561,6.1443,6.1561,6.1704,6.2132,6.2416,6.2531,6.2531,6.3174,6.3993,6.5089,6.6197,6.6599,6.6671,6.588,6.4442,6.3572,6.2773,6.1794,6.1221,6.0789,6.0644,6.0524,6.0233,6.0233,6.0233,6.0233,6.0233,6.0233,6.0233,6.0258,6.0563,6.1579,6.3584,6.4516,6.5106,6.551,6.5442,6.478,6.4471,6.4304,6.4304,6.4304,6.4304,6.4304,6.4304,6.4304,6.3801,6.2933,6.2058,6.1199,6.016,5.9285,5.8735,5.8558,5.8558,5.8404,5.8227,5.8204,5.8204,5.8404,5.8381,5.8204,5.8027,5.7493,5.7136,5.6462,5.6462,5.6641,5.6462,5.626,5.6462,5.6821,5.7158,5.7672,5.8381,5.8735,5.8735,5.8735,5.8735,5.8735,5.8735,5.8735,5.8735,5.8735,5.8735,5.8735,5.8735,5.8735,5.8735,4.8973,4.8835,4.8973,5.0182,5.177,5.177,5.2431,5.3241,5.3396,5.4136,5.5254,5.6397,5.721,5.7515,5.7057,5.566,5.4034,5.4085,5.4644,5.5127,5.5999,5.7317,5.9042,5.9173,6.0021,6.1184,6.1586,6.1443,6.1847,6.2274,6.2531,6.2531,6.2557,6.2663,6.3941,6.5168,6.6038,6.6882,6.7594,6.7199,6.5511,6.4336,6.3284,6.2068,6.1704,6.1247,6.0933,6.0644,6.0524,6.0233,6.0233,6.0233,6.0233,6.0233,6.0258,6.036,6.1046,6.2773,6.4958,6.5054,6.509,6.5271,6.5472,6.5227,6.478,6.4471,6.4304,6.4304,6.4304,6.4304,6.4304,6.3969,6.3295,6.2423,6.1372,6.0681,5.9985,5.9263,5.8735,5.8735,5.8735,5.8558,5.8558,5.8558,5.8558,5.8558,5.8558,5.8558,5.8204,5.7849,5.7158,5.6641,5.6641,5.6843,5.6641,5.644,5.644,5.6979,5.7315,5.7849,5.8381,5.8735,5.8735,5.8735,5.8735,5.8735,5.8735,5.8735,5.8735,5.8735,5.8735,5.8735,5.8735,5.8735,5.8735,4.7908,4.7605,4.8047,4.9135,5.0723,5.0992,5.1902,5.3241,5.3396,5.411,5.4898,5.6295,5.7413,5.7794,5.7235,5.5736,5.4491,5.4441,5.4923,5.5609,5.6117,5.7471,5.9222,5.8839,5.9814,6.1405,6.1586,6.1704,6.2132,6.2416,6.2531,6.2531,6.261,6.2926,6.3691,6.5168,6.6487,6.7489,6.8702,6.8412,6.6645,6.5432,6.4073,6.2813,6.2277,6.1938,6.1273,6.0933,6.0848,6.0557,6.0531,6.036,6.0563,6.0461,6.0334,6.1401,6.224,6.3434,6.3662,6.4348,6.4876,6.5064,6.5684,6.5785,6.5252,6.478,6.4471,6.4471,6.4304,6.4304,6.4304,6.3464,6.2593,6.1715,6.0854,6.0334,5.9788,5.8933,5.8735,5.8735,5.8735,5.8735,5.8735,5.8735,5.8735,5.8735,5.8735,5.8558,5.8381,5.7672,5.6979,5.662,5.6641,5.6821,5.662,5.626,5.644,5.7136,5.7493,5.7849,5.8381,5.8735,5.8735,5.8735,5.8735,5.8735,5.8735,5.8735,5.8735,5.8735,5.8735,5.8735,5.8735,5.8735,5.8735,4.7817,4.7627,4.7323,4.8281,4.991,5.0723,5.1637,5.2693,5.3266,5.3679,5.4136,5.5889,5.7006,5.7159,5.6879,5.6194,5.4898,5.4085,5.5101,5.6067,5.6244,5.7104,5.8494,5.8992,5.962,6.1483,6.1561,6.1847,6.2274,6.2531,6.2531,6.2531,6.2531,6.2742,6.3322,6.4731,6.5775,6.6935,6.8227,6.9256,6.8597,6.7568,6.6065,6.4166,6.3494,6.293,6.2042,6.1428,6.1302,6.1463,6.1041,6.097,6.2189,6.1198,6.196,6.4475,6.3535,6.2926,6.29,6.3586,6.4577,6.5104,6.5821,6.6112,6.5911,6.5252,6.478,6.4471,6.4304,6.4304,6.3945,6.3247,6.2205,6.152,6.0681,5.9811,5.9285,5.8933,5.8735,5.8735,5.8735,5.8735,5.8735,5.8735,5.8558,5.8558,5.8558,5.8381,5.7849,5.7158,5.6979,5.6641,5.644,5.68,5.662,5.608,5.6419,5.7136,5.7672,5.8204,5.8558,5.8735,5.8735,5.8735,5.8735,5.8735,5.8735,5.8735,5.8735,5.8735,5.8735,5.8735,5.8735,5.8735,5.8735,4.7419,4.7019,4.7019,4.7839,4.9202,5.027,5.1236,5.2192,5.3111,5.3396,5.4034,5.5254,5.6346,5.6803,5.6905,5.6244,5.5508,5.4974,5.5838,5.6854,5.7464,5.8686,5.9814,5.9538,6.0404,6.1262,6.1704,6.1989,6.2531,6.2531,6.2531,6.2531,6.2416,6.2416,6.2979,6.4205,6.5231,6.6637,6.7726,6.8781,6.9203,6.8227,6.6909,6.5537,6.4889,6.4358,6.3557,6.278,6.2384,6.2199,6.1283,6.129,6.1346,6.1046,6.1249,6.2646,6.2138,6.1605,6.2443,6.3739,6.4551,6.5364,6.6144,6.6513,6.6238,6.5911,6.5417,6.4946,6.4755,6.3945,6.3271,6.2058,6.1348,6.0854,5.9962,5.9263,5.8911,5.8735,5.8735,5.8735,5.8735,5.8735,5.8735,5.8558,5.8558,5.8381,5.8381,5.7849,5.7158,5.6979,5.6821,5.6462,5.626,5.626,5.626,5.608,5.6419,5.7136,5.7849,5.8381,5.8735,5.8735,5.8735,5.8735,5.8735,5.8735,5.8735,5.8735,5.8735,5.8735,5.8735,5.8735,5.8735,5.8735,5.8735,4.6736,4.6453,4.6736,4.7559,4.8489,4.9863,5.0834,5.1794,5.298,5.3396,5.3679,5.472,5.6075,5.6864,5.7094,5.6397,5.5889,5.5889,5.6702,5.7946,5.8658,5.9793,6.0362,6.0294,6.0882,6.1704,6.1989,6.2132,6.2531,6.2531,6.2531,6.2557,6.2274,6.2274,6.2705,6.3573,6.4836,6.6002,6.7199,6.8201,6.8728,6.8359,6.7515,6.646,6.6126,6.5739,6.5275,6.4568,6.3785,6.3242,6.191,6.1283,6.1392,6.1168,6.0741,6.0944,6.0868,6.1681,6.2748,6.4247,6.5085,6.5517,6.6279,6.6676,6.6401,6.6238,6.5911,6.5417,6.478,6.3777,6.2229,6.1715,6.1027,6.0334,5.9811,5.9087,5.8735,5.8735,5.8735,5.8735,5.8735,5.8735,5.8558,5.8381,5.8204,5.8027,5.7672,5.6957,5.68,5.662,5.6641,5.6281,5.608,5.608,5.608,5.608,5.6419,5.7493,5.8027,5.8558,5.8735,5.8735,5.8735,5.8735,5.8735,5.8735,5.8735,5.8735,5.8735,5.8735,5.8735,5.8735,5.8735,5.8735,5.8735,4.6168,4.6453,4.6594,4.7019,4.8002,4.9613,5.054,5.1236,5.2718,5.3396,5.3729,5.4669,5.5922,5.7368,5.7119,5.6879,5.6473,5.6295,5.7261,5.8886,5.9217,5.9716,6.0396,6.0644,6.1247,6.1847,6.1989,6.2274,6.2531,6.2531,6.2531,6.2557,6.2557,6.2416,6.2794,6.3638,6.4377,6.4957,6.6415,6.7652,6.8095,6.8781,6.8284,6.7494,6.7131,6.6663,6.6133,6.5563,6.5393,6.5793,6.3556,6.3294,6.3376,6.2921,6.1655,6.0436,6.1732,6.2722,6.3764,6.4628,6.539,6.5339,6.6279,6.6812,6.6701,6.6376,6.6074,6.5746,6.5111,6.4112,6.3945,6.2716,6.1863,6.1199,6.0507,5.9613,5.8911,5.8735,5.8757,5.8757,5.858,5.858,5.8381,5.8027,5.7849,5.7493,5.6778,5.6239,5.6419,5.644,5.626,5.608,5.644,5.6598,5.644,5.6419,5.6957,5.7672,5.8204,5.8558,5.8735,5.8735,5.8735,5.8735,5.8735,5.8735,5.8735,5.8735,5.8735,5.8735,5.8735,5.8735,5.8735,5.8735,5.8735,4.6003,4.6146,4.6594,4.7041,4.7745,4.9065,5.0158,5.1102,5.2324,5.3111,5.3498,5.4009,5.5184,5.6703,5.6864,5.6905,5.6854,5.6905,5.7896,5.8912,5.9598,5.9844,6.0499,6.0959,6.1273,6.173,6.2132,6.2416,6.2531,6.2531,6.2531,6.2531,6.2416,6.2416,6.2715,6.2656,6.3101,6.373,6.5152,6.6973,6.8276,6.8992,6.8732,6.8261,6.813,6.7817,6.742,6.6947,6.6794,6.654,6.5661,6.512,6.507,6.4173,6.3484,6.3002,6.3993,6.4958,6.5212,6.5822,6.6101,6.6177,6.6533,6.6812,6.6701,6.6701,6.6401,6.5746,6.4946,6.4304,6.428,6.3223,6.2181,6.1544,6.0681,5.9788,5.8911,5.8735,5.8779,5.8692,5.8625,5.8227,5.7871,5.7315,5.7136,5.6778,5.608,5.6058,5.6239,5.626,5.608,5.608,5.6598,5.6778,5.662,5.68,5.7337,5.7871,5.8227,5.8558,5.8735,5.8735,5.8735,5.8735,5.8735,5.8735,5.8735,5.8735,5.8735,5.8735,5.8735,5.8735,5.8735,5.8735,5.8735,4.5739,4.5861,4.6594,4.7019,4.7605,4.8651,4.9863,5.0858,5.2035,5.2824,5.3396,5.3526,5.442,5.591,5.661,5.6905,5.7006,5.8251,5.8734,5.881,5.9725,6.0473,6.0789,6.1103,6.1273,6.1561,6.2132,6.2389,6.2531,6.2531,6.2531,6.2531,6.2416,6.2274,6.2389,6.212,6.1964,6.2826,6.3863,6.6028,6.7926,6.8491,6.8444,6.8389,6.8732,6.889,6.8759,6.8415,6.7968,6.7632,6.7399,6.6906,6.6544,6.5922,6.5407,6.5451,6.6152,6.6736,6.6838,6.6736,6.6838,6.66,6.665,6.6676,6.6539,6.6539,6.6213,6.5557,6.5087,6.478,6.4447,6.3392,6.2716,6.2058,6.1199,6.016,5.9438,5.9087,5.9154,5.8891,5.8492,5.7893,5.7515,5.6957,5.662,5.608,5.608,5.6058,5.608,5.608,5.608,5.608,5.644,5.6821,5.6641,5.6979,5.7515,5.7893,5.8381,5.8735,5.8735,5.8735,5.8735,5.8735,5.8735,5.8735,5.8735,5.8735,5.8735,5.8735,5.8735,5.8735,5.8735,5.8735,5.8735,4.5431,4.5409,4.6168,4.6594,4.6878,4.8374,4.959,5.0564,5.177,5.2824,5.3371,5.3396,5.4318,5.5751,5.6355,5.6854,5.6956,5.8785,5.9115,5.914,5.9649,6.0379,6.0789,6.0933,6.1129,6.1443,6.1847,6.2132,6.2274,6.2389,6.2531,6.2531,6.2531,6.2531,6.2672,6.2274,6.2557,6.3439,6.4126,6.5247,6.6803,6.7668,6.7843,6.7864,6.8522,6.9126,6.9074,6.9126,6.915,6.9229,6.8785,6.8811,6.8968,6.8313,6.7469,6.6906,6.6482,6.666,6.6838,6.6787,6.665,6.6564,6.6401,6.6213,6.5885,6.5721,6.5696,6.5203,6.6024,6.5417,6.4613,6.4304,6.3609,6.2787,6.191,6.1567,6.1199,6.0484,5.9962,5.9811,5.8802,5.8071,5.7515,5.7136,5.6979,5.644,5.662,5.644,5.626,5.6281,5.6281,5.608,5.6281,5.6663,5.6821,5.6979,5.7515,5.8093,5.8404,5.8558,5.8558,5.8735,5.8735,5.8735,5.8735,5.8735,5.8735,5.8735,5.8735,5.8735,5.8735,5.8735,5.8735,5.8735,5.8735,4.5287,4.5431,4.6146,4.6594,4.6878,4.7862,4.9226,5.0564,5.1394,5.2324,5.3241,5.3396,5.3831,5.4522,5.5431,5.5914,5.6194,5.8251,5.8963,5.8759,5.9699,6.0328,6.0499,6.0789,6.0933,6.1103,6.1704,6.1989,6.1989,6.2416,6.2531,6.2672,6.2531,6.2927,6.3346,6.318,6.3651,6.5107,6.5061,6.5431,6.6776,6.7634,6.7603,6.7008,6.8049,6.8652,6.881,6.91,6.9883,7.0658,7.0658,7.0658,7.0812,7.0504,6.9231,6.6949,6.5593,6.5644,6.6381,6.6254,6.6254,6.6412,6.6401,6.6238,6.5885,6.5557,6.5392,6.5203,6.5252,6.5111,6.4471,6.4304,6.3969,6.3126,6.2617,6.2447,6.2447,6.1544,6.0658,5.9788,5.8933,5.8227,5.7515,5.6957,5.6778,5.6778,5.6979,5.68,5.6462,5.6462,5.6462,5.6281,5.6281,5.6462,5.6641,5.6979,5.7515,5.7915,5.8249,5.8227,5.8404,5.8735,5.8735,5.8735,5.8735,5.8735,5.8735,5.8735,5.8735,5.8735,5.8735,5.8735,5.8735,5.8735,5.8735,4.5143,4.5143,4.6003,4.6453,4.6736,4.7346,4.8835,5.0699,5.0834,5.1902,5.3241,5.3396,5.3552,5.3653,5.4695,5.5177,5.5685,5.7261,5.8226,5.8683,5.9471,5.9877,6.0328,6.0644,6.0789,6.0933,6.1821,6.2132,6.1847,6.2531,6.2927,6.2927,6.3067,6.3598,6.437,6.4233,6.508,6.6491,6.6067,6.5975,6.6987,6.7422,6.7041,6.6233,6.7137,6.7838,6.8175,6.8968,7.0349,7.1729,7.188,7.2032,7.2483,7.2183,7.0631,6.8259,6.6543,6.6337,6.6063,6.5822,6.6127,6.6625,6.6401,6.6213,6.6074,6.5417,6.5227,6.5368,6.4755,6.4304,6.4304,6.4304,6.4137,6.3464,6.3295,6.3295,6.3102,6.2252,6.1199,6.0484,5.9087,5.8558,5.8027,5.7672,5.718,5.7158,5.7337,5.7358,5.7001,5.6821,5.6462,5.626,5.626,5.644,5.662,5.6957,5.7515,5.7737,5.7915,5.7893,5.8227,5.8558,5.8735,5.8735,5.8735,5.8735,5.8735,5.8735,5.8735,5.8735,5.8735,5.8735,5.8735,5.8735,5.8735,4.4711,4.4834,4.5574,4.6025,4.6168,4.716,4.8674,5.027,5.0699,5.1794,5.3111,5.3371,5.3396,5.3755,5.4517,5.5,5.5381,5.6473,5.7438,5.8124,5.8607,5.9191,5.9979,6.0593,6.0644,6.0789,6.2053,6.2337,6.1963,6.29,6.3709,6.3985,6.4123,6.4643,6.5427,6.5265,6.5723,6.6792,6.5995,6.6038,6.7225,6.635,6.5967,6.6566,6.6699,6.7139,6.789,6.9361,7.0658,7.1729,7.2032,7.2783,7.3673,7.3257,7.1729,6.983,7.0704,6.8429,6.5458,6.5701,6.6584,6.6513,6.6401,6.6074,6.5721,6.5392,6.5227,6.5392,6.4921,6.4471,6.4304,6.4304,6.428,6.428,6.4137,6.4137,6.4137,6.2423,6.1567,6.1567,5.9788,5.7849,5.9064,5.8404,5.7715,5.7337,5.7337,5.7515,5.7158,5.68,5.644,5.626,5.608,5.626,5.644,5.6778,5.6979,5.738,5.7559,5.7537,5.7693,5.8227,5.8558,5.8735,5.8735,5.8735,5.8735,5.8735,5.8735,5.8735,5.8735,5.8735,5.8735,5.8735,5.8735,4.4711,4.4855,4.5574,4.5861,4.6025,4.6878,4.8258,4.9886,5.0182,5.1394,5.3005,5.3266,5.3266,5.3472,5.3933,5.4136,5.4263,5.5304,5.6041,5.6473,5.7108,5.8124,5.914,5.9997,6.0644,6.1339,6.2079,6.2786,6.3459,6.3848,6.437,6.505,6.5158,6.5667,6.6595,6.6595,6.7044,6.7908,6.7491,6.714,6.6983,6.7002,6.6573,6.5806,6.6606,6.7344,6.8099,7.0282,7.1729,7.2361,7.3081,7.3673,7.4113,7.382,7.335,7.2263,7.1129,6.9138,6.6303,6.6538,6.6847,6.6711,6.6401,6.6238,6.6074,6.5557,6.5368,6.5532,6.5227,6.4896,6.4471,6.4304,6.4471,6.4589,6.4447,6.4304,6.4304,6.3609,6.2763,6.1176,6.0137,5.9415,5.9087,5.8426,5.8071,5.8027,5.8204,5.8204,5.7715,5.7337,5.68,5.6419,5.6239,5.626,5.626,5.644,5.68,5.7001,5.7201,5.738,5.7515,5.8049,5.8558,5.8558,5.8735,5.8735,5.8735,5.8735,5.8735,5.8735,5.8735,5.8735,5.8735,5.8735,5.8735,4.4566,4.4689,4.5431,4.5718,4.6025,4.6594,4.8118,4.9886,4.9774,5.0992,5.2743,5.3136,5.3136,5.3241,5.3371,5.3526,5.3577,5.4263,5.505,5.5813,5.6575,5.7718,5.9039,6.0022,6.0933,6.1652,6.2531,6.3624,6.426,6.4807,6.532,6.6095,6.6199,6.6754,6.7693,6.7822,6.8136,6.8888,6.8732,6.8165,6.7362,6.7496,6.7058,6.5904,6.6754,6.7634,6.8135,7.046,7.2054,7.2553,7.3624,7.4259,7.4259,7.4259,7.4259,7.3972,7.1796,6.9709,6.8313,6.7739,6.7556,6.7464,6.6863,6.6564,6.6401,6.6049,6.5885,6.5885,6.586,6.5392,6.4613,6.4304,6.4447,6.4921,6.478,6.4613,6.4304,6.4304,6.3247,6.1497,6.0635,5.9962,5.9263,5.858,5.8426,5.8381,5.8404,5.8404,5.8271,5.7693,5.7136,5.6778,5.644,5.626,5.626,5.644,5.662,5.68,5.718,5.7737,5.7715,5.8049,5.8381,5.8558,5.8735,5.8735,5.8735,5.8735,5.8735,5.8735,5.8735,5.8735,5.8735,5.8735,5.8735,4.4276,4.4711,4.5143,4.5574,4.5861,4.6453,4.8096,5.0022,4.9886,5.1127,5.2875,5.3136,5.3136,5.3136,5.3371,5.3396,5.3526,5.3628,5.4644,5.6346,5.6778,5.8023,5.9869,6.0465,6.1103,6.1678,6.4012,6.4671,6.4069,6.564,6.6726,6.7118,6.7248,6.785,6.8859,6.8859,6.8859,6.9015,6.8986,6.8761,6.8293,6.7418,6.7033,6.7169,6.7565,6.7784,6.775,6.9713,7.1276,7.2337,7.3469,7.4174,7.3977,7.409,7.4231,7.4029,7.3202,7.1771,7.0577,6.9465,6.8916,6.8493,6.7669,6.7025,6.6863,6.6564,6.6401,6.6539,6.6701,6.6213,6.478,6.4613,6.478,6.4921,6.4921,6.4755,6.4447,6.4304,6.4304,6.3609,6.152,5.9765,5.959,5.9087,5.858,5.8426,5.8271,5.8448,5.858,5.7849,5.7493,5.7315,5.6778,5.626,5.626,5.626,5.6419,5.6778,5.7537,5.7737,5.7693,5.7871,5.8227,5.8558,5.8735,5.8735,5.8735,5.8735,5.8735,5.8735,5.8735,5.8735,5.8735,5.8735,5.8735,4.3985,4.4421,4.5287,4.5718,4.6003,4.7397,4.8651,4.9886,5.0564,5.1637,5.2875,5.3136,5.3136,5.3266,5.3396,5.3396,5.3396,5.3396,5.3882,5.4695,5.6219,5.765,5.9026,6.0356,6.1483,6.2619,6.3985,6.5348,6.6331,6.6122,6.685,6.8362,6.842,6.8704,6.8888,6.8986,6.8986,6.8986,6.8986,6.8888,6.8732,6.8193,6.7589,6.7306,6.8346,6.8932,6.8515,7.0032,7.1044,7.124,7.1831,7.2058,7.1861,7.2623,7.3413,7.4146,7.3792,7.2755,7.1038,7.1092,7.0504,6.8942,6.8308,6.7669,6.6863,6.6701,6.6701,6.6863,6.6863,6.6539,6.5557,6.5721,6.6074,6.5746,6.5111,6.4589,6.478,6.4471,6.4304,6.3945,6.2058,6.0484,6.0137,5.9438,5.9109,5.9461,5.8956,5.858,5.8558,5.8027,5.7515,5.7715,5.6979,5.644,5.662,5.7136,5.7493,5.7493,5.7893,5.7893,5.7693,5.7871,5.8049,5.858,5.8735,5.8735,5.8735,5.8735,5.8735,5.8735,5.8735,5.8735,5.8735,5.8735,5.8735,4.3568,4.3985,4.5553,4.6244,4.667,4.8328,4.9613,5.0588,5.1102,5.2035,5.3005,5.3136,5.3111,5.3266,5.3371,5.3396,5.3396,5.3396,5.3859,5.4812,5.6146,5.7901,5.9738,6.0916,6.2256,6.3575,6.3985,6.4965,6.6207,6.5805,6.6362,6.8084,6.8288,6.8579,6.8928,6.8986,6.8986,6.8986,6.8986,6.8986,6.9015,6.8761,6.8193,6.7577,6.871,6.898,6.8452,6.9807,7.0296,7.0051,7.0641,7.0755,7.0196,7.0366,7.1522,7.3836,7.3864,7.305,7.2196,7.2306,7.1414,6.9224,6.8864,6.8175,6.7187,6.6863,6.6863,6.6701,6.6539,6.6376,6.6213,6.6539,6.6701,6.6238,6.5277,6.4755,6.478,6.4613,6.4304,6.4137,6.3102,6.1715,6.1176,5.9788,5.9109,5.9811,5.9263,5.8735,5.8558,5.8204,5.7871,5.7915,5.738,5.6979,5.7493,5.8204,5.8558,5.8381,5.8558,5.8911,5.8381,5.8404,5.8404,5.8933,5.8735,5.8735,5.8735,5.8735,5.8735,5.8735,5.8735,5.8735,5.8735,5.8735,5.8735,4.3213,4.3818,4.5774,4.6885,4.7586,4.9132,5.0675,5.1819,5.1612,5.2035,5.3005,5.3136,5.3136,5.3161,5.3548,5.3628,5.3628,5.3679,5.4787,5.6553,5.6736,5.8759,6.2173,6.2603,6.363,6.5103,6.4779,6.4339,6.4205,6.4756,6.5728,6.6892,6.7095,6.7677,6.8637,6.8928,6.8986,6.8986,6.8986,6.8986,6.9015,6.9015,6.8761,6.8321,6.835,6.828,6.795,6.8659,6.9124,6.9153,6.9905,7.0108,6.9181,6.7826,6.9316,7.3102,7.2961,7.2905,7.3573,7.2896,7.1265,6.9155,6.8751,6.8153,6.6592,6.666,6.6711,6.666,6.5986,6.6049,6.6701,6.6863,6.6701,6.6401,6.5582,6.5087,6.4896,6.4613,6.4471,6.4304,6.4137,6.3609,6.2498,6.0288,5.9438,5.9788,5.9263,5.8735,5.8735,5.8735,5.8404,5.8271,5.8271,5.8426,5.9263,5.9788,6.016,5.9962,6.0311,6.1004,6.0137,5.9263,5.9263,5.9285,5.9263,5.9263,5.8911,5.8911,5.8933,5.8735,5.8735,5.8735,5.8735,5.8735,5.8735,4.2638,4.3652,4.4813,4.6222,4.8027,5.0246,5.1528,5.1927,5.2587,5.298,5.3396,5.3396,5.3396,5.3498,5.4364,5.472,5.472,5.4985,5.589,5.7192,5.7391,5.9414,6.2545,6.2973,6.4266,6.5983,6.615,6.5667,6.5076,6.5094,6.5263,6.5728,6.6572,6.7212,6.7619,6.8579,6.8986,6.8986,6.8986,6.8986,6.8986,6.8986,6.8859,6.8478,6.8165,6.7879,6.7908,6.8093,6.8163,6.793,6.8608,6.8591,6.7705,6.7646,6.8659,7.0887,7.1346,7.1831,7.2482,7.1662,7.0133,6.8,6.8398,6.7652,6.5378,6.5949,6.6101,6.5009,6.5763,6.6463,6.6863,6.6863,6.6863,6.6701,6.6238,6.5746,6.5392,6.4755,6.4304,6.4304,6.4304,6.4112,6.3416,6.1176,5.9438,6.0681,5.9788,5.8735,5.8735,5.8404,5.8426,5.858,5.858,5.8911,5.9788,6.0854,6.1199,6.1176,6.1497,6.2011,6.1622,6.0635,6.0334,6.016,6.0681,6.0658,5.9962,5.9658,5.9681,5.9109,5.8757,5.8802,5.8911,5.8735,5.8735,4.1369,4.2614,4.3946,4.6411,4.9383,5.1637,5.2587,5.2587,5.3266,5.3396,5.3396,5.3396,5.3526,5.3681,5.4423,5.5036,5.571,5.5868,5.6886,5.8357,5.8809,6.0509,6.2883,6.3972,6.5287,6.685,6.7004,6.6708,6.6199,6.549,6.525,6.5234,6.5292,6.5728,6.631,6.7532,6.82,6.82,6.8724,6.8986,6.8986,6.8888,6.8605,6.8449,6.8065,6.7908,6.7779,6.7779,6.7678,6.7707,6.7807,6.7936,6.7678,6.7779,6.8106,6.8622,6.9619,7.0133,6.983,6.9858,6.836,6.5081,6.647,6.6214,6.3536,6.5009,6.5923,6.506,6.5237,6.5949,6.6736,6.6863,6.6863,6.6863,6.6376,6.5911,6.5532,6.478,6.4304,6.4304,6.4304,6.4304,6.3969,6.2399,6.152,6.1544,6.0137,5.9087,5.9263,5.8757,5.8603,5.8735,5.959,6.0461,6.1199,6.2058,6.2423,6.2399,6.2716,6.3223,6.3054,6.2229,6.1395,6.105,6.1223,6.1199,6.09,6.0911,6.1303,6.0975,6.06,6.0418,6.0031,5.9636,5.9613,4.0089,4.11,4.3468,4.7043,5.0665,5.2468,5.327,5.3371,5.3396,5.3396,5.3396,5.3396,5.3605,5.4017,5.4171,5.4943,5.6081,5.6394,5.7573,5.9634,6.0705,6.1943,6.3582,6.5358,6.6675,6.7263,6.7261,6.7204,6.7205,6.617,6.551,6.5143,6.4012,6.41,6.5118,6.6281,6.6921,6.7037,6.8317,6.9015,6.9015,6.8576,6.8449,6.8449,6.8036,6.7908,6.7879,6.7577,6.7577,6.7779,6.7678,6.7965,6.8761,6.8193,6.752,6.7214,6.8151,6.8136,6.7016,6.7762,6.6352,6.2418,6.3871,6.4217,6.2384,6.3715,6.5242,6.5415,6.4247,6.4399,6.6482,6.6863,6.6863,6.6701,6.6238,6.5911,6.5392,6.4755,6.4304,6.4304,6.4304,6.4304,6.4304,6.4137,6.3777,6.3126,6.1004,5.9636,5.9985,5.9636,5.924,5.9415,6.098,6.2546,6.2787,6.3633,6.3801,6.3295,6.3801,6.4137,6.4018,6.3537,6.3052,6.2589,6.2152,6.2169,6.2184,6.2559,6.3145,6.2148,6.2464,6.2969,6.1978,6.1224,6.1235,4.0197,4.1406,4.3607,4.5491,4.7445,5.0787,5.2713,5.3371,5.3501,5.3396,5.3396,5.3396,5.3526,5.3732,5.4547,5.5189,5.568,5.6903,5.8697,6.078,6.1448,6.3441,6.6011,6.5584,6.6508,6.8317,6.7515,6.7573,6.8375,6.7379,6.674,6.6485,6.5321,6.4827,6.5118,6.5408,6.6019,6.7008,6.8037,6.8732,6.9015,6.8605,6.8449,6.8449,6.8065,6.7908,6.7779,6.752,6.7548,6.7779,6.7936,6.835,6.8888,6.7836,6.7548,6.835,6.7836,6.685,6.5599,6.4892,6.3525,6.1632,6.2841,6.2742,6.0822,6.0912,6.1387,6.1626,6.1499,6.2672,6.605,6.6863,6.6701,6.6401,6.5721,6.5252,6.5087,6.4613,6.4304,6.4304,6.4304,6.4304,6.4304,6.4304,6.4304,6.3801,6.2229,6.1027,6.1199,6.1199,6.1027,6.1348,6.2546,6.3609,6.315,6.3801,6.4137,6.4137,6.4304,6.4304,6.4426,6.4867,6.4697,6.4164,6.4309,6.4132,6.3236,6.3647,6.3368,6.2093,6.3159,6.4091,6.3205,6.2657,6.2654,3.9536,4.1071,4.331,4.4988,4.6322,4.9591,5.1597,5.2713,5.2764,5.2764,5.2789,5.3298,5.3501,5.3785,5.4351,5.5148,5.5926,5.7585,5.9264,6.1038,6.1377,6.2388,6.3873,6.3581,6.4028,6.5284,6.6212,6.711,6.7776,6.8026,6.759,6.6979,6.6339,6.567,6.5176,6.5699,6.631,6.7008,6.7582,6.825,6.9015,6.8605,6.8449,6.8449,6.8065,6.765,6.7077,6.6921,6.6663,6.6314,6.7092,6.7275,6.6804,6.6821,6.7548,6.8859,6.6622,6.4935,6.428,6.3135,6.1798,6.0008,6.0928,6.1057,5.9701,5.9092,5.9128,5.9873,6.0111,6.2036,6.633,6.6863,6.627,6.4854,6.4871,6.4872,6.4921,6.4613,6.4304,6.4304,6.4304,6.4304,6.4304,6.4304,6.4304,6.4304,6.3633,6.2763,6.2252,6.2569,6.2933,6.2909,6.3609,6.3945,6.3801,6.4137,6.4304,6.4304,6.4304,6.4304,6.4377,6.5183,6.5744,6.5793,6.5768,6.5547,6.4833,6.4809,6.4462,6.318,6.4616,6.5587,6.5207,6.4639,6.4233,3.8895,4.0302,4.2853,4.4687,4.6005,4.8495,5.0258,5.1367,5.1491,5.1669,5.19,5.2866,5.3401,5.3709,5.3731,5.4563,5.6095,5.7438,5.8789,6.0153,6.0722,6.0575,6.0142,6.1053,6.123,6.1116,6.409,6.5764,6.6082,6.7515,6.7872,6.7095,6.7008,6.6485,6.5554,6.6281,6.6834,6.7008,6.6856,6.7677,6.8986,6.8576,6.8321,6.835,6.8008,6.7392,6.636,6.6457,6.6036,6.5216,6.5927,6.5811,6.4541,6.6209,6.7364,6.7506,6.4471,6.2663,6.2758,6.1328,5.956,5.7719,5.8338,5.8772,5.8478,5.7502,5.7209,5.747,5.8495,6.1198,6.5695,6.5814,6.4693,6.2988,6.3628,6.4214,6.4435,6.4147,6.3816,6.4231,6.4304,6.4304,6.4304,6.4304,6.4304,6.4304,6.4137,6.3969,6.3464,6.3777,6.4304,6.4304,6.4304,6.4304,6.4304,6.428,6.4304,6.4304,6.4304,6.4304,6.4304,6.5353,6.6622,6.7721,6.6989,6.606,6.5547,6.5719,6.5178,6.4534,6.5698,6.6748,6.6217,6.5951,6.5227,3.9,4.0654,4.2246,4.365,4.4915,4.735,4.8665,4.925,4.9343,0.0,0.0,5.2053,5.2281,5.2255,5.2302,5.2284,5.2507,5.3858,5.5354,5.6841,5.9817,6.0841,6.0085,6.0916,6.1257,6.1224,6.1635,6.2387,6.3455,6.4518,6.5526,6.6523,6.661,6.6617,6.6659,6.5874,6.584,6.6523,6.6391,6.7179,6.8986,6.8321,6.8065,6.8449,6.8036,6.7793,6.7564,6.7848,6.8016,6.8163,6.6881,6.6004,6.5798,6.7561,6.6381,6.1618,6.0468,6.036,6.077,5.6637,5.4079,5.4604,5.4748,5.4559,5.3922,5.5042,5.4077,4.9462,5.2456,5.7286,6.3459,6.1911,6.0528,6.1077,6.0729,6.1241,6.2734,6.2157,6.2327,6.3938,6.4206,6.4304,6.4231,6.428,6.4304,6.4304,6.4304,6.428,6.4112,6.4304,6.4304,6.4304,6.4304,6.4304,6.4304,6.4304,6.4304,6.4304,6.4304,6.4304,6.4573,6.5915,6.7843,6.9527,6.8453,6.664,6.5174,6.4761,6.409,6.2156,6.3904,6.5528,6.4355,6.4651,6.5154,3.9987,4.1797,4.267,4.4105,0.0,4.6943,4.7568,4.7683,4.7824,4.8884,5.0441,5.088,5.1381,5.1914,5.1319,5.1548,5.2393,5.3275,5.456,5.5913,5.7102,5.8144,5.8945,5.7983,5.8041,5.9032,5.9557,6.0192,6.0885,6.2156,6.3517,6.4792,6.4911,6.555,6.6675,6.5516,6.5048,6.5231,6.6197,6.7275,6.8675,6.8321,6.8165,6.8193,6.849,0.0,0.0,0.0,0.0,0.0,0.0,0.0,0.0,6.4488,6.0415,5.684,5.7764,5.7363,5.4871,5.3552,5.235,5.1481,5.3024,5.3079,5.0796,5.1329,5.1275,5.0262,4.7963,4.9944,5.754,5.8676,5.8659,5.8138,5.8459,5.9057,6.0009,6.0229,6.0717,6.1766,6.2669,6.323,6.3206,6.3792,6.428,6.4304,6.4304,6.4304,6.4304,6.4304,6.4304,6.4304,6.4304,6.4304,6.4304,6.4304,6.4304,6.4304,6.4304,6.4304,6.4304,6.5622,6.7574,6.9868,6.8477,6.64,6.5423,6.4376,6.3526,6.308,6.3637,6.4179,6.3637,6.3883,6.4382,4.1206,4.3224,4.3653,4.5069,4.702,4.6958,4.7097,4.721,4.7184,4.7924,4.917,5.0047,5.1012,5.1729,5.0891,5.1205,5.244,5.3086,5.3816,5.4722,5.4486,5.5251,5.6625,5.5014,5.511,5.6699,5.771,5.8316,5.8576,6.0028,6.1274,6.2328,6.2556,6.3576,6.5216,0.0,0.0,0.0,6.4985,6.6668,6.8016,6.8206,6.8065,6.7908,6.8966,0.0,6.7999,6.9111,6.9216,6.8023,7.0591,0.0,7.1421,0.0,0.0,0.0,0.0,0.0,4.8774,0.0,0.0,0.0,5.078,5.0756,4.7451,4.7703,4.9208,5.1401,4.5278,4.4254,5.2129,5.5497,5.659,5.4909,5.5669,5.6885,5.7549,5.8137,5.8721,5.9106,6.0448,6.1473,6.1986,6.3328,6.428,6.4304,6.4304,6.4304,6.4304,6.4084,6.4036,6.4255,6.4304,6.4304,6.4304,6.4304,6.4304,6.4304,6.4304,6.4304,6.4402,6.5353,6.7306,6.8624,6.7843,6.6525,6.6232,6.484,6.3845,6.4309,6.4061,6.3781,6.3802,6.3777,6.3609,4.2064,4.4317,4.4317,4.5161,4.6529,4.7046,4.7805,4.8715,4.8496,4.8878,4.9773,5.1067,5.1802,5.1913,5.175,5.0986,4.9868,5.0943,5.0991,5.0384,5.3361,5.3948,5.2814,5.4474,5.5461,5.5738,5.5619,5.6122,5.717,5.7178,5.8005,5.9355,5.9495,6.0247,6.1376,5.9182,5.819,5.8802,6.1138,6.3868,6.6659,6.7235,6.7707,6.7908,6.8617,6.9004,6.9137,7.0364,7.1023,7.0873,7.2061,7.1894,6.9807,6.2233,5.6906,0.0,5.0216,0.0,0.0,0.0,0.0,0.0,0.0,0.0,0.0,4.5898,4.8005,4.6496,4.4732,4.5495,5.0102,5.1219,5.1444,5.1287,5.1316,5.2657,5.5758,5.5609,5.581,5.7963,5.8301,5.9179,6.0912,6.3011,6.4304,6.4304,6.4182,6.4011,6.4133,6.3401,6.3182,6.4182,6.4304,6.4206,6.428,6.4304,6.4304,6.4304,6.4304,6.4304,6.4304,6.5866,6.6793,6.5842,6.7062,6.8062,6.7428,6.6362,6.5402,6.4617,6.4128,6.4061,6.4638,6.4509,6.428,4.2284,4.3868,4.4708,4.5094,4.515,4.5697,4.6178,4.6759,4.6838,4.7256,4.7719,4.7815,4.7811,4.7686,4.855,4.8983,4.9193,5.0664,5.1354,5.1666,5.3151,5.3956,5.397,5.4331,5.488,5.5549,5.4693,5.4534,5.5085,5.5113,5.578,5.7026,5.7236,5.7316,5.7322,5.5625,5.5606,5.7501,5.9828,6.266,6.5845,6.6181,6.6964,6.8078,6.9092,6.9991,7.048,7.0258,7.0102,6.9928,6.8156,6.5773,6.2849,5.9788,5.3386,0.0,0.0,0.0,0.0,0.0,0.0,0.0,0.0,0.0,0.0,0.0,4.4454,4.5368,4.3316,4.3741,4.7988,4.7446,4.7068,4.7722,4.8285,4.8945,4.9807,5.0942,5.2157,5.3565,5.3045,5.425,5.8716,6.1156,6.2889,6.4133,6.2767,6.1717,6.1839,6.1864,6.2132,6.3157,6.3377,6.3572,6.4231,6.4304,6.4304,6.4304,6.4304,6.4304,6.4329,6.5109,6.5842,6.6037,6.6232,6.6256,6.6134,6.5329,6.4865,6.4794,6.4475,6.3902,6.3783,6.349,6.3269,4.239,4.3371,4.2709,4.2594,4.301,4.356,4.4407,4.5477,4.5879,4.6197,4.6427,4.595,4.5518,4.5436,4.6112,4.7091,4.816,4.9726,5.0941,5.1742,5.2513,5.352,5.4619,5.4147,5.4497,5.5635,5.4147,5.368,5.4205,5.3455,5.3884,5.5331,5.5039,5.4273,5.3251,5.2621,5.3424,5.5556,5.819,6.0799,6.3485,6.4415,6.5405,6.6977,6.8036,6.8842,6.9311,6.8809,6.8341,6.7864,6.4374,6.0798,5.7741,5.6476,0.0,0.0,0.0,0.0,0.0,0.0,0.0,0.0,0.0,3.6984,4.1523,0.0,4.1023,0.0,4.0889,4.0872,4.4889,4.4121,0.0,0.0,4.547,4.5907,4.5112,4.6655,4.8175,4.8969,4.776,4.8644,5.3147,5.7938,6.1107,6.1132,5.9969,5.9162,5.9497,6.0253,6.1058,6.1717,6.2059,6.2376,6.262,6.3304,6.3743,6.3792,6.3767,6.3718,6.3548,6.3914,6.5012,6.6867,6.572,6.4785,6.4995,6.4447,6.4564,6.5208,6.5109,6.4393,6.3685,6.3144,6.2867,4.2311,4.2981,3.6294,3.6138,4.0283,4.0389,4.2873,4.6842,4.7134,4.7394,4.7569,4.8589,4.8735,4.8337,4.691,0.0,4.5788,4.6845,4.744,4.7435,5.0189,5.1694,5.203,5.3618,5.5047,5.6196,5.3751,5.3685,5.5514,5.2016,5.1819,5.4909,5.2518,5.0601,4.9315,5.0284,5.0882,5.1138,5.4938,5.7264,5.8177,6.1084,6.2668,6.2901,6.3429,6.382,6.3898,6.5829,6.6357,6.5464,6.3318,6.086,5.8111,0.0,0.0,0.0,0.0,0.0,0.0,0.0,0.0,0.0,0.0,0.0,0.0,0.0,0.0,3.7856,3.7012,0.0,4.049,4.1421,0.0,0.0,0.0,4.3567,4.4765,4.3963,4.3656,4.4721,0.0,0.0,4.1814,5.2999,5.8911,5.32,5.5718,5.8065,5.811,5.9204,6.0033,5.9838,6.0522,6.0473,5.9277,6.0522,6.1913,6.223,6.2327,6.2108,6.1755,6.2815,6.4987,6.6818,6.6012,6.4872,6.5111,6.4955,6.5308,6.5123,6.5763,6.6296,6.5847,6.4794,6.3715,3.6341,3.358,3.1032,3.1134,3.2975,3.3317,3.6414,4.101,4.1285,4.2855,4.5357,4.431,4.3492,4.2828,4.0641,0.0,0.0,0.0,4.6826,4.7338,4.955,5.0639,5.0605,5.2357,5.3551,5.4023,5.3787,5.4104,5.4723,5.3134,5.1454,4.9426,0.0,4.5701,4.8151,4.8114,4.921,5.1552,5.4728,5.7231,5.9056,6.0825,6.255,6.4421,6.5212,6.5972,6.6546,6.5196,6.3672,6.232,5.7835,5.3682,0.0,0.0,0.0,0.0,0.0,0.0,0.0,0.0,0.0,0.0,0.0,2.9665,3.2481,0.0,0.0,0.0,3.4602,3.5577,3.9128,4.0252,0.0,0.0,0.0,0.0,0.0,0.0,0.0,4.4403,4.1625,4.057,4.366,4.9415,5.3835,5.5177,5.382,5.3713,5.6226,0.0,5.7715,5.8472,5.8325,5.8301,5.8764,5.7105,5.696,6.0296,6.1164,6.1346,6.1436,6.2615,6.3402,6.3427,6.3431,6.343,6.3799,6.1884,6.0626,6.2036,6.1528,6.0919,6.0868,6.0391,6.0143,2.9161,0.0,0.0,0.0,0.0,2.7684,3.0834,3.573,3.6308,3.798,4.0198,3.9669,0.0,0.0,0.0,0.0,0.0,0.0,4.4025,4.5117,4.7783,4.8776,4.8367,5.0392,5.1191,5.0747,5.0894,5.0977,5.0994,5.0581,4.8175,4.3742,0.0,0.0,0.0,0.0,4.7823,5.0885,5.4404,5.7226,5.9182,6.0428,6.227,6.4488,6.5131,6.5555,6.5853,6.3088,6.0474,5.8234,5.293,0.0,0.0,0.0,0.0,0.0,0.0,0.0,0.0,0.0,0.0,0.0,0.0,0.0,0.0,0.0,0.0,0.0,0.0,0.0,3.7532,4.0027,4.0552,0.0,0.0,0.0,0.0,0.0,0.0,0.0,0.0,0.0,4.4069,4.588,4.9119,0.0,0.0,4.9661,5.4006,5.5586,5.6467,5.6446,5.6324,0.0,5.7081,5.3957,5.3133,5.8063,5.9703,6.0428,6.0665,6.0779,6.0675,6.0378,6.0228,6.0276,6.0541,5.8388,5.747,5.8465,5.8028,5.7154,5.7077,5.6685,5.6736,0.0,0.0,0.0,0.0,2.4405,0.0,0.0,0.0,3.4038,3.358,0.0,3.5785,0.0,0.0,0.0,0.0,3.5387,3.6551,0.0,0.0,4.3951,4.5783,4.5083,4.7414,4.8004,4.6511,4.4247,4.3346,4.3708,4.2429,4.0674,0.0,0.0,0.0,0.0,0.0,4.6624,4.8269,5.3401,5.6568,5.7248,5.9615,6.1087,6.1539,6.1213,6.0382,5.9126,5.8663,5.6734,5.3045,4.9635,0.0,0.0,0.0,0.0,0.0,0.0,0.0,0.0,0.0,0.0,0.0,0.0,0.0,0.0,0.0,0.0,0.0,0.0,0.0,0.0,4.0732,0.0,0.0,0.0,0.0,0.0,0.0,0.0,0.0,0.0,3.8751,4.0206,4.2145,4.552,5.0955,0.0,0.0,0.0,0.0,5.6724,5.3632,5.4721,5.491,5.2286,5.1724,5.2603,5.5769,0.0,0.0,5.8548,5.7015,5.6661,5.85,5.7146,5.5538,5.5369,5.5583,5.5891,5.6076,5.6513,5.7203,5.7203,5.5763,5.4933,0.0,0.0,0.0,0.0,0.0,0.0,0.0,0.0,0.0,2.7548,3.0165,3.101,3.026,0.0,0.0,0.0,0.0,0.0,0.0,0.0,3.8857,4.0367,4.0705,4.1734,4.2353,4.2478,4.2372,3.9002,0.0,0.0,0.0,0.0,0.0,0.0,0.0,0.0,4.3858,4.5224,5.2224,5.6329,5.7105,5.9561,6.075,6.0508,6.0891,6.0353,5.8509,5.5728,5.2292,0.0,0.0,0.0,0.0,0.0,0.0,0.0,0.0,0.0,0.0,0.0,0.0,0.0,0.0,0.0,0.0,0.0,0.0,0.0,0.0,0.0,0.0,0.0,4.0475,0.0,0.0,0.0,0.0,0.0,0.0,0.0,0.0,0.0,3.4797,3.6766,4.0491,4.6367,4.4451,4.4693,5.0638,0.0,0.0,0.0,0.0,0.0,0.0,0.0,5.2346,5.475,5.7624,5.891,5.6781,5.6078,5.5845,5.5837,0.0,0.0,5.0788,5.1253,5.1952,5.1952,5.1458,5.1345,5.2208,5.1232,5.0421,0.0,0.0,0.0,0.0,0.0,0.0,0.0,0.0,0.0,2.4053,2.6668,0.0,0.0,0.0,0.0,0.0,0.0,0.0,0.0,0.0,3.4403,0.0,3.5939,3.6443,0.0,0.0,0.0,0.0,0.0,0.0,0.0,0.0,0.0,0.0,0.0,0.0,4.2542,4.4352,5.1373,5.5845,5.7421,5.9105,6.0251,6.1001,6.1197,6.0452,5.8479,0.0,0.0,0.0,3.8068,0.0,0.0,0.0,0.0,0.0,0.0,0.0,0.0,0.0,0.0,0.0,0.0,0.0,0.0,0.0,0.0,0.0,0.0,0.0,0.0,0.0,3.7256,0.0,0.0,0.0,0.0,0.0,0.0,0.0,0.0,0.0,0.0,3.3659,3.7879,4.2641,4.2542,4.3741,4.8665,4.862,4.8926,0.0,0.0,5.1053,0.0,0.0,0.0,0.0,0.0,0.0,0.0,0.0,0.0,0.0,5.0665,4.8319,4.6329,4.6967,4.8021,4.8338,0.0,0.0,0.0,0.0,0.0,0.0,0.0,0.0,0.0,0.0,0.0,0.0,0.0,0.0,0.0,2.0792,0.0,0.0,1.9368,0.0,0.0,0.0,0.0,0.0,0.0,0.0,0.0,0.0,0.0,0.0,0.0,0.0,0.0,0.0,0.0,0.0,0.0,0.0,0.0,0.0,0.0,4.268,4.5434,5.0934,5.529,5.8036,5.8227,5.9697,6.2511,6.1566,6.0177,5.8358,0.0,0.0,0.0,0.0,0.0,0.0,0.0,0.0,0.0,0.0,0.0,0.0,0.0,0.0,0.0,0.0,0.0,0.0,0.0,0.0,0.0,0.0,0.0,0.0,0.0,0.0,3.158,3.2479,3.4128,0.0,0.0,0.0,0.0,0.0,0.0,0.0,0.0,0.0,3.993,4.1979,4.3692,4.4854,4.6804,4.8105,4.8243,4.8924,4.9387,4.9497,5.0549,5.2249,0.0,0.0,0.0,0.0,0.0,0.0,0.0,0.0,0.0,0.0,0.0,0.0,0.0,0.0,0.0,0.0,0.0,0.0,0.0,0.0,0.0,0.0,0.0,0.0,0.0,0.0,0.0,0.0,1.233,1.2569,0.0,0.0,0.0,0.0,0.0,0.0,0.0,0.0,0.0,0.0,0.0,0.0,0.0,0.0,0.0,0.0,0.0,0.0,0.0,0.0,0.0,0.0,0.0,0.0,4.0419,4.3788,5.015,5.4259,5.5985,5.7986,5.8927,5.9034,5.8169,5.6242,5.2968,0.0,0.0,0.0,0.0,0.0,0.0,0.0,0.0,0.0,0.0,0.0,0.0,0.0,0.0,0.0,0.0,0.0,0.0,0.0,0.0,0.0,0.0,0.0,0.0,0.0,0.0,0.0,3.0834,3.227,3.2889,0.0,0.0,0.0,0.0,0.0,0.0,0.0,0.0,0.0,0.0,4.1547,4.4488,4.5425,4.6409,4.7999,4.7917,4.8116,4.9367,4.9664,4.9848,5.027,0.0,0.0,0.0,0.0,0.0,0.0,0.0,0.0,0.0,0.0,0.0,0.0,0.0,0.0,0.0,0.0,0.0,0.0,0.0,0.0,0.0,0.0,0.0,0.0,0.0,0.0,0.0,0.0,0.0,0.0,0.0,0.0,0.0,0.0,0.0,0.0,0.0,0.0,0.0,0.0,0.0,0.0,0.0,0.0,0.0,0.0,0.0,0.0,0.0,0.0,0.0,0.0,0.0,3.9267,4.3114,4.92,5.3392,5.5476,5.6997,5.7933,5.8042,5.6152,5.3328,0.0,0.0,0.0,0.0,0.0,0.0,0.0,0.0,0.0,0.0,0.0,0.0,0.0,0.0,0.0,0.0,0.0,0.0,0.0,0.0,0.0,0.0,0.0,0.0,0.0,0.0,0.0,0.0,3.0135,3.1571,3.1509,0.0,0.0,0.0,0.0,0.0,0.0,0.0,0.0,0.0,0.0,4.0377,4.2756,4.3825,0.0,0.0,4.6047,4.6626,4.758,4.7799,4.7789,4.7751,4.6926,0.0,0.0,0.0,0.0,0.0,0.0,0.0,0.0,0.0,0.0,0.0,0.0,0.0,0.0,0.0,0.0,0.0,0.0,0.0,0.0,0.0,0.0,0.0,0.0,0.0,0.0,0.0,0.0,0.0,0.0,0.0,0.0,0.0,0.0,0.0,0.0,0.0,0.0,0.0,0.0,0.0,0.0,0.0,0.0,0.0,0.0,0.0,0.0,0.0,0.0,0.0,0.0,3.8769,4.3041,4.835,5.2719,5.6,5.5891,5.6765,5.8968,5.5041,5.1475,0.0,0.0,0.0,0.0,0.0,0.0,0.0,0.0,0.0,0.0,0.0,0.0,0.0,0.0,0.0,0.0,0.0,0.0,0.0,0.0,0.0,0.0,0.0,0.0,0.0,0.0,0.0,0.0,0.0,0.0,0.0,0.0,0.0,0.0,0.0,0.0,0.0,0.0,0.0,0.0,0.0,3.9827,4.0126,4.201,4.3038,0.0,4.3489,4.4823,4.4932,4.549,4.5997,4.6285,0.0,0.0,0.0,0.0,0.0,0.0,0.0,0.0,0.0,0.0,0.0,0.0,0.0,0.0,0.0,0.0,0.0,0.0,0.0,0.0,0.0,0.0,0.0,0.0,0.0,0.0,0.0,0.0,0.0,0.0,0.0,0.0,0.0,0.0,0.0,0.0,0.0,0.0,0.0,0.0,0.0,0.0,0.0,0.0,0.0,0.0,0.0,0.0,0.0,0.0,0.0,0.0,0.0,0.0,4.1404,4.8544,5.3074,5.4798,5.7003,5.7928,5.7517,5.4437,0.0,0.0,0.0,0.0,0.0,0.0,0.0,0.0,0.0,0.0,0.0,0.0,0.0,0.0,0.0,0.0,0.0,0.0,0.0,0.0,0.0,0.0,0.0,0.0,0.0,0.0,0.0,2.2378,0.0,0.0,0.0,0.0,0.0,0.0,0.0,0.0,0.0,0.0,0.0,0.0,0.0,0.0,3.7148,3.8932,4.1646,4.3156,0.0,0.0,4.4004,4.4873,4.5441,4.5018,0.0,0.0,0.0,0.0,0.0,0.0,0.0,0.0,0.0,0.0,0.0,0.0,0.0,0.0,0.0,0.0,0.0,0.0,0.0,0.0,0.0,0.0,0.0,0.0,0.0,0.0,0.0,0.0,0.0,0.0,0.0,0.0,0.0,0.0,0.0,0.0,0.0,0.0,0.0,0.0,0.0,0.0,0.0,0.0,0.0,0.0,0.0,0.0,0.0,0.0,0.0,0.0,0.0,0.0,3.4806,3.9991,4.6448,5.1014,5.3626,5.6094,5.7415,5.7578,5.3522,4.9669,0.0,0.0,0.0,0.0,0.0,0.0,0.0,0.0,0.0,0.0,0.0,0.0,0.0,0.0,0.0,0.0,0.0,0.0,0.0,0.0,0.0,0.0,0.0,0.0,0.0,0.0,0.0,0.0,0.0,0.0,0.0,0.0,0.0,0.0,0.0,0.0,0.0,0.0,0.0,0.0,0.0,0.0,3.8137,3.9877,0.0,0.0,0.0,4.1725,4.2927,0.0,0.0,0.0,0.0,0.0,0.0,0.0,0.0,0.0,0.0,0.0,0.0,0.0,0.0,0.0,0.0,0.0,0.0,0.0,0.0,0.0,0.0,0.0,0.0,0.0,0.0,0.0,0.0,0.0,0.0,0.0,0.0,0.0,0.0,0.0,0.0,0.0,0.0,0.0,0.0,0.0,0.0,0.0,0.0,0.0,0.0,0.0,0.0,0.0,0.0,0.0,0.0,0.0,0.0,0.0,0.0,0.0,3.8694,4.3587,4.8214,5.2565,5.434,5.5953,5.7662,5.2703,4.8463,0.0,0.0,0.0,0.0,0.0,0.0,0.0,0.0,0.0,0.0,0.0,0.0,0.0,0.0,0.0,0.0,0.0,0.0,0.0,0.0,0.0,0.0,0.0,0.0,0.0,0.0,0.0,0.0,0.0,0.0,0.0,0.0,0.0,0.0,0.0,0.0,0.0,0.0,0.0,0.0,0.0,3.4519,3.7373,3.776,3.7896,0.0,0.0,3.8964,4.0134,4.0116,0.0,0.0,0.0,0.0,0.0,0.0,0.0,0.0,0.0,0.0,0.0,0.0,0.0,0.0,0.0,0.0,0.0,0.0,0.0,0.0,0.0,0.0,0.0,0.0,0.0,0.0,0.0,0.0,0.0,0.0,0.0,0.0,0.0,0.0,0.0,0.0,0.0,0.0,0.0,0.0,0.0,0.0,0.0,0.0,0.0,0.0,0.0,0.0,0.0,0.0,0.0,0.0,0.0,0.0,0.0,0.0,3.7825,4.2965,4.7632,5.1777,5.3819,5.4881,5.4672,5.3078,4.9544,0.0,0.0,0.0,0.0,0.0,0.0,0.0,0.0,0.0,0.0,0.0,0.0,0.0,0.0,0.0,0.0,0.0,0.0,0.0,0.0,0.0,0.0,0.0,0.0,0.0,0.0,0.0,0.0,0.0,0.0,0.0,0.0,0.0,0.0,0.0,0.0,0.0,0.0,0.0,0.0,0.0,3.364,3.6505,3.6678,0.0,0.0,0.0,0.0,3.8669,3.9547,0.0,0.0,0.0,0.0,0.0,0.0,0.0,0.0,0.0,0.0,0.0,0.0,0.0,0.0,0.0,0.0,0.0,0.0,0.0,0.0,0.0,0.0,0.0,0.0,0.0,0.0,0.0,0.0,0.0,0.0,0.0,0.0,0.0,0.0,0.0,0.0,0.0,0.0,0.0,0.0,0.0,0.0,0.0,0.0,0.0,0.0,0.0,0.0,0.0,0.0,0.0,0.0,0.0,0.0,0.0,0.0,3.5262,3.976,4.4747,5.0361,5.2432,5.3743,5.4307,5.3036,4.9685,0.0,0.0,0.0,0.0,0.0,0.0,0.0,0.0,0.0,0.0,0.0,0.0,0.0,0.0,0.0,0.0,0.0,0.0,0.0,0.0,0.0,0.0,0.0,0.0,0.0,0.0,0.0,0.0,0.0,0.0,0.0,0.0,0.0,0.0,0.0,0.0,0.0,0.0,0.0,0.0,2.9381,3.1523,3.3626,0.0,0.0,0.0,0.0,0.0,0.0,3.7476,3.7032,0.0,0.0,0.0,0.0,0.0,0.0,0.0,0.0,0.0,0.0,0.0,0.0,0.0,0.0,0.0,0.0,0.0,0.0,0.0,0.0,0.0,0.0,0.0,0.0,0.0,0.0,0.0,0.0,0.0,0.0,0.0,0.0,0.0,0.0,0.0,0.0,0.0,0.0,0.0,0.0,0.0,0.0,0.0,0.0,0.0,0.0,0.0,0.0,0.0,0.0,0.0,0.0,0.0,0.0,0.0,3.2465,3.6227,4.141,4.8202,5.0506,5.2494,5.4219,5.2166,4.8711,4.3701,0.0,0.0,0.0,0.0,0.0,0.0,0.0,0.0,0.0,0.0,0.0,0.0,0.0,0.0,0.0,0.0,0.0,0.0,0.0,0.0,0.0,0.0,0.0,0.0,0.0,0.0,0.0,0.0,0.0,0.0,0.0,0.0,0.0,0.0,0.0,0.0,0.0,0.0,0.0,2.785,2.8915,0.0,0.0,0.0,0.0,0.0,0.0,0.0,0.0,3.3522,0.0,0.0,0.0,0.0,0.0,0.0,0.0,0.0,0.0,0.0,0.0,0.0,0.0,0.0,0.0,0.0,0.0,0.0,0.0,0.0,0.0,0.0,0.0,0.0,0.0,0.0,0.0,0.0,0.0,0.0,0.0,0.0,0.0,0.0,0.0,0.0,0.0,0.0,0.0,0.0,0.0,0.0,0.0,0.0,0.0,0.0,0.0,0.0,0.0,0.0,0.0,0.0,0.0,0.0,0.0,0.0,3.5003,3.9972,4.5243,4.8278,5.0328,5.1444,4.9399,4.5603,4.0114,0.0,0.0,0.0,0.0,0.0,0.0,0.0,0.0,0.0,0.0,0.0,0.0,0.0,0.0,0.0,0.0,0.0,0.0,0.0,0.0,0.0,0.0,0.0,0.0,0.0,0.0,0.0,0.0,0.0,0.0,0.0,0.0,0.0,0.0,0.0,0.0,0.0,0.0,2.6287,2.6482,0.0,0.0,0.0,0.0,0.0,0.0,0.0,0.0,2.9321,0.0,0.0,0.0,0.0,0.0,0.0,0.0,0.0,0.0,0.0,0.0,0.0,0.0,0.0,0.0,0.0,0.0,0.0,0.0,0.0,0.0,0.0,0.0,0.0,0.0,0.0,0.0,0.0,0.0,0.0,0.0,0.0,0.0,0.0,0.0,0.0,0.0,0.0,0.0,0.0,0.0,0.0,0.0,0.0,0.0,0.0,0.0,0.0,0.0,0.0,0.0,0.0,0.0,0.0,0.0,0.0,0.0,0.0,3.8406,4.4049,4.7355,4.9439,5.0084,4.6222,4.2426,0.0,0.0,0.0,0.0,0.0,0.0,0.0,0.0,0.0,0.0,0.0,0.0,0.0,0.0,0.0,0.0,0.0,0.0,0.0,0.0,0.0,0.0,0.0,0.0,0.0,0.0,0.0,0.0,0.0,0.0,0.0,0.0,0.0,0.0,0.0,0.0,0.0,0.0,0.0,0.0,0.0,0.0,0.0,0.0,0.0,0.0,0.0,0.0,0.0,0.0,0.0,0.0,0.0,0.0,0.0,0.0,0.0,0.0,0.0,0.0,0.0,0.0,0.0,0.0,0.0,0.0,0.0,0.0,0.0,0.0,0.0,0.0,0.0,0.0,0.0,0.0,0.0,0.0,0.0,0.0,0.0,0.0,0.0,0.0,0.0,0.0,0.0,0.0,0.0,0.0,0.0,0.0,0.0,0.0,0.0,0.0,0.0,0.0,0.0,0.0,0.0,0.0,0.0,0.0,0.0,0.0,0.0,0.0,3.6739,4.2033,4.619,4.8653,4.9311,4.3598,3.9455,0.0,0.0,0.0,0.0,0.0,0.0,0.0,0.0,0.0,0.0,0.0,0.0,0.0,0.0,0.0,0.0,0.0,0.0,0.0,0.0,0.0,0.0,0.0,0.0,0.0,0.0,0.0,0.0,0.0,0.0,0.0,0.0,0.0,0.0,0.0,0.0,0.0,0.0,0.0,0.0,0.0,0.0,0.0,0.0,0.0,0.0,0.0,0.0,2.5887,0.0,0.0,0.0,0.0,0.0,0.0,0.0,0.0,0.0,0.0,0.0,0.0,0.0,0.0,0.0,0.0,0.0,0.0,0.0,0.0,0.0,0.0,0.0,0.0,0.0,0.0,0.0,0.0,0.0,0.0,0.0,0.0,0.0,0.0,0.0,0.0,0.0,0.0,0.0,0.0,0.0,0.0,0.0,0.0,0.0,0.0,0.0,0.0,0.0,0.0,0.0,0.0,0.0,0.0,0.0,0.0,0.0,0.0,0.0,3.4995,3.6926,4.3466,4.7255,4.784,4.2539,3.6825,0.0,0.0,0.0,0.0,0.0,0.0,0.0,0.0,0.0,0.0,0.0,0.0,0.0,0.0,0.0,0.0,0.0,0.0,0.0,0.0,0.0,0.0,0.0,0.0,0.0,0.0,0.0,0.0,0.0,0.0,0.0,0.0,0.0,0.0,0.0,0.0,0.0,0.0,0.0,0.0,0.0,0.0,0.0,0.0,0.0,0.0,0.0,0.0,0.0,0.0,0.0,0.0,0.0,0.0,0.0,0.0,0.0,0.0,0.0,0.0,0.0,0.0,0.0,0.0,0.0,0.0,0.0,0.0,0.0,0.0,0.0,0.0,0.0,0.0,0.0,0.0,0.0,0.0,0.0,0.0,0.0,0.0,0.0,0.0,0.0,0.0,0.0,0.0,0.0,0.0,0.0,0.0,0.0,0.0,0.0,0.0,0.0,0.0,0.0,0.0,0.0,0.0,0.0,0.0,0.0,0.0,0.0,0.0,3.1992,3.5979,4.0882,4.186,3.878,3.5387,3.1551,0.0,0.0,0.0,0.0,0.0,0.0,0.0,0.0,0.0,0.0,0.0,0.0,0.0,0.0,0.0,0.0,0.0,0.0,0.0,0.0,0.0,0.0,0.0,0.0,0.0,0.0,0.0,0.0,0.0,0.0,0.0,0.0,0.0,0.0,0.0,0.0,0.0,0.0,0.0,0.0,0.0,0.0,0.0,0.0,0.0,0.0,0.0,0.0,0.0,0.0,0.0,0.0,0.0,0.0,0.0,0.0,0.0,0.0,0.0,0.0,0.0,0.0,0.0,0.0,0.0,0.0,0.0,0.0,0.0,0.0,0.0,0.0,0.0,0.0,0.0,0.0,0.0,0.0,0.0,0.0,0.0,0.0,0.0,0.0,0.0,0.0,0.0,0.0,0.0,0.0,0.0,0.0,0.0,0.0,0.0,0.0,0.0,0.0,0.0,0.0,0.0,0.0,0.0,0.0,0.0,0.0,0.0,0.0,0.0,3.3413,3.5638,3.4773,3.0785,2.9066,2.6943,0.0,0.0,0.0,0.0,0.0,0.0,0.0,0.0,0.0,0.0,0.0,0.0,0.0,0.0,0.0,0.0,0.0,0.0,0.0,0.0,0.0,0.0,0.0,0.0,0.0,0.0,0.0,0.0,0.0,0.0,0.0,0.0,0.0,0.0,0.0,0.0,0.0,0.0,0.0,0.0,0.0,0.0,0.0,0.0,0.0,0.0,0.0,0.0,0.0,0.0,0.0,0.0,0.0,0.0,0.0,0.0,0.0,0.0,0.0,0.0,0.0,0.0,0.0,0.0,0.0,0.0,0.0,0.0,0.0,0.0,0.0,0.0,0.0,0.0,0.0,0.0,0.0,0.0,0.0,0.0,0.0,0.0,0.0,0.0,0.0,0.0,0.0,0.0,0.0,0.0,0.0,0.0,0.0,0.0,0.0,0.0,0.0,0.0,0.0,0.0,0.0,0.0,0.0,0.0,0.0,0.0,0.0,0.0,0.0,2.7293,2.6208,2.5966,2.664,2.5896,2.4078,0.0,0.0,0.0,0.0,0.0,0.0,0.0,0.0,0.0,0.0,0.0,0.0,0.0,0.0,0.0,0.0,0.0,0.0,0.0,0.0,0.0,0.0,0.0,0.0,0.0,0.0,0.0,0.0,0.0,0.0,0.0,0.0,0.0,0.0,0.0,0.0,0.0,0.0,0.0,0.0,0.0,0.0,0.0,0.0,0.0,0.0,0.0,0.0,0.0,0.0,0.0,0.0,0.0,0.0,0.0,0.0,0.0,0.0,0.0,0.0,0.0,0.0,0.0,0.0,0.0,0.0,0.0,0.0,0.0,0.0,0.0,0.0,0.0,0.0,0.0,0.0,0.0,0.0,0.0,0.0,0.0,0.0,0.0,0.0,0.0,0.0,0.0,0.0,0.0,0.0,0.0,0.0,0.0,0.0,0.0,0.0,0.0,0.0,0.0,0.0,0.0,0.0,0.0,0.0,0.0,0.0,0.0,0.0,0.0,2.0502,1.9833,1.9436,1.9362,1.9797,1.86,1.5703,0.0,0.0,0.0,0.0,0.0,0.0,0.0,0.0,0.0,0.0,0.0,0.0,0.0,0.0,0.0,0.0,0.0,0.0,0.0,0.0,0.0,0.0,0.0,0.0,0.0,0.0,0.0,0.0,0.0,0.0,0.0,0.0,0.0,0.0,0.0,0.0,0.0,0.0,0.0,0.0,0.0,0.0,0.0,0.0,0.0,0.0,0.0,0.0,0.0,0.0,0.0,0.0,0.0,0.0,0.0,0.0,0.0,0.0,0.0,0.0,0.0,0.0,0.0,0.0,0.0,0.0,0.0,0.0,0.0,0.0,0.0,0.0,0.0,0.0,0.0,0.0,0.0,0.0,0.0,0.0,0.0,0.0,0.0,0.0,0.0,0.0,0.0,0.0,0.0,0.0,0.0,0.0,0.0,0.0,0.0,0.0,0.0,0.0,0.0,0.0,0.0,0.0,0.0,0.0,0.0,0.0,0.0,0.0,1.5076,1.5108,1.5022,1.5043,1.544,1.4973,0.0,0.0,0.0,0.0,0.0,0.0,0.0,0.0,0.0,0.0,0.0,0.0,0.0,0.0,0.0,0.0,0.0,0.0,0.0,0.0,0.0,0.0,0.0,0.0,0.0,0.0,0.0,0.0,0.0,0.0,0.0,0.0,0.0,0.0,0.0,0.0,0.0,0.0,0.0,0.0,0.0,0.0,0.0,0.0,0.0,0.0,0.0,0.0,0.0,0.0,0.0,0.0,0.0,0.0,0.0,0.0,0.0,0.0,0.0,0.0,0.0,0.0,0.0,0.0,0.0,0.0,0.0,0.0,0.0,0.0,0.0,0.0,0.0,0.0,0.0,0.0,0.0,0.0,0.0,0.0,0.0,0.0,0.0,0.0,0.0,0.0,0.0,0.0,0.0,0.0,0.0,0.0,0.0,0.0,0.0,0.0,0.0,0.0,0.0,0.0,0.0,0.0,0.0,0.0,0.0,0.0,0.0,0.0,1.0526,1.12,1.1986,1.3051,1.4437,1.3494,1.3704,0.0,0.0,0.0,0.0,0.0,0.0,0.0,0.0,0.0,0.0,0.0,0.0,0.0,0.0,0.0,0.0,0.0,0.0,0.0,0.0,0.0,0.0,0.0,0.0,0.0,0.0,0.0,0.0,0.0,0.0,0.0,0.0,0.0,0.0,0.0,0.0,0.0,0.0,0.0,0.0,0.0,0.0,0.0,0.0,0.0,0.0,0.0,0.0,0.0,0.0,0.0,0.0,0.0,0.0,0.0,0.0,0.0,0.0,0.0,0.0,0.0,0.0,0.0,0.0,0.0,0.0,0.0,0.0,0.0,0.0,0.0,0.0,0.0,0.0,0.0,0.0,0.0,0.0,0.0,0.0,0.0,0.0,0.0,0.0,0.0,0.0,0.0,0.0,0.0,0.0,0.0,0.0,0.0,0.0,0.0,0.0,0.0,0.0,0.0,0.0,0.0,0.0,0.0,0.0,0.0,0.0,0.0,0.0,0.0,1.0953,1.1537,1.1447,1.0727,1.1781,1.224,0.0,0.0,0.0,0.0,0.0,0.0,0.0,0.0,0.0,0.0,0.0,0.0,0.0,0.0,0.0,0.0,0.0,0.0,0.0,0.0,0.0,0.0,0.0,0.0,0.0,0.0,0.0,0.0,0.0,0.0,0.0,0.0,0.0,0.0,0.0,0.0,0.0,0.0,0.0,0.0,0.0,0.0,0.0,0.0,0.0,0.0,0.0,0.0,0.0,0.0,0.0,0.0,0.0,0.0,0.0,0.0,0.0,0.0,0.0,0.0,0.0,0.0,0.0,0.0,0.0,0.0,0.0,0.0,0.0,0.0,0.0,0.0,0.0,0.0,0.0,0.0,0.0,0.0,0.0,0.0,0.0,0.0,0.0,0.0,0.0,0.0,0.0,0.0,0.0,0.0,0.0,0.0,0.0,0.0,0.0,0.0,0.0,0.0,0.0,0.0,0.0,0.0,0.0,0.0,0.0,0.0,0.0,0.0,0.0,0.9738,1.0686,1.0612,0.9463,1.0804,1.1131,0.0,0.0,0.0,0.0,0.0,0.0,0.0,0.0,0.0,0.0,0.0,0.0,0.0,0.0,0.0,0.0,0.0,0.0,0.0,0.0,0.0,0.0,0.0,0.0,0.0,0.0,0.0,0.0,0.0,0.0,0.0,0.0,0.0,0.0,0.0,0.0,0.0,0.0,0.0,0.0,0.0,0.0,0.0,0.0,0.0,0.0,0.0,0.0,0.0,0.0,0.0,0.0,0.0,0.0,0.0,0.0,0.0,0.0,0.0,0.0,0.0,0.0,0.0,0.0,0.0,0.0,0.0,0.0,0.0,0.0,0.0,0.0,0.0,0.0,0.0,0.0,0.0,0.0,0.0,0.0,0.0,0.0,0.0,0.0,0.0,0.0,0.0,0.0,0.0,0.0,0.0,0.0,0.0,0.0,0.0,0.0,0.0,0.0,0.0,0.0,0.0,0.0,0.0,0.0,0.0,0.0,0.0,0.0,0.0,0.7803,0.9494,1.0393,1.0338,1.0461,1.0441,0.0,0.0,0.0,0.0,0.0,0.0,0.0,0.0,0.0,0.0,0.0,0.0,0.0,0.0,0.0,0.0,0.0,0.0,0.0,0.0,0.0,0.0,0.0,0.0,0.0,0.0,0.0,0.0,0.0,0.0,0.0,0.0,0.0,0.0,0.0,0.0,0.0,0.0,0.0,0.0,0.0,0.0,0.0,0.0,0.0,0.0,0.0,0.0,0.0,0.0,0.0,0.0,0.0,0.0,0.0,0.0,0.0,0.0,0.0,0.0,0.0,0.0,0.0,0.0,0.0,0.0,0.0,0.0,0.0,0.0,0.0,0.0,0.0,0.0,0.0,0.0,0.0,0.0,0.0,0.0,0.0,0.0,0.0,0.0,0.0,0.0,0.0,0.0,0.0,0.0,0.0,0.0,0.0,0.0,0.0,0.0,0.0,0.0,0.0,0.0,0.0,0.0,0.0,0.0,0.0,0.0,0.0,0.0,0.0,0.0,0.9032,0.9065,0.8761,0.9852,1.0438,1.0315,0.0,0.0,0.0,0.0,0.0,0.0,0.0,0.0,0.0,0.0,0.0,0.0,0.0,0.0,0.0,0.0,0.0,0.0,0.0,0.0,0.0,0.0,0.0,0.0,0.0,0.0,0.0,0.0,0.0,0.0,0.0,0.0,0.0,0.0,0.0,0.0,0.0,0.0,0.0,0.0,0.0,0.0,0.0,0.0,0.0,0.0,0.0,0.0,0.0,0.0,0.0,0.0,0.0,0.0,0.0,0.0,0.0,0.0,0.0,0.0,0.0,0.0,0.0,0.0,0.0,0.0,0.0,0.0,0.0,0.0,0.0,0.0,0.0,0.0,0.0,0.0,0.0,0.0,0.0,0.0,0.0,0.0,0.0,0.0,0.0,0.0,0.0,0.0,0.0,0.0,0.0,0.0,0.0,0.0,0.0,0.0,0.0,0.0,0.0,0.0,0.0,0.0,0.0,0.0,0.0,0.0,0.0,0.0,0.0,0.0,0.8881,0.8778,0.9796,1.0108,0.0,0.0,0.0,0.0,0.0,0.0,0.0,0.0,0.0,0.0,0.0,0.0,0.0,0.0,0.0,0.0,0.0,0.0,0.0,0.0,0.0,0.0,0.0,0.0,0.0,0.0,0.0,0.0,0.0,0.0,0.0,0.0,0.0,0.0,0.0,0.0,0.0,0.0,0.0,0.0,0.0,0.0,0.0,0.0,0.0,0.0,0.0,0.0,0.0,0.0,0.0,0.0,0.0,0.0,0.0,0.0,0.0,0.0,0.0,0.0,0.0,0.0,0.0,0.0,0.0,0.0,0.0,0.0,0.0,0.0,0.0,0.0,0.0,0.0,0.0,0.0,0.0,0.0,0.0,0.0,0.0,0.0,0.0,0.0,0.0,0.0,0.0,0.0,0.0,0.0,0.0,0.0,0.0,0.0,0.0,0.0,0.0,0.0,0.0,0.0,0.0,0.0,0.0,0.0,0.0,0.0,0.0,0.0,0.0,0.0,0.0,0.9197,0.9636,0.9984,0.0,0.8987,0.0,0.0,0.0,0.0,0.0,0.0,0.0,0.0,0.0,0.0,0.0,0.0,0.0,0.0,0.0,0.0,0.0,0.0,0.0,0.0,0.0,0.0,0.0,0.0,0.0,0.0,0.0,0.0,0.0,0.0,0.0,0.0,0.0,0.0,0.0,0.0,0.0,0.0,0.0,0.0,0.0,0.0,0.0,0.0,0.0,0.0,0.0,0.0,0.0,0.0,0.0,0.0,0.0,0.0,0.0,0.0,0.0,0.0,0.0,0.0,0.0,0.0,0.0,0.0,0.0,0.0,0.0,0.0,0.0,0.0,0.0,0.0,0.0,0.0,0.0,0.0,0.0,0.0,0.0,0.0,0.0,0.0,0.0,0.0,0.0,0.0,0.0,0.0,0.0,0.0,0.0,0.0,0.0,0.0,0.0,0.0,0.0,0.0,0.0,0.0,0.0,0.0,0.0,0.0,0.0,0.0,0.0,0.0,0.0,0.0,0.0,0.0,0.9726,1.0901,1.0668,0.0,0.0,0.0,0.0,0.0,0.0,0.0,0.0,0.0,0.0,0.0,0.0,0.0,0.0,0.0,0.0,0.0,0.0,0.0,0.0,0.0,0.0,0.0,0.0,0.0,0.0,0.0,0.0,0.0,0.0,0.0,0.0,0.0,0.0,0.0,0.0,0.0,0.0,0.0,0.0,0.0,0.0,0.0,0.0,0.0,0.0,0.0,0.0,0.0,0.0,0.0,0.0,0.0,0.0,0.0,0.0,0.0,0.0,0.0,0.0,0.0,0.0,0.0,0.0,0.0,0.0,0.0,0.0,0.0,0.0,0.0,0.0,0.0,0.0,0.0,0.0,0.0,0.0,0.0,0.0,0.0,0.0,0.0,0.0,0.0,0.0,0.0,0.0,0.0,0.0,0.0,0.0,0.0,0.0,0.0,0.0,0.0,0.0,0.0,0.0,0.0,0.0,0.0,0.0,0.0,0.0,0.0,0.0,0.0,0.0,0.7323,0.752,0.9215,0.9519,0.8324,0.0,0.0,0.0,0.0,0.0,0.0,0.0,0.0,0.0,0.0,0.0,0.0,0.0,0.0,0.0,0.0,0.0,0.0,0.0,0.0,0.0,0.0,0.0,0.0,0.0,0.0,0.0,0.0,0.0,0.0,0.0,0.0,0.0,0.0,0.0,0.0,0.0,0.0,0.0,0.0,0.0,0.0,0.0,0.0,0.0,0.0,0.0,0.0,0.0,0.0,0.0,0.0,0.0,0.0,0.0,0.0,0.0,0.0,0.0,0.0,0.0,0.0,0.0,0.0,0.0,0.0,0.0,0.0,0.0,0.0,0.0,0.0,0.0,0.0,0.0,0.0,0.0,0.0,0.0,0.0,0.0,0.0,0.0,0.0,0.0,0.0,0.0,0.0,0.0,0.0,0.0,0.0,0.0,0.0,0.0,0.0,0.0,0.0,0.0,0.0,0.0,0.0,0.0,0.0,0.0,0.0,0.0,0.0,0.0,0.0,0.7045,0.0,0.0,0.0,0.5331,0.0,0.0,0.0,0.0,0.0,0.0,0.0,0.0,0.0,0.0,0.0,0.0,0.0,0.0,0.0,0.0,0.0,0.0,0.0,0.0,0.0,0.0,0.0,0.0,0.0,0.0,0.0,0.0,0.0,0.0,0.0,0.0,0.0,0.0,0.0,0.0,0.0,0.0,0.0,0.0,0.0,0.0,0.0,0.0,0.0,0.0,0.0,0.0,0.0,0.0,0.0,0.0,0.0,0.0,0.0,0.0,0.0,0.0,0.0,0.0,0.0,0.0,0.0,0.0,0.0,0.0,0.0,0.0,0.0,0.0,0.0,0.0,0.0,0.0,0.0,0.0,0.0,0.0,0.0,0.0,0.0,0.0,0.0,0.0,0.0,0.0,0.0,0.0,0.0,0.0,0.0,0.0,0.0,0.0,0.0,0.0,0.0,0.0,0.0,0.0,0.0,0.0,0.0,0.0,0.0,0.0,0.0,0.0,0.0,0.0,0.0,0.0,0.0,0.0,0.0,0.0,0.0,0.0,0.0,0.0,0.0,0.0,0.0,0.0,0.0,0.0,0.0,0.0,0.0,0.0,0.0,0.0,0.0,0.0,0.0,0.0,0.0,0.0,0.0,0.0,0.0,0.0,0.0,0.0,0.0,0.0,0.0,0.0,0.0,0.0,0.0,0.0,0.0,0.0,0.0,0.0,0.0,0.0,0.0,0.0,0.0,0.0,0.0,0.0,0.0,0.0,0.0,0.0,0.0,0.0,0.0,0.0,0.0,0.0,0.0,0.0,0.0,0.0,0.0,0.0,0.0,0.0,0.0,0.0,0.0,0.0,0.0,0.0,0.0,0.0,0.0,0.0,0.0,0.0,0.0,0.0,0.0,0.0,0.0,0.0,0.0,0.0,0.0,0.0,0.0,0.0,0.0,0.0,0.0,0.0,0.0,0.0,0.0,0.0,0.0,0.0,0.0,0.0,0.0,0.0,0.0,0.0,0.0,0.0,0.0,0.0,0.0,0.0,0.0,0.0,0.0,0.0,0.0,0.0,0.0,0.0,0.0,0.0,0.0,0.0,0.0,0.0,0.0,0.0,0.0,0.0,0.0,0.0,0.0,0.0,0.0,0.0,0.0,0.0,0.0,0.0,0.0,0.0,0.0,0.0,0.0,0.0,0.0,0.0,0.0,0.0,0.0,0.0,0.0,0.0,0.0,0.0,0.0,0.0,0.0,0.0,0.0,0.0,0.0,0.0,0.0,0.0,0.0,0.0,0.0,0.0,0.0,0.0,0.0,0.0,0.0,0.0,0.0,0.0,0.0,0.0,0.0,0.0,0.0,0.0,0.0,0.0,0.0,0.0,0.0,0.0,0.0,0.0,0.0,0.0,0.0,0.0,0.0,0.0,0.0,0.0,0.0,0.0,0.0,0.0,0.0,0.0,0.0,0.0,0.0,0.0,0.0,0.0,0.0,0.0,0.0,0.0,0.0,0.0,0.0,0.0,0.0,0.0,0.0,0.0,0.0,0.0,0.0,0.0,0.0,0.0,0.0,0.0,0.0,0.0,0.0,0.0,0.0,0.0,0.0,0.0,0.0,0.0,0.0,0.0,0.0,0.0,0.0,0.0,0.0,0.0,0.0,0.0,0.0,0.0,0.0,0.0,0.0,0.0,0.0,0.0,0.0,0.0,0.0,0.0,0.0,0.0,0.0,0.0,0.0,0.0,0.0,0.0,0.0,0.0,0.0,0.0,0.0,0.0,0.0,0.0,0.0,0.0,0.0,0.0,0.0,0.0,0.0,0.0,0.0,0.0,0.0,0.0,0.0,0.0,0.0,0.0,0.0,0.0,0.0,0.0,0.0,0.0,0.0,0.0,0.0,0.0,0.0,0.0,0.0,0.0,0.0,0.0,0.0,0.0,0.0,0.0,0.0,0.0,0.0,0.0,0.0,0.0,0.0,0.0,0.0,0.0,0.0,0.0,0.0,0.0,0.0,0.0,0.0,0.0,0.0,0.0,0.0,0.0,0.0,0.0,0.0,0.0,0.0,0.0,0.0,0.0,0.0,0.0,0.0,0.0,0.0,0.0,0.0,0.0,0.0,0.0,0.0,0.0,0.0,0.0,0.0,0.0,0.0,0.0,0.0,0.0,0.0,0.0,0.0,0.0,0.0,0.0,0.0,0.0,0.0,0.0,0.0,0.0,0.0,0.0,0.0,0.0,0.0,0.0,0.0,0.0,0.0,0.0,0.0,0.0,0.0,0.0,0.0,0.0,0.0,0.0,0.0,0.0,0.0,0.0,0.0,0.0,0.0,0.0,0.0,0.0,0.0,0.0,0.0,0.0,0.0,0.0,0.0,0.0,0.0,0.0,0.0,0.0,0.0,0.0,0.0,0.0,0.0,0.0,0.0,0.0,0.0,0.0,0.0,0.0,0.0,0.0,0.0,0.0,0.0,0.0,0.0,0.0,0.0,0.0,0.0,0.0,0.0,0.0,0.0,0.0,0.0,0.0,0.0,0.0,0.0,0.0,0.0,0.0,0.0,0.0,0.0,0.0,0.0,0.0,0.0,0.0,0.0,0.0,0.0,0.0,0.0,0.0,0.0,0.0,0.0,0.0,0.0,0.0,0.0,0.0,0.0,0.0,0.0,0.0,0.0,0.0,0.0,0.0,0.0,0.0,0.0,0.0,0.0,0.0,0.0,0.0,0.0,0.0,0.0,0.0,0.0,0.0,0.0,0.0,0.0,0.0,0.0,0.0,0.0,0.0,0.0,0.0,0.0,0.0,0.0,0.0,0.0,0.0,0.0,0.0,0.0,0.0,0.0,0.0,0.0,0.0,0.0,0.0,0.0,0.0,0.0,0.0,0.0,0.0,0.0,0.0,0.0,0.0,0.0,0.0,0.0,0.0,0.0,0.0,0.0,0.0,0.0,0.0,0.0,0.0,0.0,0.0,0.0,0.0,0.0,0.0,0.0,0.0,0.0,0.0,0.0,0.0,0.0,0.0,0.0,0.0,0.0,0.0,0.0,0.0,0.0,0.0,0.0,0.0,0.0,0.0,0.0,0.0,0.0,0.0,0.0,0.0,0.0,0.0,0.0,0.0,0.0,0.0,0.0,0.0,0.0,0.0,0.0,0.0,0.0,0.0,0.0,0.0,0.0,0.0,0.0,0.0,0.0,0.0,0.0,0.0,0.0,0.0,0.0,0.0,0.0,0.0,0.0,0.0,0.0,0.0,0.0,0.0,0.0,0.0,0.0,0.0,0.0,0.0,0.0,0.0,0.0,0.0,0.0,0.0,0.0,0.0,0.0,0.0,0.0,0.0,0.0,0.0,0.0,0.0,0.0,0.0,0.0,0.0,0.0,0.0,0.0,0.0,0.0,0.0,0.0,0.0,0.0,0.0,0.0,0.0,0.0,0.0,0.0,0.0,0.0,0.0,0.0,0.0,0.0,0.0,0.0,0.0,0.0,0.0,0.0,0.0,0.0,0.0,0.0,0.0,0.0,0.0,0.0,0.0,0.0,0.0,0.0,0.0,0.0,0.0,0.0,0.0,0.0,0.0,0.0,0.0,0.0,0.0,0.0,0.0,0.0,0.0,0.0,0.0,0.0,0.0,0.0,0.0,0.0,0.0,0.0,0.0,0.0,0.0,0.0,0.0,0.0,0.0,0.0,0.0,0.0,0.0,0.0,0.0,0.0,0.0,0.0,0.0,0.0,0.0,0.0,0.0,0.0,0.0,0.0,0.0,0.0,0.0,0.0,0.0,0.0,0.0,0.0,0.0,0.0,0.0,0.0,0.0,0.0,0.0,0.0,0.0,0.0,0.0,0.0,0.0,0.0,0.0,0.0,0.0,0.0,0.0,0.0,0.0,0.0,0.0,0.0,0.0,0.0,0.0,0.0,0.0,0.0,0.0,0.0,0.0,0.0,0.0,0.0,0.0,0.0,0.0,0.0,0.0,0.0,0.0,0.0,0.0,0.0,0.0,0.0,0.0,0.0,0.0,0.0,0.0,0.0,0.0,0.0,0.0,0.0,0.0,0.0,0.0,0.0,0.0,0.0,0.0,0.0,0.0,0.0,0.0,0.0,0.0,0.0,0.0,0.0,0.0,0.0,0.0,0.0,0.0,0.0,0.0,0.0,0.0,0.0,0.0,0.0,0.0,0.0,0.0,0.0,0.0,0.0,0.0,0.0,0.0,0.0,0.0,0.0,0.0,0.0,0.0,0.0,0.0,0.0,0.0,0.0,0.0,0.0,0.0,0.0,0.0,0.0,0.0,0.0,0.0,0.0,0.0,0.0,0.0,0.0,0.0,0.0,0.0,0.0,0.0,0.0,0.0,0.0,0.0,0.0,0.0,0.0,0.0,0.0,0.0,0.0,0.0]}],[{"header":{"parameterUnit":"kt","parameterCategory":2,"dx":1,"dy":1,"la1":29.587661999999998,"la2":31.0,"lo1":-88.76705300000003,"lo2":-86.6583820000003,"nx":115,"ny":88,"refTime":"2022-10-31T00:00:00:Z","depth":0,"parameterNumber":2,"parameterNumberName":"V-component_of_WINDS"},"data":[-5.3772,-5.4842,-5.6244,-5.6687,-5.6564,-5.6317,-5.6193,-5.5909,-5.5084,-5.4351,-5.3913,-5.2735,-5.2281,-5.2822,-5.3501,-5.308,-5.2622,-5.3398,-5.4256,-5.4922,-5.4781,-5.5197,-5.5447,-5.5669,-5.7189,-5.8474,-5.9327,-5.9278,-6.0293,-5.9558,-5.9083,-6.0077,-6.1059,-6.1967,-6.3679,-6.4864,-6.5992,-6.6472,-6.6754,-6.6726,-6.6839,-6.6867,-6.6895,-6.6895,-6.6867,-6.6105,-6.5315,-6.4864,-6.3989,-6.3135,-6.2107,-6.1113,-6.063,-6.097,-6.2071,-6.5063,-6.9344,-7.4343,-7.8128,-7.8713,-7.9026,-7.8873,-7.9275,-7.9677,-8.035,-8.0841,-8.0841,-8.0841,-8.0841,-8.0841,-8.0841,-8.0841,-8.0841,-8.0969,-8.1189,-8.1533,-8.1845,-8.1718,-8.1677,-8.2746,-8.383,-8.5061,-8.7307,-8.7614,-8.7153,-8.6876,-8.6386,-8.7429,-8.8121,-8.8643,-8.9042,-8.9042,-8.9042,-8.9042,-8.9042,-8.9042,-8.9042,-8.9042,-8.9042,-8.8901,-8.8759,-8.8331,-8.8188,-8.8188,-8.7869,-8.7404,-8.7082,-8.6788,-8.6608,-8.6401,-8.6315,-8.5927,-8.5114,-8.4071,-8.285,-5.2809,-5.4369,-5.6522,-5.7055,-5.6687,-5.681,-5.681,-5.6414,-5.5882,-5.527,-5.4512,-5.5152,-5.4738,-5.3966,-5.3152,-5.2315,-5.2281,-5.361,-5.3177,-5.3509,-5.4783,-5.5675,-5.6178,-5.6683,-5.7922,-5.9235,-6.0681,-6.1234,-6.1292,-6.0534,-6.059,-6.2061,-6.2568,-6.285,-6.5456,-6.6613,-6.6557,-6.6811,-6.6895,-6.6895,-6.6895,-6.6895,-6.6895,-6.6895,-6.6782,-6.6218,-6.509,-6.4046,-6.2776,-6.1768,-6.0728,-6.0076,-5.994,-6.0486,-6.1085,-6.2211,-6.6502,-7.2856,-7.7328,-7.7141,-7.7545,-7.8071,-7.8658,-7.9429,-8.0473,-8.0841,-8.0841,-8.0841,-8.0841,-8.0841,-8.0841,-8.0841,-8.0841,-8.0872,-8.1313,-8.1753,-8.1969,-8.2124,-8.2545,-8.3084,-8.3277,-8.3107,-8.4363,-8.538,-8.5257,-8.5214,-8.5452,-8.6458,-8.7276,-8.7799,-8.8523,-8.8738,-8.8708,-8.8906,-8.9042,-8.9042,-8.9183,-8.9183,-8.9073,-8.9042,-8.8901,-8.8759,-8.8617,-8.8474,-8.8188,-8.7694,-8.7404,-8.7228,-8.6965,-8.6758,-8.6523,-8.6225,-8.5295,-8.4225,-8.3008,-5.3115,-5.5112,-5.6832,-5.7421,-5.7178,-5.7055,-5.7055,-5.681,-5.644,-5.6242,-5.6244,-5.6956,-5.6735,-5.5217,-5.5702,-5.5208,-5.3809,-5.441,-5.4178,-5.4685,-5.6136,-5.6504,-5.7208,-5.7942,-5.8875,-5.9616,-6.1234,-6.2365,-6.2399,-6.1789,-6.2071,-6.3735,-6.3961,-6.4525,-6.6303,-6.6839,-6.6839,-6.6895,-6.6895,-6.6895,-6.6895,-6.6895,-6.6895,-6.6895,-6.6557,-6.5626,-6.4638,-6.3566,-6.2071,-6.0575,-5.987,-5.9592,-5.9793,-6.0594,-6.0534,-6.1651,-6.4869,-7.0222,-7.2933,-7.4111,-7.4501,-7.5571,-7.6494,-7.849,-7.9654,-8.0584,-8.0584,-8.0713,-8.0713,-8.0841,-8.0841,-8.0841,-8.0841,-8.0841,-8.1123,-8.1343,-8.1498,-8.1621,-8.1923,-8.2377,-8.2323,-8.2083,-8.2649,-8.3669,-8.4022,-8.3872,-8.4356,-8.5205,-8.6285,-8.7057,-8.7873,-8.8243,-8.8288,-8.8504,-8.8939,-8.9248,-8.9231,-8.9183,-8.9214,-8.9183,-8.9042,-8.9042,-8.9042,-8.8759,-8.8474,-8.8157,-8.7869,-8.7725,-8.7434,-8.7112,-8.6818,-8.6374,-8.5446,-8.435,-8.3392,-5.3504,-5.5556,-5.6761,-5.7417,-5.7515,-5.73,-5.73,-5.7421,-5.7055,-5.7313,-5.7993,-5.8523,-5.8095,-5.6718,-5.7137,-5.6494,-5.5114,-5.4977,-5.5885,-5.6013,-5.6648,-5.6938,-5.7837,-5.8066,-5.9369,-6.0056,-6.0907,-6.2023,-6.2962,-6.3244,-6.3707,-6.4864,-6.4892,-6.5287,-6.6811,-6.6895,-6.6895,-6.6895,-6.6895,-6.6895,-6.6895,-6.6895,-6.6895,-6.6895,-6.6754,-6.5767,-6.4554,-6.3481,-6.1845,-6.0237,-5.9729,-5.9592,-5.9592,-6.0604,-6.1083,-6.1882,-6.5233,-6.8084,-7.0179,-7.1321,-7.2512,-7.3725,-7.5408,-7.7206,-7.8583,-7.967,-8.0326,-8.0455,-8.0455,-8.0584,-8.0713,-8.0841,-8.0841,-8.0841,-8.0872,-8.0872,-8.0872,-8.0903,-8.0903,-8.0995,-8.0964,-8.1159,-8.1413,-8.2039,-8.2603,-8.3195,-8.3623,-8.4294,-8.544,-8.5913,-8.6604,-8.6853,-8.711,-8.8199,-8.8995,-8.9323,-8.9449,-8.9464,-8.948,-8.9231,-8.9042,-8.9183,-8.9324,-8.9042,-8.8759,-8.8474,-8.8157,-8.8044,-8.79,-8.758,-8.7112,-8.6788,-8.5867,-8.4849,-8.3964,-5.3399,-5.4662,-5.5822,-5.6916,-5.774,-5.7636,-5.7812,-5.8293,-5.7998,-5.8333,-5.9114,-5.9485,-5.9056,-5.8006,-5.779,-5.6994,-5.6081,-5.5503,-5.5663,-5.5085,-5.687,-5.7163,-5.7621,-5.7795,-5.9457,-6.0888,-6.1709,-6.1777,-6.3414,-6.4103,-6.4286,-6.5104,-6.533,-6.5767,-6.6754,-6.6867,-6.6895,-6.698,-6.7036,-6.7036,-6.7008,-6.6895,-6.6895,-6.6895,-6.6698,-6.6246,-6.492,-6.3735,-6.2579,-6.1253,-6.0293,-5.9673,-5.9729,-6.035,-6.2945,-6.4722,-6.5288,-6.7273,-6.8666,-6.9258,-7.0884,-7.3006,-7.4981,-7.6708,-7.8252,-7.9318,-7.9935,-8.0196,-7.9804,-7.9804,-8.0584,-8.0841,-8.0841,-8.0841,-8.0841,-8.0841,-8.0841,-8.0841,-8.0841,-8.1,-8.1128,-8.1351,-8.1572,-8.2104,-8.2819,-8.2914,-8.332,-8.4035,-8.4595,-8.4568,-8.4689,-8.4907,-8.5966,-8.7531,-8.824,-8.8665,-8.9244,-8.974,-8.9816,-8.9571,-8.9371,-8.9433,-8.9573,-8.9152,-8.8759,-8.8617,-8.8413,-8.8331,-8.8044,-8.7869,-8.7549,-8.7228,-8.6371,-8.5244,-8.4107,-5.4587,-5.5832,-5.6876,-5.7502,-5.7795,-5.7636,-5.8118,-5.8831,-5.8685,-5.9142,-6.0158,-6.0308,-5.9815,-5.9149,-5.9077,-5.8284,-5.7107,-5.6987,-5.7299,-5.7883,-5.8908,-5.8375,-5.8455,-5.9166,-5.9675,-5.9892,-6.0487,-6.1696,-6.2895,-6.396,-6.5271,-6.6021,-6.619,-6.6529,-6.6782,-6.698,-6.6952,-6.7206,-6.7431,-6.7431,-6.7206,-6.6895,-6.6895,-6.6895,-6.6895,-6.6162,-6.5033,-6.382,-6.3086,-6.2409,-6.1196,-6.0886,-6.1676,-6.1789,-6.382,-6.571,-6.6049,-6.6979,-6.7778,-6.7908,-6.966,-7.1659,-7.3399,-7.5634,-7.74,-7.8742,-7.9276,-7.9804,-7.9276,-7.9143,-8.0066,-8.0841,-8.0841,-8.0841,-8.0841,-8.0841,-8.0841,-8.0841,-8.1,-8.1128,-8.1382,-8.1603,-8.1979,-8.2506,-8.2846,-8.2757,-8.3102,-8.3571,-8.3634,-8.354,-8.3728,-8.3946,-8.548,-8.6763,-8.7107,-8.7608,-8.8022,-8.8541,-8.8894,-8.9423,-8.9757,-8.9619,-8.9093,-8.8906,-8.8686,-8.8748,-8.8453,-8.8434,-8.7905,-8.8331,-8.8157,-8.6899,-8.5797,-8.4786,-8.335,-5.5451,-5.6255,-5.7692,-5.821,-5.8062,-5.7493,-5.7961,-5.9067,-5.9067,-5.9689,-6.1055,-6.0657,-6.0503,-6.0527,-6.0719,-5.9946,-5.9792,-5.9992,-6.0364,-6.0473,-6.0519,-6.0291,-5.9951,-5.9499,-5.9292,-5.9442,-6.0201,-6.1599,-6.3002,-6.4317,-6.5583,-6.6267,-6.6238,-6.6595,-6.6848,-6.713,-6.7299,-6.758,-6.825,-6.8108,-6.7713,-6.7121,-6.6895,-6.6895,-6.6895,-6.6585,-6.5654,-6.4525,-6.3961,-6.3538,-6.2494,-6.2832,-6.3961,-6.4356,-6.4638,-6.6726,-6.6895,-6.6895,-6.698,-6.7657,-6.9162,-7.128,-7.2886,-7.5007,-7.6695,-7.793,-7.8443,-7.898,-7.901,-7.9276,-8.0066,-8.0584,-8.0841,-8.0841,-8.0841,-8.0841,-8.0841,-8.0841,-8.1,-8.1255,-8.1413,-8.1634,-8.1823,-8.2351,-8.2751,-8.2629,-8.2569,-8.2817,-8.288,-8.2943,-8.3162,-8.3759,-8.4888,-8.5861,-8.6269,-8.674,-8.7039,-8.7336,-8.7812,-8.8146,-8.8021,-8.7996,-8.8445,-8.8184,-8.7261,-8.7306,-8.8029,-8.749,-8.6708,-8.7211,-8.7132,-8.6002,-8.4919,-8.3674,-8.2308,-5.5311,-5.5591,-5.7798,-5.8657,-5.8281,-5.7393,-5.7532,-5.8504,-5.8831,-5.993,-6.1457,-6.0245,-6.0759,-6.2,-6.1113,-6.1098,-6.1906,-6.1495,-6.2015,-6.2453,-6.2076,-6.0847,-6.0236,-5.9755,-5.9798,-6.0116,-6.0873,-6.2156,-6.3444,-6.4508,-6.4716,-6.4977,-6.6003,-6.6584,-6.7117,-6.7622,-6.7991,-6.793,-6.8318,-6.8228,-6.7855,-6.7319,-6.698,-6.6895,-6.6895,-6.6726,-6.6275,-6.5485,-6.5005,-6.4666,-6.3961,-6.492,-6.5795,-6.6698,-6.6754,-6.6895,-6.6895,-6.6895,-6.7196,-6.8423,-7.0047,-7.1862,-7.3428,-7.4858,-7.6315,-7.7025,-7.7794,-7.8308,-7.8473,-7.9143,-7.9935,-8.0326,-8.0841,-8.0713,-8.0713,-8.0841,-8.0841,-8.1,-8.1128,-8.1255,-8.1539,-8.1791,-8.1979,-8.2228,-8.2751,-8.2629,-8.2629,-8.2751,-8.2905,-8.2905,-8.3094,-8.366,-8.4164,-8.5077,-8.5706,-8.6083,-8.6391,-8.6128,-8.6502,-8.644,-8.5789,-8.5545,-8.6427,-8.6722,-8.5787,-8.5633,-8.6186,-8.6063,-8.5602,-8.5068,-8.5024,-8.4032,-8.3512,-8.2427,-8.1663,-5.5162,-5.4632,-5.6823,-5.7746,-5.7714,-5.8282,-5.8735,-5.9128,-5.9269,-6.059,-6.1945,-6.1236,-6.1535,-6.2282,-6.2198,-6.2363,-6.2441,-6.2514,-6.3319,-6.463,-6.3873,-6.2727,-6.2042,-6.1906,-6.1038,-6.1011,-6.1851,-6.259,-6.3269,-6.4249,-6.4791,-6.5035,-6.5667,-6.6408,-6.7275,-6.7971,-6.8416,-6.8136,-6.8103,-6.8177,-6.7475,-6.7102,-6.6895,-6.6895,-6.6895,-6.6895,-6.6557,-6.6021,-6.5372,-6.5936,-6.5964,-6.6134,-6.6472,-6.6867,-6.6867,-6.6895,-6.6895,-6.7027,-6.7469,-6.8773,-7.1002,-7.3018,-7.4882,-7.5948,-7.6407,-7.6635,-7.7273,-7.7686,-7.7549,-7.8368,-7.9439,-8.0455,-8.0584,-8.0326,-8.0455,-8.0841,-8.0841,-8.0841,-8.1,-8.1477,-8.1729,-8.201,-8.2228,-8.2506,-8.272,-8.2629,-8.2629,-8.2905,-8.3148,-8.3027,-8.2877,-8.3157,-8.3503,-8.3881,-8.4384,-8.5108,-8.5171,-8.4977,-8.4724,-8.4568,-8.412,-8.4002,-8.4887,-8.5461,-8.4865,-8.4589,-8.4742,-8.4834,-8.4804,-8.4301,-8.3504,-8.2737,-8.2154,-8.1374,-8.0706,-5.5714,-5.5299,-5.7133,-5.7609,-5.747,-5.8373,-5.9052,-5.9507,-5.9616,-6.0738,-6.2304,-6.1723,-6.1882,-6.2854,-6.298,-6.2519,-6.2573,-6.3261,-6.3906,-6.5223,-6.5155,-6.4469,-6.3649,-6.2858,-6.2344,-6.196,-6.248,-6.3082,-6.3059,-6.3869,-6.469,-6.4913,-6.5044,-6.5953,-6.7003,-6.8077,-6.8545,-6.8249,-6.7887,-6.7687,-6.7067,-6.6724,-6.6736,-6.6895,-6.6895,-6.6895,-6.6811,-6.6331,-6.6134,-6.6585,-6.667,-6.6698,-6.6839,-6.6895,-6.6895,-6.6895,-6.6895,-6.7027,-6.7657,-6.9952,-7.2211,-7.3898,-7.5565,-7.6349,-7.6635,-7.6635,-7.7054,-7.744,-7.7025,-7.7686,-7.8473,-7.9511,-8.0196,-7.9804,-8.0196,-8.0455,-8.0841,-8.0841,-8.1128,-8.1477,-8.1854,-8.201,-8.2383,-8.2751,-8.272,-8.272,-8.3027,-8.3301,-8.3269,-8.2995,-8.2751,-8.2751,-8.2751,-8.2751,-8.2846,-8.3629,-8.379,-8.3602,-8.3351,-8.3038,-8.2971,-8.2767,-8.3315,-8.3492,-8.3483,-8.3575,-8.3114,-8.2869,-8.3421,-8.3483,-8.2408,-8.1517,-8.1326,-8.1006,-8.036,-5.6979,-5.7669,-5.8741,-5.8629,-5.7697,-5.7641,-5.8375,-5.9362,-5.9475,-6.071,-6.2489,-6.2174,-6.2669,-6.3639,-6.3316,-6.281,-6.27,-6.3385,-6.4307,-6.4465,-6.4952,-6.4819,-6.4189,-6.3726,-6.3187,-6.2042,-6.2831,-6.3626,-6.3329,-6.4006,-6.4284,-6.4558,-6.4476,-6.4833,-6.5937,-6.7389,-6.8392,-6.8683,-6.7944,-6.7721,-6.7408,-6.6759,-6.6556,-6.6764,-6.6764,-6.6895,-6.6895,-6.6585,-6.6613,-6.6867,-6.6895,-6.6895,-6.6895,-6.6895,-6.6895,-6.6895,-6.6895,-6.6895,-6.7309,-7.1547,-7.3646,-7.4927,-7.5966,-7.6606,-7.6635,-7.6635,-7.6775,-7.7054,-7.6746,-7.7134,-7.749,-7.8143,-7.8846,-7.9276,-7.9804,-8.0196,-8.0584,-8.0713,-8.1128,-8.1508,-8.176,-8.201,-8.2506,-8.2751,-8.272,-8.2873,-8.3301,-8.3421,-8.3269,-8.2995,-8.2751,-8.2751,-8.2751,-8.2751,-8.2751,-8.2751,-8.2629,-8.2135,-8.201,-8.1944,-8.1876,-8.1836,-8.1554,-8.1149,-8.1548,-8.2193,-8.164,-8.1056,-8.1609,-8.2101,-8.1056,-8.0841,-8.0841,-8.0774,-8.0578,-5.7483,-5.6979,-5.7839,-5.8403,-5.8854,-5.8883,-5.9108,-5.9535,-5.9563,-6.071,-6.3075,-6.3764,-6.4017,-6.3526,-6.3284,-6.2737,-6.1911,-6.2096,-6.3162,-6.4016,-6.4596,-6.4862,-6.4902,-6.4768,-6.4249,-6.4336,-6.4717,-6.4717,-6.4528,-6.4772,-6.4696,-6.467,-6.4534,-6.4997,-6.6019,-6.7191,-6.8014,-6.82,-6.7719,-6.7086,-6.6337,-6.6135,-6.6339,-6.6472,-6.6764,-6.6764,-6.6895,-6.6895,-6.6895,-6.6895,-6.6895,-6.6895,-6.6895,-6.6895,-6.6895,-6.6895,-6.6895,-6.7157,-6.846,-7.1395,-7.4286,-7.5594,-7.6489,-7.6547,-7.6635,-7.6635,-7.6635,-7.6635,-7.6635,-7.6606,-7.6885,-7.749,-7.8173,-7.8638,-7.9173,-7.9834,-8.0196,-8.0713,-8.1128,-8.1382,-8.1665,-8.1916,-8.229,-8.2414,-8.2259,-8.201,-8.2629,-8.3117,-8.3117,-8.2873,-8.2751,-8.2751,-8.2751,-8.2751,-8.2751,-8.2751,-8.2629,-8.2228,-8.1854,-8.1477,-8.1224,-8.1062,-8.0934,-8.0841,-8.0841,-8.0841,-8.0872,-8.0934,-8.0903,-8.0841,-8.0841,-8.0841,-8.0841,-8.0841,-8.0584,-5.872,-5.808,-5.8713,-5.9286,-5.9767,-5.9767,-5.9651,-5.9563,-5.9563,-6.0604,-6.255,-6.4159,-6.4356,-6.351,-6.3143,-6.2296,-6.0773,-6.0758,-6.2033,-6.3063,-6.3863,-6.4289,-6.4751,-6.4924,-6.5178,-6.5158,-6.5403,-6.5486,-6.5323,-6.5186,-6.5025,-6.4889,-6.4698,-6.5404,-6.6431,-6.7544,-6.8486,-6.8611,-6.7767,-6.6754,-6.5957,-6.6088,-6.6073,-6.6206,-6.6604,-6.6764,-6.6895,-6.6895,-6.6895,-6.6895,-6.6895,-6.6895,-6.6895,-6.6895,-6.6895,-6.6895,-6.6895,-6.7027,-6.8044,-7.1046,-7.4039,-7.5695,-7.6494,-7.6635,-7.6635,-7.6635,-7.6635,-7.6635,-7.6635,-7.6635,-7.6635,-7.7134,-7.7657,-7.799,-7.8668,-7.9439,-7.9965,-8.0615,-8.1,-8.1128,-8.1382,-8.1665,-8.1916,-8.2072,-8.1665,-8.1382,-8.2228,-8.2964,-8.2873,-8.2629,-8.2629,-8.2751,-8.2751,-8.2751,-8.2751,-8.2751,-8.2597,-8.2228,-8.1885,-8.1477,-8.0969,-8.0841,-8.0841,-8.0841,-8.0841,-8.0841,-8.0841,-8.0841,-8.0841,-8.0841,-8.0841,-8.0841,-8.0841,-8.0841,-8.0713,-6.0393,-6.0429,-6.105,-6.0825,-6.02,-6.0315,-5.997,-5.9563,-5.9563,-6.018,-6.1704,-6.3594,-6.413,-6.3425,-6.3002,-6.1873,-5.956,-6.0632,-6.1253,-6.1817,-6.2399,-6.3344,-6.4122,-6.4549,-6.4855,-6.5427,-6.5593,-6.5621,-6.5458,-6.5323,-6.5052,-6.4752,-6.4752,-6.5866,-6.6757,-6.7606,-6.874,-6.8876,-6.8221,-6.7242,-6.6672,-6.6177,-6.5894,-6.6185,-6.6339,-6.6472,-6.6764,-6.6895,-6.6895,-6.6895,-6.6895,-6.6895,-6.6895,-6.6895,-6.6895,-6.6895,-6.6895,-6.7601,-6.8942,-7.1712,-7.3844,-7.5127,-7.6013,-7.6494,-7.6635,-7.6635,-7.6635,-7.6635,-7.6635,-7.6635,-7.6635,-7.6635,-7.7164,-7.7745,-7.8398,-7.9173,-7.9834,-8.0486,-8.0872,-8.0969,-8.1097,-8.1382,-8.1539,-8.1634,-8.1351,-8.1255,-8.1979,-8.2104,-8.2104,-8.2228,-8.2383,-8.2629,-8.2751,-8.2751,-8.2751,-8.2751,-8.2506,-8.2259,-8.201,-8.1477,-8.0969,-8.0841,-8.0841,-8.0841,-8.0841,-8.0841,-8.0841,-8.0841,-8.0841,-8.0841,-8.0841,-8.0841,-8.0841,-8.0841,-8.0841,-6.1981,-6.1998,-6.2247,-6.1444,-6.0315,-6.0315,-5.9999,-5.9563,-5.9563,-6.0124,-6.145,-6.2861,-6.3566,-6.3256,-6.3058,-6.1845,-5.956,-5.9757,-6.0406,-6.1055,-6.1695,-6.2588,-6.3676,-6.4474,-6.493,-6.5728,-6.5889,-6.5728,-6.5593,-6.5188,-6.4916,-6.4752,-6.4752,-6.5134,-6.5978,-6.7402,-6.8549,-6.9268,-6.904,-6.8221,-6.7023,-6.6699,-6.6149,-6.5977,-6.594,-6.6339,-6.6472,-6.6632,-6.6895,-6.6895,-6.6895,-6.6895,-6.6895,-6.6895,-6.6895,-6.6924,-6.7262,-6.8391,-7.0928,-7.2284,-7.3589,-7.47,-7.5615,-7.6183,-7.6494,-7.6635,-7.6635,-7.6635,-7.6635,-7.6635,-7.6635,-7.6635,-7.7054,-7.7716,-7.8368,-7.904,-7.9834,-8.0486,-8.0841,-8.0969,-8.0969,-8.1128,-8.1255,-8.1224,-8.1224,-8.1128,-8.1097,-8.1224,-8.1351,-8.1729,-8.1979,-8.2537,-8.2537,-8.2414,-8.2537,-8.2629,-8.2537,-8.229,-8.201,-8.1603,-8.1097,-8.0841,-8.0841,-8.0841,-8.0841,-8.0841,-8.0841,-8.0841,-8.0841,-8.0841,-8.0841,-8.0841,-8.0841,-8.0841,-8.0841,-6.325,-6.3357,-6.325,-6.2247,-6.0883,-6.0883,-6.0315,-5.9651,-5.9563,-6.0124,-6.1365,-6.2635,-6.3538,-6.3876,-6.3369,-6.1817,-6.0011,-6.0068,-6.0688,-6.1224,-6.192,-6.2825,-6.3871,-6.4576,-6.493,-6.5612,-6.5755,-6.5889,-6.5458,-6.5052,-6.4752,-6.4752,-6.478,-6.4889,-6.5924,-6.7483,-6.8385,-6.9259,-6.9996,-6.9586,-6.7838,-6.6914,-6.6397,-6.5406,-6.5593,-6.5968,-6.6206,-6.6472,-6.6632,-6.6895,-6.6895,-6.6895,-6.6895,-6.6895,-6.6924,-6.7036,-6.7798,-6.9717,-7.2143,-7.2567,-7.3248,-7.4101,-7.4986,-7.57,-7.6183,-7.6494,-7.6635,-7.6635,-7.6635,-7.6635,-7.6635,-7.6914,-7.747,-7.8126,-7.8906,-7.9439,-7.9965,-8.0455,-8.0841,-8.0841,-8.0841,-8.0969,-8.0969,-8.0969,-8.0969,-8.0969,-8.0969,-8.0969,-8.1224,-8.1477,-8.201,-8.2414,-8.2414,-8.2321,-8.2414,-8.2506,-8.2506,-8.2135,-8.1854,-8.1477,-8.1097,-8.0841,-8.0841,-8.0841,-8.0841,-8.0841,-8.0841,-8.0841,-8.0841,-8.0841,-8.0841,-8.0841,-8.0841,-8.0841,-8.0841,-6.4156,-6.4334,-6.4051,-6.3173,-6.1807,-6.1585,-6.077,-5.9651,-5.9563,-6.0096,-6.097,-6.2522,-6.3764,-6.4187,-6.3566,-6.1901,-6.0519,-6.0463,-6.0999,-6.176,-6.2325,-6.2994,-6.4066,-6.4777,-6.5275,-6.5561,-6.5755,-6.5593,-6.5188,-6.4916,-6.4752,-6.4752,-6.4834,-6.5162,-6.5954,-6.7483,-6.8849,-6.9887,-7.1143,-7.0843,-6.9013,-6.7757,-6.664,-6.5902,-6.5626,-6.5842,-6.5995,-6.6206,-6.6696,-6.6961,-6.6933,-6.7036,-6.7262,-6.7149,-6.7008,-6.8193,-6.9124,-7.045,-7.0704,-7.1466,-7.2369,-7.3219,-7.4243,-7.5014,-7.5729,-7.6183,-7.6494,-7.6494,-7.6635,-7.6635,-7.6635,-7.7332,-7.799,-7.8638,-7.9306,-7.9703,-8.0066,-8.0744,-8.0841,-8.0841,-8.0841,-8.0841,-8.0841,-8.0841,-8.0841,-8.0841,-8.0841,-8.0969,-8.1097,-8.1603,-8.2135,-8.2383,-8.2414,-8.229,-8.2383,-8.2629,-8.2506,-8.1979,-8.1729,-8.1477,-8.1097,-8.0841,-8.0841,-8.0841,-8.0841,-8.0841,-8.0841,-8.0841,-8.0841,-8.0841,-8.0841,-8.0841,-8.0841,-8.0841,-8.0841,-6.4034,-6.4364,-6.4541,-6.3781,-6.2465,-6.1807,-6.0996,-6.0085,-5.968,-5.9616,-6.0124,-6.2071,-6.3312,-6.3481,-6.3171,-6.2409,-6.097,-6.0068,-6.1196,-6.2268,-6.2466,-6.2866,-6.4116,-6.4946,-6.535,-6.5644,-6.5728,-6.5458,-6.5052,-6.4752,-6.4752,-6.4752,-6.4752,-6.4971,-6.5572,-6.7324,-6.8112,-6.9313,-7.0651,-7.1717,-7.1034,-6.9969,-6.8412,-6.6446,-6.6617,-6.6315,-6.5953,-6.6162,-6.6899,-6.7369,-6.7496,-6.7713,-6.9068,-6.7967,-6.8814,-7.1607,-7.0563,-6.9886,-6.9858,-7.062,-7.172,-7.2624,-7.4071,-7.4726,-7.5157,-7.5729,-7.6183,-7.6494,-7.6635,-7.6635,-7.6885,-7.7411,-7.8203,-7.8742,-7.9439,-8.0096,-8.0486,-8.0744,-8.0841,-8.0841,-8.0841,-8.0841,-8.0841,-8.0841,-8.0969,-8.0969,-8.0969,-8.1097,-8.1477,-8.201,-8.2135,-8.2414,-8.2506,-8.2259,-8.2383,-8.2751,-8.2475,-8.1979,-8.1603,-8.1224,-8.0969,-8.0841,-8.0841,-8.0841,-8.0841,-8.0841,-8.0841,-8.0841,-8.0841,-8.0841,-8.0841,-8.0841,-8.0841,-8.0841,-8.0841,-6.4376,-6.4716,-6.4716,-6.4065,-6.2976,-6.2078,-6.1332,-6.0572,-5.9767,-5.9563,-6.0011,-6.1365,-6.2579,-6.3086,-6.3199,-6.2466,-6.1647,-6.1055,-6.2014,-6.3143,-6.382,-6.4608,-6.5275,-6.5834,-6.5919,-6.5695,-6.5593,-6.5323,-6.4752,-6.4752,-6.4752,-6.4752,-6.4916,-6.4916,-6.5217,-6.6777,-6.7844,-6.8704,-7.0133,-7.1225,-7.1662,-7.0651,-6.9286,-6.7866,-6.7489,-6.7524,-6.6976,-6.703,-6.7192,-6.7879,-6.7173,-6.7475,-6.7834,-6.7798,-6.8024,-6.9576,-6.9011,-6.8419,-6.935,-7.0789,-7.1692,-7.2595,-7.3783,-7.4522,-7.4868,-7.5157,-7.5586,-7.6042,-7.6154,-7.6885,-7.744,-7.8368,-7.8876,-7.9306,-7.9935,-8.0455,-8.0713,-8.0841,-8.0841,-8.0841,-8.0841,-8.0841,-8.0841,-8.0969,-8.0969,-8.1097,-8.1097,-8.1477,-8.201,-8.2135,-8.229,-8.2537,-8.2629,-8.2629,-8.2629,-8.2751,-8.2475,-8.1979,-8.1477,-8.1097,-8.0841,-8.0841,-8.0841,-8.0841,-8.0841,-8.0841,-8.0841,-8.0841,-8.0841,-8.0841,-8.0841,-8.0841,-8.0841,-8.0841,-8.0841,-6.4921,-6.5124,-6.4921,-6.4273,-6.3479,-6.2406,-6.1666,-6.0912,-5.9883,-5.9563,-5.9616,-6.0773,-6.2005,-6.2878,-6.3131,-6.2635,-6.2071,-6.2071,-6.2974,-6.4356,-6.5146,-6.6116,-6.6163,-6.6379,-6.615,-6.5593,-6.5323,-6.5188,-6.4752,-6.4752,-6.4752,-6.478,-6.5052,-6.5052,-6.5217,-6.612,-6.7434,-6.805,-6.9586,-7.0624,-7.117,-7.0788,-6.9914,-6.8822,-6.8775,-6.8672,-6.8486,-6.7744,-6.7805,-6.8415,-6.7268,-6.7173,-6.7587,-6.7637,-6.746,-6.7685,-6.7601,-6.8503,-6.9688,-7.1353,-7.2284,-7.2764,-7.361,-7.4377,-7.4724,-7.4868,-7.5157,-7.5586,-7.6183,-7.7025,-7.8232,-7.8638,-7.9173,-7.9703,-8.0096,-8.0584,-8.0841,-8.0841,-8.0841,-8.0841,-8.0841,-8.0841,-8.0969,-8.1097,-8.1224,-8.1351,-8.1603,-8.2104,-8.2259,-8.2383,-8.2414,-8.266,-8.2751,-8.2751,-8.2751,-8.2751,-8.2475,-8.1729,-8.1351,-8.0969,-8.0841,-8.0841,-8.0841,-8.0841,-8.0841,-8.0841,-8.0841,-8.0841,-8.0841,-8.0841,-8.0841,-8.0841,-8.0841,-8.0841,-8.0841,-6.5326,-6.5124,-6.5023,-6.4716,-6.3991,-6.2653,-6.1858,-6.1332,-6.0114,-5.9563,-5.9673,-6.0716,-6.1836,-6.2882,-6.3159,-6.3171,-6.272,-6.2522,-6.3594,-6.54,-6.5767,-6.6032,-6.6491,-6.6472,-6.5968,-6.5458,-6.5323,-6.5052,-6.4752,-6.4752,-6.4752,-6.478,-6.478,-6.4916,-6.5026,-6.5899,-6.6664,-6.7265,-6.9076,-7.0362,-7.0515,-7.1225,-7.1019,-7.0198,-7.0126,-6.9942,-6.9084,-6.8788,-6.9211,-7.0554,-6.9056,-6.8471,-6.886,-6.8968,-6.8475,-6.7121,-6.856,-6.966,-7.0817,-7.1776,-7.2623,-7.2566,-7.361,-7.4203,-7.4405,-7.4695,-7.5013,-7.53,-7.59,-7.6746,-7.6885,-7.7794,-7.8473,-7.904,-7.9571,-8.0196,-8.0713,-8.0841,-8.0872,-8.0872,-8.1,-8.1,-8.1097,-8.1351,-8.1477,-8.1729,-8.2228,-8.2597,-8.2475,-8.2506,-8.2629,-8.2751,-8.2506,-8.2351,-8.2506,-8.2475,-8.2104,-8.1603,-8.1224,-8.0969,-8.0841,-8.0841,-8.0841,-8.0841,-8.0841,-8.0841,-8.0841,-8.0841,-8.0841,-8.0841,-8.0841,-8.0841,-8.0841,-8.0841,-8.0841,-6.5396,-6.5295,-6.5023,-6.4747,-6.423,-6.3083,-6.2217,-6.1444,-6.0458,-5.9767,-5.9677,-5.9983,-6.1019,-6.2152,-6.2878,-6.3199,-6.3143,-6.3199,-6.43,-6.5428,-6.619,-6.6172,-6.6604,-6.6234,-6.5995,-6.5621,-6.5188,-6.4916,-6.4752,-6.4752,-6.4752,-6.4752,-6.4916,-6.4916,-6.4944,-6.5737,-6.6205,-6.6864,-6.8655,-6.9961,-7.0393,-7.1443,-7.1799,-7.1619,-7.1481,-7.1464,-7.0427,-6.9934,-7.008,-7.0426,-7.0106,-6.9832,-7.0085,-6.9726,-6.9585,-6.9664,-7.1071,-7.2143,-7.2425,-7.3102,-7.3413,-7.3497,-7.3892,-7.4203,-7.4405,-7.4405,-7.4724,-7.53,-7.6042,-7.6635,-7.6606,-7.7382,-7.8173,-7.8772,-7.9439,-8.0066,-8.0713,-8.0841,-8.0903,-8.1154,-8.1062,-8.1255,-8.1508,-8.1854,-8.1979,-8.2228,-8.2751,-8.272,-8.2597,-8.2629,-8.2751,-8.2751,-8.2351,-8.2228,-8.2383,-8.2259,-8.1885,-8.1508,-8.1255,-8.0969,-8.0841,-8.0841,-8.0841,-8.0841,-8.0841,-8.0841,-8.0841,-8.0841,-8.0841,-8.0841,-8.0841,-8.0841,-8.0841,-8.0841,-8.0841,-6.5627,-6.5496,-6.5023,-6.4716,-6.4334,-6.3403,-6.2406,-6.1696,-6.0656,-5.997,-5.9563,-5.9447,-6.0175,-6.1283,-6.2596,-6.3199,-6.3312,-6.4695,-6.5231,-6.5315,-6.6331,-6.6576,-6.6339,-6.6101,-6.5995,-6.5728,-6.5188,-6.4889,-6.4752,-6.4752,-6.4752,-6.4752,-6.4916,-6.5052,-6.4889,-6.5461,-6.587,-6.6204,-6.7888,-6.8974,-6.9728,-7.0925,-7.2125,-7.27,-7.2428,-7.2278,-7.2141,-7.1156,-7.0691,-7.0959,-7.1024,-7.1124,-7.1048,-7.0693,-7.1067,-7.2056,-7.3469,-7.4118,-7.4231,-7.4118,-7.4231,-7.4292,-7.4348,-7.4377,-7.455,-7.455,-7.484,-7.5415,-7.5871,-7.6183,-7.6465,-7.7243,-7.7794,-7.8368,-7.904,-7.9834,-8.0326,-8.0584,-8.0676,-8.1056,-8.1251,-8.1539,-8.176,-8.2104,-8.2383,-8.2751,-8.2751,-8.272,-8.2751,-8.2751,-8.2751,-8.2751,-8.2506,-8.229,-8.2414,-8.2135,-8.176,-8.1539,-8.1097,-8.0841,-8.0841,-8.0841,-8.0841,-8.0841,-8.0841,-8.0841,-8.0841,-8.0841,-8.0841,-8.0841,-8.0841,-8.0841,-8.0841,-8.0841,-8.0841,-6.5795,-6.5763,-6.5326,-6.5023,-6.4819,-6.3615,-6.2623,-6.1888,-6.0883,-5.997,-5.9535,-5.9563,-6.0062,-6.1377,-6.2315,-6.3143,-6.3256,-6.5287,-6.5654,-6.5682,-6.6246,-6.6764,-6.6339,-6.6206,-6.6129,-6.5889,-6.5458,-6.5188,-6.5052,-6.4889,-6.4752,-6.4752,-6.4752,-6.4752,-6.4616,-6.5052,-6.478,-6.4556,-6.6115,-6.7565,-6.8277,-6.9767,-7.1492,-7.2775,-7.2523,-7.221,-7.2155,-7.1895,-7.1607,-7.1689,-7.2168,-7.1881,-7.1731,-7.2302,-7.2987,-7.3658,-7.3836,-7.4033,-7.4231,-7.4174,-7.4348,-7.4579,-7.4724,-7.484,-7.5128,-7.5272,-7.5243,-7.5671,-7.4956,-7.5586,-7.6324,-7.6635,-7.7164,-7.7882,-7.8533,-7.8802,-7.904,-7.9541,-7.9935,-8.0096,-8.0934,-8.1413,-8.176,-8.1979,-8.2135,-8.2506,-8.2383,-8.2506,-8.2629,-8.266,-8.266,-8.2751,-8.266,-8.2445,-8.229,-8.2135,-8.176,-8.1444,-8.1128,-8.0969,-8.0969,-8.0841,-8.0841,-8.0841,-8.0841,-8.0841,-8.0841,-8.0841,-8.0841,-8.0841,-8.0841,-8.0841,-8.0841,-8.0841,-8.0841,-6.5894,-6.5795,-6.5295,-6.5023,-6.4819,-6.4095,-6.3006,-6.1888,-6.125,-6.0458,-5.9651,-5.9563,-5.9785,-6.0287,-6.1563,-6.2099,-6.2409,-6.4695,-6.5485,-6.5259,-6.6303,-6.6707,-6.6604,-6.6339,-6.6206,-6.6101,-6.5593,-6.5323,-6.5323,-6.4916,-6.4752,-6.4616,-6.4752,-6.4315,-6.3901,-6.4012,-6.3651,-6.2874,-6.4496,-6.6005,-6.6486,-6.8525,-7.0619,-7.2172,-7.2655,-7.2661,-7.2511,-7.2183,-7.1425,-7.0658,-7.0658,-7.0658,-7.0504,-7.0812,-7.2004,-7.4029,-7.2848,-7.2905,-7.3723,-7.3582,-7.3582,-7.4409,-7.4724,-7.4868,-7.5128,-7.5415,-7.5558,-7.5671,-7.5729,-7.59,-7.6494,-7.6635,-7.6914,-7.7608,-7.8019,-7.8156,-7.8156,-7.8772,-7.9409,-8.0066,-8.0744,-8.1255,-8.176,-8.2104,-8.2228,-8.2228,-8.2135,-8.2259,-8.2537,-8.2537,-8.2537,-8.266,-8.266,-8.2537,-8.2414,-8.2135,-8.176,-8.157,-8.1286,-8.1255,-8.1128,-8.0841,-8.0841,-8.0841,-8.0841,-8.0841,-8.0841,-8.0841,-8.0841,-8.0841,-8.0841,-8.0841,-8.0841,-8.0841,-8.0841,-6.5992,-6.5992,-6.5396,-6.5124,-6.4921,-6.4572,-6.3357,-6.1777,-6.1666,-6.077,-5.9651,-5.9563,-5.9475,-5.9588,-6.0745,-6.1281,-6.1845,-6.3594,-6.4666,-6.5174,-6.6049,-6.65,-6.6707,-6.6472,-6.6339,-6.6206,-6.5431,-6.5188,-6.5458,-6.4752,-6.4315,-6.4315,-6.4177,-6.3598,-6.2707,-6.2847,-6.23,-6.1464,-6.297,-6.427,-6.4971,-6.7129,-6.9422,-7.1337,-7.2311,-7.2748,-7.3109,-7.2361,-7.0966,-6.9571,-6.9414,-6.9257,-6.8784,-6.91,-7.0631,-7.2562,-7.1671,-7.1137,-7.273,-7.3102,-7.3441,-7.432,-7.4724,-7.484,-7.5013,-7.5586,-7.57,-7.5529,-7.6154,-7.6635,-7.6635,-7.6635,-7.6775,-7.7332,-7.747,-7.747,-7.7578,-7.8262,-7.904,-7.9541,-8.0584,-8.0969,-8.1351,-8.1603,-8.2041,-8.201,-8.1885,-8.1916,-8.2166,-8.229,-8.2537,-8.2629,-8.2629,-8.2506,-8.2383,-8.2104,-8.176,-8.1696,-8.157,-8.1539,-8.1255,-8.0969,-8.0841,-8.0841,-8.0841,-8.0841,-8.0841,-8.0841,-8.0841,-8.0841,-8.0841,-8.0841,-8.0841,-8.0841,-8.0841,-6.6286,-6.6157,-6.5695,-6.5427,-6.5326,-6.4613,-6.3433,-6.2078,-6.1777,-6.0912,-5.9767,-5.9535,-5.9563,-5.9701,-6.0547,-6.1083,-6.1506,-6.272,-6.3792,-6.4554,-6.509,-6.5739,-6.6613,-6.6416,-6.6472,-6.6339,-6.5105,-6.4834,-6.5296,-6.4288,-6.3432,-6.3153,-6.3014,-6.2425,-6.1548,-6.1664,-6.1288,-6.0404,-6.1273,-6.2394,-6.3239,-6.4918,-6.7129,-7.0453,-7.1214,-7.1998,-7.2803,-7.1826,-7.0658,-6.9571,-6.9257,-6.8467,-6.7509,-6.8015,-6.9571,-7.137,-7.0397,-7.0244,-7.1123,-7.2649,-7.3949,-7.4522,-7.4724,-7.5013,-7.5272,-7.5558,-7.57,-7.5558,-7.6013,-7.6494,-7.6635,-7.6635,-7.6606,-7.6606,-7.6775,-7.6775,-7.6775,-7.8126,-7.8802,-7.8802,-8.0066,-8.1477,-8.0554,-8.1128,-8.1665,-8.1885,-8.1885,-8.176,-8.201,-8.2259,-8.2506,-8.2629,-8.2751,-8.2629,-8.2506,-8.2228,-8.2135,-8.1947,-8.1822,-8.1791,-8.1634,-8.1255,-8.0969,-8.0841,-8.0841,-8.0841,-8.0841,-8.0841,-8.0841,-8.0841,-8.0841,-8.0841,-8.0841,-8.0841,-8.0841,-6.6286,-6.6189,-6.5695,-6.5496,-6.5427,-6.4819,-6.375,-6.2436,-6.2247,-6.125,-5.9912,-5.968,-5.968,-5.9648,-5.9898,-6.0124,-6.0265,-6.1422,-6.224,-6.272,-6.3425,-6.4554,-6.5682,-6.6341,-6.6472,-6.5778,-6.5133,-6.4452,-6.3736,-6.3293,-6.2707,-6.2001,-6.1833,-6.1236,-6.0226,-6.0226,-5.9839,-5.9031,-5.9449,-6.0188,-6.1379,-6.2754,-6.4853,-6.7552,-6.9577,-7.0657,-7.0827,-7.0282,-6.9571,-6.8968,-6.8149,-6.7509,-6.7025,-6.7348,-6.7804,-6.8575,-6.8389,-6.944,-7.2357,-7.2296,-7.2631,-7.409,-7.4724,-7.4868,-7.5013,-7.5415,-7.5529,-7.5386,-7.57,-7.5984,-7.6494,-7.6635,-7.6494,-7.6295,-7.6465,-7.6635,-7.6635,-7.7164,-7.7853,-7.901,-7.9804,-8.0295,-8.0584,-8.1159,-8.1413,-8.1351,-8.1224,-8.1224,-8.1665,-8.1885,-8.2259,-8.2475,-8.2597,-8.2629,-8.2629,-8.2506,-8.2259,-8.2166,-8.2072,-8.1947,-8.176,-8.1382,-8.0969,-8.0969,-8.0841,-8.0841,-8.0841,-8.0841,-8.0841,-8.0841,-8.0841,-8.0841,-8.0841,-8.0841,-8.0841,-6.6384,-6.6255,-6.5795,-6.5596,-6.5427,-6.5023,-6.3855,-6.2436,-6.2574,-6.1585,-6.0142,-5.9796,-5.9796,-5.9651,-5.9535,-5.9447,-5.9503,-6.0265,-6.114,-6.1986,-6.2832,-6.4102,-6.5569,-6.637,-6.6206,-6.5538,-6.4752,-6.3624,-6.2874,-6.231,-6.1716,-6.083,-6.066,-6.0106,-5.9104,-5.8957,-5.871,-5.8061,-5.8186,-5.8734,-5.9596,-6.1041,-6.2806,-6.5047,-6.7633,-6.8525,-6.7543,-6.8043,-6.8078,-6.7657,-6.7169,-6.6863,-6.6863,-6.6863,-6.6863,-6.6898,-6.7244,-6.9405,-7.2302,-7.2009,-7.2128,-7.3302,-7.4259,-7.4579,-7.4724,-7.4984,-7.5128,-7.5128,-7.5099,-7.5558,-7.6324,-7.6635,-7.6465,-7.6013,-7.6183,-7.6324,-7.6635,-7.6635,-7.7411,-7.8712,-7.9379,-7.9935,-8.0455,-8.1,-8.1159,-8.1097,-8.1128,-8.1128,-8.1317,-8.1634,-8.1979,-8.2228,-8.2506,-8.2629,-8.2629,-8.2506,-8.2383,-8.2259,-8.2041,-8.1696,-8.1665,-8.1382,-8.1097,-8.0969,-8.0841,-8.0841,-8.0841,-8.0841,-8.0841,-8.0841,-8.0841,-8.0841,-8.0841,-8.0841,-8.0841,-6.6577,-6.6286,-6.5992,-6.5695,-6.5496,-6.5124,-6.3825,-6.2327,-6.2436,-6.1473,-6.0027,-5.9796,-5.9796,-5.9796,-5.9535,-5.9563,-5.9447,-5.956,-6.0688,-6.2579,-6.3058,-6.4441,-6.6201,-6.6275,-6.6101,-6.5565,-6.318,-6.2452,-6.296,-6.121,-6.008,-5.9642,-5.9496,-5.8981,-5.8036,-5.8036,-5.8036,-5.791,-5.7886,-5.8211,-5.8586,-5.9647,-6.1156,-6.3187,-6.5247,-6.5458,-6.3455,-6.558,-6.6466,-6.5706,-6.6152,-6.6787,-6.6609,-6.6711,-6.6838,-6.6949,-6.7964,-6.9309,-7.0577,-7.162,-7.1991,-7.2811,-7.3525,-7.4113,-7.4259,-7.4579,-7.4724,-7.455,-7.4405,-7.484,-7.6183,-7.6324,-7.6183,-7.6013,-7.6013,-7.6154,-7.6465,-7.6635,-7.6635,-7.7164,-7.8742,-8.0035,-8.0165,-8.0584,-8.1,-8.1159,-8.1317,-8.1189,-8.1,-8.1477,-8.1729,-8.1854,-8.2228,-8.2629,-8.2629,-8.2629,-8.2475,-8.2228,-8.1791,-8.1696,-8.1634,-8.1508,-8.1255,-8.0969,-8.0841,-8.0841,-8.0841,-8.0841,-8.0841,-8.0841,-8.0841,-8.0841,-8.0841,-8.0841,-8.0841,-6.677,-6.6481,-6.5894,-6.5596,-6.5396,-6.4346,-6.3403,-6.2436,-6.1888,-6.0996,-6.0027,-5.9796,-5.9796,-5.968,-5.9563,-5.9563,-5.9563,-5.9563,-5.9842,-6.0745,-6.2437,-6.319,-6.3575,-6.5293,-6.5644,-6.4561,-6.3153,-6.1742,-6.0516,-5.9276,-5.8626,-5.8387,-5.8436,-5.8162,-5.8061,-5.7886,-5.7886,-5.7886,-5.7886,-5.8061,-5.8186,-5.8759,-5.9798,-6.1137,-6.2081,-6.2339,-6.2234,-6.3613,-6.4249,-6.4145,-6.4112,-6.4314,-6.4704,-6.539,-6.6101,-6.6762,-6.7322,-6.8441,-7.0114,-7.0167,-7.0812,-7.2333,-7.2932,-7.3525,-7.4259,-7.4405,-7.4405,-7.4259,-7.4259,-7.455,-7.5415,-7.5272,-7.5013,-7.53,-7.59,-7.6295,-7.6183,-7.6494,-7.6635,-7.6885,-7.8368,-7.9541,-7.9804,-8.0326,-8.0615,-8.0356,-8.0774,-8.1,-8.0969,-8.1351,-8.176,-8.1665,-8.2135,-8.2506,-8.2383,-8.1979,-8.1729,-8.1729,-8.1539,-8.1539,-8.1634,-8.1508,-8.1382,-8.1,-8.0841,-8.0841,-8.0841,-8.0841,-8.0841,-8.0841,-8.0841,-8.0841,-8.0841,-8.0841,-8.0841,-6.7088,-6.677,-6.5664,-6.5132,-6.4828,-6.3554,-6.2653,-6.1917,-6.1444,-6.0656,-5.9912,-5.9796,-5.9767,-5.968,-5.9535,-5.9563,-5.9563,-5.9563,-5.9555,-5.9817,-6.1273,-6.182,-6.1591,-6.3356,-6.3908,-6.3298,-6.3153,-6.165,-5.9352,-5.7456,-5.6929,-5.7129,-5.73,-5.7544,-5.7837,-5.7886,-5.7886,-5.7886,-5.7886,-5.7886,-5.791,-5.8211,-5.8759,-5.9525,-5.9729,-6.0228,-6.0828,-6.176,-6.2467,-6.2798,-6.305,-6.3151,-6.3205,-6.3357,-6.4399,-6.6482,-6.6508,-6.7232,-6.8811,-6.8916,-6.9568,-7.106,-7.1936,-7.3109,-7.3967,-7.4259,-7.4259,-7.4405,-7.455,-7.4695,-7.484,-7.455,-7.4405,-7.4868,-7.5758,-7.6154,-7.6183,-7.6324,-7.6635,-7.6775,-7.7578,-7.8638,-7.901,-8.0066,-8.0615,-8.0096,-8.0455,-8.0841,-8.0969,-8.1224,-8.1508,-8.157,-8.1947,-8.2135,-8.1729,-8.1224,-8.0969,-8.1097,-8.0969,-8.0713,-8.1097,-8.1128,-8.1128,-8.0744,-8.0841,-8.0841,-8.0841,-8.0841,-8.0841,-8.0841,-8.0841,-8.0841,-8.0841,-8.0841,-8.0841,-6.7182,-6.6834,-6.5371,-6.4532,-6.4017,-6.2886,-6.1748,-6.0941,-6.0967,-6.0656,-5.9912,-5.9796,-5.9796,-5.9824,-5.9733,-5.956,-5.956,-5.9616,-5.9789,-6.0118,-6.0049,-6.0318,-6.1098,-6.0985,-6.1179,-6.178,-6.2284,-6.1591,-5.9351,-5.6291,-5.5153,-5.6129,-5.63,-5.6788,-5.7593,-5.7837,-5.7886,-5.7886,-5.7886,-5.7886,-5.791,-5.791,-5.8211,-5.861,-5.8635,-5.8833,-5.9329,-6.0478,-6.1156,-6.1181,-6.2393,-6.2849,-6.2291,-6.1071,-6.2139,-6.5822,-6.5695,-6.5644,-6.6829,-6.7679,-6.852,-6.9155,-7.0884,-7.2766,-7.3634,-7.4033,-7.409,-7.4033,-7.4584,-7.4984,-7.4405,-7.4259,-7.4405,-7.4724,-7.5443,-7.5871,-7.5984,-7.6324,-7.6494,-7.6635,-7.6775,-7.7164,-7.7871,-7.9642,-8.0326,-8.0066,-8.0455,-8.0841,-8.0841,-8.0841,-8.1128,-8.1317,-8.1317,-8.1159,-8.0455,-8.0066,-7.9834,-7.9935,-7.9673,-7.9143,-7.9804,-8.0455,-8.0455,-8.0486,-8.0455,-8.0455,-8.0713,-8.0713,-8.0744,-8.0841,-8.0841,-8.0841,-8.0841,-8.0841,-8.0841,-6.6288,-6.6898,-6.6126,-6.5101,-6.3734,-6.2049,-6.1137,-6.0799,-6.0229,-5.9883,-5.9563,-5.9563,-5.9563,-5.9677,-6.0378,-6.0773,-6.0773,-6.0534,-6.0993,-6.16,-5.9951,-5.9674,-6.0663,-6.0547,-6.0455,-6.0728,-6.0882,-6.0173,-5.8338,-5.5842,-5.4762,-5.5153,-5.586,-5.6397,-5.6739,-5.7544,-5.7886,-5.7886,-5.7886,-5.7886,-5.7886,-5.7886,-5.8036,-5.8486,-5.8734,-5.9006,-5.9031,-5.9454,-5.9778,-6.01,-5.9903,-6.0153,-6.0695,-5.9848,-6.0478,-6.2716,-6.34,-6.4112,-6.5263,-6.5093,-6.5687,-6.7409,-6.8997,-7.0362,-7.166,-7.3243,-7.3413,-7.22,-7.3359,-7.4465,-7.4259,-7.4259,-7.4259,-7.4405,-7.4868,-7.53,-7.5558,-7.6154,-7.6635,-7.6635,-7.6635,-7.6746,-7.7273,-7.901,-8.0326,-7.9439,-8.0066,-8.0841,-8.0841,-8.1128,-8.1159,-8.1,-8.1,-8.0713,-8.0066,-7.9306,-7.904,-7.901,-7.8712,-7.8308,-7.8518,-7.9379,-7.9703,-7.9834,-7.9439,-7.9409,-7.9935,-8.0257,-8.0287,-8.0615,-8.0872,-8.0934,-8.0713,-8.0841,-8.0841,-6.4936,-6.5308,-6.5153,-6.4173,-6.2641,-6.0996,-6.0229,-6.0229,-5.968,-5.9563,-5.9563,-5.9563,-5.9447,-5.9358,-5.9915,-6.059,-6.0797,-6.0703,-6.1003,-6.1495,-5.9845,-5.8945,-5.9154,-5.8876,-5.8785,-5.8626,-5.9541,-5.9018,-5.7293,-5.643,-5.5483,-5.4738,-5.4787,-5.5153,-5.5641,-5.6666,-5.7227,-5.7227,-5.7666,-5.7886,-5.7886,-5.8061,-5.8336,-5.8461,-5.8908,-5.9031,-5.9179,-5.9179,-5.9352,-5.9377,-5.9204,-5.9056,-5.9352,-5.9179,-5.9727,-6.0979,-6.1054,-6.1505,-6.2875,-6.29,-6.3469,-6.4798,-6.647,-6.8268,-6.9948,-7.22,-7.3215,-7.2256,-7.2453,-7.3243,-7.4118,-7.4259,-7.4259,-7.4259,-7.4695,-7.5157,-7.5386,-7.6183,-7.6635,-7.6635,-7.6635,-7.6635,-7.6914,-7.8096,-7.8742,-7.8772,-7.9804,-8.0584,-8.0455,-8.0872,-8.1031,-8.0841,-8.0165,-7.9511,-7.904,-7.8368,-7.8126,-7.8096,-7.7794,-7.7382,-7.7519,-7.8232,-7.8936,-7.9203,-7.907,-7.904,-7.9367,-7.9741,-8.0254,-8.0551,-8.0785,-8.0542,-8.0026,-8.0226,-8.0196,-6.3231,-6.2987,-6.2952,-6.2146,-6.0919,-5.9828,-5.9422,-5.9535,-5.9563,-5.9563,-5.9563,-5.9563,-5.9274,-5.8949,-5.9117,-5.9697,-6.0403,-6.0475,-6.0669,-6.0684,-5.9395,-5.827,-5.7501,-5.6814,-5.6445,-5.6691,-5.8212,-5.8162,-5.6642,-5.7268,-5.6697,-5.4904,-5.3713,-5.3786,-5.464,-5.5616,-5.6153,-5.6251,-5.7325,-5.791,-5.791,-5.8312,-5.8461,-5.8461,-5.8883,-5.9031,-5.9006,-5.9525,-5.9525,-5.9179,-5.9352,-5.9081,-5.8211,-5.8759,-5.9474,-5.9991,-5.8982,-5.871,-5.9814,-6.0746,-6.1335,-6.1606,-6.3593,-6.592,-6.8379,-7.0452,-7.2142,-7.2651,-7.1353,-7.1522,-7.3836,-7.4259,-7.4259,-7.4405,-7.4868,-7.5157,-7.5558,-7.6154,-7.6635,-7.6635,-7.6635,-7.6635,-7.6635,-7.6775,-7.7025,-7.7608,-7.9143,-8.0226,-7.9965,-8.0226,-8.0425,-8.0295,-7.9113,-7.793,-7.7882,-7.7193,-7.7054,-7.747,-7.7054,-7.6775,-7.6973,-7.742,-7.7863,-7.8334,-7.8487,-7.8861,-7.9235,-7.9713,-8.046,-8.0993,-8.1038,-8.0597,-7.9686,-7.9788,-7.9444,-6.1898,-6.2558,-6.1418,-6.0369,-5.938,-5.8424,-5.8544,-5.9535,-5.9419,-5.9563,-5.9563,-5.9563,-5.9447,-5.9414,-6.0315,-6.0758,-6.103,-6.1557,-6.1853,-6.1581,-5.934,-5.8388,-5.8659,-5.6262,-5.6054,-5.7325,-5.7156,-5.7205,-5.7373,-5.6788,-5.625,-5.5787,-5.4811,-5.4396,-5.464,-5.4884,-5.5397,-5.6226,-5.7598,-5.8186,-5.791,-5.8336,-5.8461,-5.8461,-5.8908,-5.9031,-5.9179,-5.9474,-5.95,-5.9179,-5.9056,-5.8635,-5.8061,-5.9229,-5.95,-5.8635,-5.9229,-5.9144,-5.8037,-5.7918,-5.8465,-5.9258,-6.0685,-6.2197,-6.3814,-6.5035,-6.6408,-6.8143,-6.8003,-6.9604,-7.3356,-7.4259,-7.4405,-7.4724,-7.5272,-7.5729,-7.5871,-7.6324,-7.6635,-7.6635,-7.6635,-7.6635,-7.6635,-7.6635,-7.6635,-7.7054,-7.8232,-7.9173,-7.904,-7.904,-7.9173,-7.8876,-7.793,-7.7164,-7.7637,-7.7054,-7.6775,-7.6775,-7.6635,-7.6635,-7.678,-7.7649,-7.8136,-7.7493,-7.8013,-7.8845,-7.9856,-8.0015,-8.0381,-8.1656,-8.194,-8.2033,-8.2,-8.1656,-8.0555,-6.0017,-6.0038,-5.9339,-5.8365,-5.7459,-5.7048,-5.7556,-5.8544,-5.86,-5.86,-5.8629,-5.9193,-5.9419,-5.9213,-5.8797,-5.8624,-5.8934,-5.8599,-5.8749,-5.8944,-5.7486,-5.667,-5.6262,-5.527,-5.4927,-5.5267,-5.6052,-5.6813,-5.7377,-5.7081,-5.6715,-5.6202,-5.5665,-5.5104,-5.4689,-5.5128,-5.5641,-5.6226,-5.696,-5.7522,-5.791,-5.8336,-5.8461,-5.8461,-5.8908,-5.8807,-5.8309,-5.843,-5.8205,-5.7392,-5.7302,-5.7205,-5.7056,-5.9118,-5.95,-5.8036,-5.8426,-5.8211,-5.712,-5.635,-5.6133,-5.6946,-5.8072,-5.8705,-5.8413,-5.9351,-6.017,-6.0662,-6.4743,-6.8898,-7.3667,-7.4259,-7.3924,-7.3304,-7.4955,-7.5955,-7.6013,-7.6324,-7.6635,-7.6635,-7.6635,-7.6635,-7.6635,-7.6635,-7.6635,-7.6635,-7.7193,-7.7853,-7.8262,-7.796,-7.7716,-7.7686,-7.7164,-7.6885,-7.7054,-7.6775,-7.6635,-7.6635,-7.6635,-7.6635,-7.6722,-7.7682,-7.8351,-7.8409,-7.838,-7.8812,-7.9351,-7.9322,-7.9604,-8.0867,-8.1233,-8.172,-8.1976,-8.1263,-8.0033,-5.821,-5.7291,-5.7127,-5.6432,-5.5561,-5.5787,-5.6309,-5.7049,-5.6936,-5.7134,-5.7641,-5.8713,-5.9048,-5.8614,-5.6621,-5.5767,-5.5851,-5.4745,-5.4583,-5.512,-5.5398,-5.4542,-5.2743,-5.3778,-5.3461,-5.2198,-5.4738,-5.6168,-5.6439,-5.7156,-5.7204,-5.63,-5.6226,-5.5787,-5.5006,-5.5616,-5.608,-5.6226,-5.6348,-5.6788,-5.7886,-5.8312,-5.861,-5.8635,-5.8858,-5.8583,-5.7686,-5.7516,-5.69,-5.5699,-5.5565,-5.5467,-5.5612,-5.832,-5.9077,-5.7402,-5.6789,-5.6422,-5.626,-5.4498,-5.3628,-5.406,-5.512,-5.5046,-5.3351,-5.4567,-5.4765,-5.3827,-6.0838,-6.7967,-7.2961,-7.3415,-7.2482,-7.1508,-7.3519,-7.5518,-7.5778,-7.5774,-7.6053,-7.6547,-7.6635,-7.6635,-7.6635,-7.6635,-7.6635,-7.6635,-7.6775,-7.6914,-7.7332,-7.7025,-7.6635,-7.6635,-7.6635,-7.6635,-7.6635,-7.6606,-7.6635,-7.6635,-7.6635,-7.6635,-7.6635,-7.7885,-7.9398,-8.0706,-7.9834,-7.9077,-7.8812,-7.8669,-7.9068,-7.9693,-8.041,-8.0972,-8.1407,-8.0005,-7.9126,-5.8094,-5.6995,-5.6063,-5.5122,-5.4245,-5.4469,-5.4525,-5.4458,-5.4323,0.0,0.0,-5.781,-5.7809,-5.7781,-5.7328,-5.6313,-5.485,-5.5287,-5.4873,-5.394,-5.4812,-5.4303,-5.2693,-5.2257,-5.1857,-5.1601,-5.2409,-5.3283,-5.4195,-5.5347,-5.6212,-5.6565,-5.6639,-5.6396,-5.5934,-5.5275,-5.5492,-5.6565,-5.6954,-5.7376,-5.7886,-5.861,-5.8908,-5.8461,-5.8883,-5.8932,-5.8732,-5.8462,-5.8091,-5.7449,-5.5132,-5.3927,-5.3999,-5.669,-5.7198,-5.4515,-5.4207,-5.3873,-5.3294,-4.9888,-4.848,-4.9599,-4.9948,-5.0434,-5.117,-5.2691,-5.3141,-5.235,-5.7497,-6.3622,-7.0478,-6.9977,-6.9323,-6.9952,-7.1105,-7.2662,-7.4433,-7.4075,-7.4279,-7.6198,-7.6518,-7.6635,-7.6547,-7.6606,-7.6635,-7.6635,-7.6635,-7.6606,-7.6746,-7.6635,-7.6635,-7.6635,-7.6635,-7.6635,-7.6635,-7.6635,-7.6635,-7.6635,-7.6635,-7.6635,-7.6955,-7.8554,-8.0852,-8.2858,-8.1579,-8.0125,-7.9415,-7.9263,-7.9855,-8.137,-8.1794,-8.2011,-8.2742,-8.0914,-7.9038,-5.7373,-5.5973,-5.5358,-5.4222,0.0,-5.3059,-5.3061,-5.2958,-5.2882,-5.3817,-5.5531,-5.6261,-5.6319,-5.5671,-5.5033,-5.3613,-5.1712,-5.1898,-5.1101,-4.9904,-5.0966,-5.0991,-5.0122,-4.9961,-5.0011,-5.0196,-5.0867,-5.1409,-5.2001,-5.2852,-5.3771,-5.485,-5.4709,-5.5247,-5.6445,-5.5463,-5.5311,-5.6207,-5.6538,-5.7205,-5.8137,-5.861,-5.8734,-5.8759,-5.8238,0.0,0.0,0.0,0.0,0.0,0.0,0.0,0.0,-5.1757,-5.0024,-4.9193,-5.0214,-4.9865,-4.7698,-4.6552,-4.591,-4.5747,-4.7325,-4.8002,-4.6955,-4.8497,-5.1275,-5.5334,-5.3268,-5.5469,-6.3905,-6.6907,-6.7778,-6.7175,-6.875,-7.0382,-7.1516,-7.1778,-7.2359,-7.361,-7.4686,-7.5355,-7.5326,-7.6024,-7.6606,-7.6635,-7.6635,-7.6635,-7.6635,-7.6635,-7.6635,-7.6635,-7.6635,-7.6635,-7.6635,-7.6635,-7.6635,-7.6635,-7.6635,-7.6635,-7.6635,-7.8205,-8.0532,-8.3266,-8.1608,-7.9484,-7.9013,-7.8793,-7.8799,-7.9302,-8.0362,-8.1047,-8.0362,-7.9242,-7.8101,-5.6456,-5.483,-5.4635,-5.3473,-5.1765,-5.1924,-5.185,-5.1747,-5.1719,-5.2071,-5.2728,-5.4141,-5.4228,-5.3333,-5.2241,-5.0539,-4.8475,-4.822,-4.7404,-4.6121,-4.7156,-4.7607,-4.7514,-4.7823,-4.8117,-4.8426,-4.9289,-4.9807,-5.0028,-5.037,-5.1188,-5.2531,-5.2259,-5.3347,-5.5699,0.0,0.0,0.0,-5.5502,-5.6688,-5.8091,-5.8511,-5.8908,-5.9031,-5.7614,0.0,-5.5805,-5.4238,-5.3111,-5.2669,-5.3436,0.0,-5.309,0.0,0.0,0.0,0.0,0.0,-4.2212,0.0,0.0,0.0,-4.4533,-4.4905,-4.2166,-4.4483,-4.9208,-5.6094,-5.0066,-4.9149,-5.7895,-6.3282,-6.51,-6.2888,-6.4892,-6.6899,-6.7979,-6.8675,-6.9672,-7.044,-7.2039,-7.3261,-7.3872,-7.5471,-7.6606,-7.6635,-7.6635,-7.6635,-7.6635,-7.6373,-7.6315,-7.6576,-7.6635,-7.6635,-7.6635,-7.6635,-7.6635,-7.6635,-7.6635,-7.6635,-7.6751,-7.7885,-8.0212,-8.1782,-8.0852,-7.9281,-7.8932,-7.8658,-7.8491,-7.7323,-7.8756,-7.947,-7.7398,-7.7025,-7.7164,-5.582,-5.4,-5.4,-5.3346,-5.236,-5.1794,-5.1041,-5.0227,-5.0439,-5.0174,-4.9556,-5.0624,-5.0906,-5.0793,-5.0633,-4.9022,-4.6503,-4.7298,-4.7135,-4.6169,-4.7002,-4.7311,-4.6932,-4.6938,-4.6951,-4.6977,-4.7294,-4.7933,-4.9044,-4.9267,-4.9761,-5.0694,-5.0589,-5.1229,-5.242,-5.0546,-5.0361,-5.1795,-5.3853,-5.5519,-5.6932,-5.8705,-5.9377,-5.9031,-5.8088,-5.739,-5.6992,-5.547,-5.4498,-5.4383,-5.3566,-5.1995,-4.9563,-4.3172,-4.0778,0.0,-4.1028,0.0,0.0,0.0,0.0,0.0,0.0,0.0,0.0,-4.28,-4.6969,-4.8148,-4.8817,-5.1197,-5.5888,-5.7893,-5.8403,-5.6711,-5.6992,-5.9257,-6.3861,-6.3689,-6.4771,-6.8772,-6.948,-7.0527,-7.2592,-7.5093,-7.6635,-7.6635,-7.6489,-7.6286,-7.6431,-7.5559,-7.5297,-7.6489,-7.6635,-7.6518,-7.6606,-7.6635,-7.6635,-7.6635,-7.6635,-7.6635,-7.6635,-7.8496,-7.9601,-7.8467,-7.9921,-8.1113,-8.0357,-8.0503,-8.0406,-7.9087,-7.9191,-7.8756,-7.6353,-7.5865,-7.6606,-5.3879,-5.2746,-5.3281,-5.2104,-4.9925,-4.9218,-4.8662,-4.821,-4.808,-4.767,-4.7098,-4.6783,-4.597,-4.5055,-4.668,-4.6281,-4.4488,-4.6425,-4.6852,-4.571,-4.6204,-4.6492,-4.6709,-4.5995,-4.605,-4.6611,-4.6096,-4.6166,-4.6632,-4.6657,-4.7221,-4.8276,-4.8027,-4.8521,-4.9391,-4.7929,-4.8125,-4.9765,-5.2238,-5.471,-5.7238,-5.8295,-5.8726,-5.866,-5.7463,-5.6425,-5.5812,-5.3184,-5.1873,-5.198,-4.9518,-4.6915,-4.4212,-4.0899,-3.7208,0.0,0.0,0.0,0.0,0.0,0.0,0.0,0.0,0.0,0.0,0.0,-4.1454,-4.4778,-4.6248,-4.8793,-5.3296,-5.3628,-5.3201,-5.2308,-5.2925,-5.4121,-5.605,-5.7833,-5.9999,-6.2994,-6.2937,-6.4652,-6.9975,-7.2883,-7.4948,-7.6431,-7.4802,-7.3552,-7.3697,-7.3726,-7.4046,-7.5268,-7.5529,-7.5762,-7.6547,-7.6635,-7.6635,-7.6635,-7.6635,-7.6635,-7.6664,-7.7594,-7.8467,-7.87,-7.8932,-7.8961,-7.8121,-7.8549,-7.8687,-7.7561,-7.6838,-7.5484,-7.273,-7.3037,-7.4079,-5.1652,-5.0781,-4.9348,-4.7933,-4.6325,-4.5703,-4.5784,-4.6278,-4.5879,-4.5397,-4.4834,-4.3796,-4.2261,-4.0375,-4.2625,-4.2962,-4.205,-4.4577,-4.5268,-4.4584,-4.4851,-4.5308,-4.583,-4.5033,-4.5325,-4.6271,-4.5033,-4.4645,-4.5082,-4.4261,-4.4815,-4.6635,-4.5979,-4.5946,-4.6494,-4.5945,-4.6237,-4.7659,-5.0361,-5.3319,-5.6414,-5.6739,-5.7107,-5.7204,-5.534,-5.4027,-5.3425,-5.0684,-4.9198,-4.908,-4.613,-4.3167,-4.0056,-3.8815,0.0,0.0,0.0,0.0,0.0,0.0,0.0,0.0,0.0,-3.1171,-3.5621,0.0,-3.6937,0.0,-4.29,-4.5194,-4.9854,-4.9217,0.0,0.0,-4.8547,-4.923,-4.9447,-5.2044,-5.4452,-5.6332,-5.592,-5.7461,-6.2503,-6.8743,-7.2825,-7.2854,-7.1153,-7.0195,-7.0905,-7.1807,-7.2767,-7.3552,-7.3959,-7.4337,-7.4628,-7.5442,-7.5966,-7.6024,-7.5995,-7.5937,-7.5733,-7.6169,-7.7478,-7.9688,-7.8321,-7.6527,-7.6099,-7.6465,-7.6266,-7.5014,-7.4243,-7.3104,-7.1041,-7.1371,-7.232,-4.954,-4.7945,-3.9608,-3.8248,-4.1533,-4.1642,-4.2873,-4.4841,-4.4534,-4.3811,-4.2831,-4.2424,-4.144,-3.9846,-3.9188,0.0,-3.9454,-4.0901,-4.1604,-4.1783,-4.3245,-4.3762,-4.3658,-4.4004,-4.4775,-4.571,-4.3721,-4.3862,-4.5763,-4.3261,-4.3674,-4.6897,-4.5253,-4.3987,-4.3439,-4.4292,-4.4819,-4.5045,-4.7968,-5.044,-5.2383,-5.3569,-5.4237,-5.4199,-5.1135,-4.9415,-4.9253,-4.8711,-4.799,-4.6695,-4.5583,-4.3211,-3.9381,0.0,0.0,0.0,0.0,0.0,0.0,0.0,0.0,0.0,0.0,0.0,0.0,0.0,0.0,-3.7364,-3.8832,0.0,-4.4772,-4.4225,0.0,0.0,0.0,-4.3949,-4.6967,-4.6734,-4.7434,-5.0106,0.0,0.0,-4.6849,-6.178,-7.0207,-6.3402,-6.495,-6.7388,-6.8946,-7.0556,-7.1545,-7.1312,-7.2127,-7.2069,-7.0643,-7.2127,-7.3784,-7.4163,-7.4279,-7.4017,-7.3272,-7.4861,-7.7449,-7.963,-7.7976,-7.5955,-7.59,-7.5384,-7.5128,-7.2964,-7.3359,-7.3953,-7.3131,-7.2596,-7.2335,-4.0538,-3.6326,-3.2416,-3.1682,-3.3119,-3.2883,-3.4707,-3.7909,-3.7666,-3.825,-3.9082,-3.7677,-3.6172,-3.4527,-3.2764,0.0,0.0,0.0,-3.9993,-4.097,-4.1947,-4.2303,-4.2463,-4.2968,-4.3365,-4.3747,-4.3556,-4.4009,-4.5111,-4.3995,-4.3752,-4.4115,0.0,-4.133,-4.3546,-4.3133,-4.3729,-4.5609,-4.8207,-5.019,-5.1563,-5.3577,-5.4373,-5.3579,-5.164,-5.0166,-4.9466,-4.7585,-4.626,-4.5278,-4.1827,-3.8824,0.0,0.0,0.0,0.0,0.0,0.0,0.0,0.0,0.0,0.0,0.0,-2.4892,-2.7619,0.0,0.0,0.0,-3.3415,-3.6046,-4.0696,-4.114,0.0,0.0,0.0,0.0,0.0,0.0,0.0,-4.6996,-4.5227,-4.5058,-4.8916,-5.7602,-6.4158,-6.5757,-6.3575,-6.3168,-6.7008,0.0,-6.8782,-6.9684,-6.9509,-6.948,-7.0033,-6.8055,-6.7582,-7.1224,-7.1932,-7.1827,-7.13,-7.2989,-7.4564,-7.4592,-7.394,-7.329,-7.3069,-7.0255,-6.8225,-6.8898,-6.8334,-6.7657,-6.7601,-6.7366,-6.7384,-3.0999,0.0,0.0,0.0,0.0,-2.5703,-2.7885,-3.175,-3.1841,-3.287,-3.4484,-3.2992,0.0,0.0,0.0,0.0,0.0,0.0,-3.6778,-3.8194,-3.9741,-4.0387,-4.0226,-4.1172,-4.1454,-4.1278,-4.1397,-4.1836,-4.2411,-4.2255,-4.1511,-4.0435,0.0,0.0,0.0,0.0,-4.306,-4.5616,-4.8344,-4.9965,-5.0546,-5.2994,-5.3419,-5.1757,-5.0203,-4.8952,-4.7845,-4.5836,-4.4138,-4.2699,-3.8632,0.0,0.0,0.0,0.0,0.0,0.0,0.0,0.0,0.0,0.0,0.0,0.0,0.0,0.0,0.0,0.0,0.0,0.0,0.0,-3.7044,-3.9163,-3.9332,0.0,0.0,0.0,0.0,0.0,0.0,0.0,0.0,0.0,-4.7466,-5.2779,-5.8798,0.0,0.0,-5.9976,-6.4361,-6.5661,-6.6407,-6.727,-6.6827,0.0,-6.8026,-6.4303,-6.2763,-6.7089,-6.8984,-6.9209,-6.7375,-6.8698,-6.9799,-6.8848,-6.8677,-6.8129,-6.6359,-6.3441,-6.217,-6.3525,-6.305,-6.21,-6.2016,-6.1861,-6.1917,0.0,0.0,0.0,0.0,-2.1403,0.0,0.0,0.0,-2.8184,-2.8553,0.0,-2.9108,0.0,0.0,0.0,0.0,-2.8148,-2.973,0.0,0.0,-3.6392,-3.7573,-3.6508,-3.8395,-3.8873,-3.8001,-3.6152,-3.6051,-3.733,-3.6721,-3.6303,0.0,0.0,0.0,0.0,0.0,-4.291,-4.4037,-4.7872,-4.9391,-4.8894,-5.0916,-5.0581,-4.7649,-4.5503,-4.4071,-4.2958,-4.3013,-4.1599,-3.8539,-3.6896,0.0,0.0,0.0,0.0,0.0,0.0,0.0,0.0,0.0,0.0,0.0,0.0,0.0,0.0,0.0,0.0,0.0,0.0,0.0,0.0,-3.8485,0.0,0.0,0.0,0.0,0.0,0.0,0.0,0.0,0.0,-3.9261,-3.8322,-4.6602,-5.4976,-6.0726,0.0,0.0,0.0,0.0,-6.4681,-6.3634,-6.4354,-6.4292,-6.2037,-6.137,-6.1319,-6.1667,0.0,0.0,-6.0629,-6.1141,-6.2653,-6.3285,-6.2364,-5.9819,-5.5128,-5.5826,-5.7123,-5.7313,-5.8266,-5.9236,-5.9236,-5.8251,-5.7888,0.0,0.0,0.0,0.0,0.0,0.0,0.0,0.0,0.0,-2.2508,-2.4646,-2.401,-2.2803,0.0,0.0,0.0,0.0,0.0,0.0,0.0,-3.1889,-3.2981,-3.3406,-3.3947,-3.445,-3.5016,-3.5085,-3.3311,0.0,0.0,0.0,0.0,0.0,0.0,0.0,0.0,-4.1257,-4.3292,-4.7645,-4.9836,-4.9641,-5.1095,-5.075,-4.8346,-4.6935,-4.5068,-4.2901,-4.1236,-3.9048,0.0,0.0,0.0,0.0,0.0,0.0,0.0,0.0,0.0,0.0,0.0,0.0,0.0,0.0,0.0,0.0,0.0,0.0,0.0,0.0,0.0,0.0,0.0,-3.7089,0.0,0.0,0.0,0.0,0.0,0.0,0.0,0.0,0.0,-3.4194,-3.9947,-4.72,-5.5258,-5.3446,-5.3738,-6.0348,0.0,0.0,0.0,0.0,0.0,0.0,0.0,-6.129,-6.1612,-6.2337,-6.1807,-5.8799,-5.858,-5.8592,-5.8074,0.0,0.0,-5.101,-5.1029,-5.1726,-5.1726,-5.1683,-5.1795,-5.2436,-5.1907,-5.1533,0.0,0.0,0.0,0.0,0.0,0.0,0.0,0.0,0.0,-1.8043,-1.9553,0.0,0.0,0.0,0.0,0.0,0.0,0.0,0.0,0.0,-2.7859,0.0,-2.9758,-3.0041,0.0,0.0,0.0,0.0,0.0,0.0,0.0,0.0,0.0,0.0,0.0,0.0,-4.0548,-4.283,-4.7281,-4.9408,-4.9042,-4.9815,-4.9447,-4.766,-4.6535,-4.4936,-4.2878,0.0,0.0,0.0,-3.0145,0.0,0.0,0.0,0.0,0.0,0.0,0.0,0.0,0.0,0.0,0.0,0.0,0.0,0.0,0.0,0.0,0.0,0.0,0.0,0.0,0.0,-3.4139,0.0,0.0,0.0,0.0,0.0,0.0,0.0,0.0,0.0,0.0,-3.6253,-4.2626,-4.9707,-4.9591,-5.1214,-5.7741,-5.8719,-5.9352,0.0,0.0,-6.0842,0.0,0.0,0.0,0.0,0.0,0.0,0.0,0.0,0.0,0.0,-4.9788,-4.6865,-4.4936,-4.4765,-4.4977,-4.5471,0.0,0.0,0.0,0.0,0.0,0.0,0.0,0.0,0.0,0.0,0.0,0.0,0.0,0.0,0.0,-1.3502,0.0,0.0,-1.2698,0.0,0.0,0.0,0.0,0.0,0.0,0.0,0.0,0.0,0.0,0.0,0.0,0.0,0.0,0.0,0.0,0.0,0.0,0.0,0.0,0.0,0.0,-4.0679,-4.274,-4.6468,-4.7852,-4.6997,-4.6941,-4.6431,-4.5209,-4.4118,-4.3123,-4.24,0.0,0.0,0.0,0.0,0.0,0.0,0.0,0.0,0.0,0.0,0.0,0.0,0.0,0.0,0.0,0.0,0.0,0.0,0.0,0.0,0.0,0.0,0.0,0.0,0.0,0.0,-2.9707,-3.0023,-3.0864,0.0,0.0,0.0,0.0,0.0,0.0,0.0,0.0,0.0,-4.4152,-4.7868,-5.1156,-5.3455,-5.6526,-5.8356,-5.7749,-5.8564,-5.9118,-5.8728,-5.9976,-6.0371,0.0,0.0,0.0,0.0,0.0,0.0,0.0,0.0,0.0,0.0,0.0,0.0,0.0,0.0,0.0,0.0,0.0,0.0,0.0,0.0,0.0,0.0,0.0,0.0,0.0,0.0,0.0,0.0,-0.7779,-0.7969,0.0,0.0,0.0,0.0,0.0,0.0,0.0,0.0,0.0,0.0,0.0,0.0,0.0,0.0,0.0,0.0,0.0,0.0,0.0,0.0,0.0,0.0,0.0,0.0,-3.9032,-4.2102,-4.4957,-4.6547,-4.6977,-4.6331,-4.5626,-4.4486,-4.3043,-4.105,-3.8838,0.0,0.0,0.0,0.0,0.0,0.0,0.0,0.0,0.0,0.0,0.0,0.0,0.0,0.0,0.0,0.0,0.0,0.0,0.0,0.0,0.0,0.0,0.0,0.0,0.0,0.0,0.0,-2.7885,-2.9183,-2.9744,0.0,0.0,0.0,0.0,0.0,0.0,0.0,0.0,0.0,0.0,-4.8645,-5.3019,-5.535,-5.6801,-5.7457,-5.7871,-5.7854,-5.7041,-5.6631,-5.5606,-5.3206,0.0,0.0,0.0,0.0,0.0,0.0,0.0,0.0,0.0,0.0,0.0,0.0,0.0,0.0,0.0,0.0,0.0,0.0,0.0,0.0,0.0,0.0,0.0,0.0,0.0,0.0,0.0,0.0,0.0,0.0,0.0,0.0,0.0,0.0,0.0,0.0,0.0,0.0,0.0,0.0,0.0,0.0,0.0,0.0,0.0,0.0,0.0,0.0,0.0,0.0,0.0,0.0,0.0,-3.842,-4.1816,-4.3912,-4.54,-4.6344,-4.5135,-4.4053,-4.3342,-4.1172,-3.8923,0.0,0.0,0.0,0.0,0.0,0.0,0.0,0.0,0.0,0.0,0.0,0.0,0.0,0.0,0.0,0.0,0.0,0.0,0.0,0.0,0.0,0.0,0.0,0.0,0.0,0.0,0.0,0.0,-2.7015,-2.8427,-2.8496,0.0,0.0,0.0,0.0,0.0,0.0,0.0,0.0,0.0,0.0,-4.7695,-5.0954,-5.2929,0.0,0.0,-5.4635,-5.4592,-5.4016,-5.2853,-5.1472,-5.01,-4.6926,0.0,0.0,0.0,0.0,0.0,0.0,0.0,0.0,0.0,0.0,0.0,0.0,0.0,0.0,0.0,0.0,0.0,0.0,0.0,0.0,0.0,0.0,0.0,0.0,0.0,0.0,0.0,0.0,0.0,0.0,0.0,0.0,0.0,0.0,0.0,0.0,0.0,0.0,0.0,0.0,0.0,0.0,0.0,0.0,0.0,0.0,0.0,0.0,0.0,0.0,0.0,0.0,-3.86,-4.1564,-4.3154,-4.4432,-4.5348,-4.3471,-4.2196,-4.1482,-3.9079,-3.6886,0.0,0.0,0.0,0.0,0.0,0.0,0.0,0.0,0.0,0.0,0.0,0.0,0.0,0.0,0.0,0.0,0.0,0.0,0.0,0.0,0.0,0.0,0.0,0.0,0.0,0.0,0.0,0.0,0.0,0.0,0.0,0.0,0.0,0.0,0.0,0.0,0.0,0.0,0.0,0.0,0.0,-4.7464,-4.7609,-4.9845,-5.1064,0.0,-5.0028,-5.0219,-5.0121,-4.8996,-4.8049,-4.814,0.0,0.0,0.0,0.0,0.0,0.0,0.0,0.0,0.0,0.0,0.0,0.0,0.0,0.0,0.0,0.0,0.0,0.0,0.0,0.0,0.0,0.0,0.0,0.0,0.0,0.0,0.0,0.0,0.0,0.0,0.0,0.0,0.0,0.0,0.0,0.0,0.0,0.0,0.0,0.0,0.0,0.0,0.0,0.0,0.0,0.0,0.0,0.0,0.0,0.0,0.0,0.0,0.0,0.0,-4.0687,-4.2013,-4.317,-4.4177,-4.2955,-4.1894,-4.0837,-3.9009,0.0,0.0,0.0,0.0,0.0,0.0,0.0,0.0,0.0,0.0,0.0,0.0,0.0,0.0,0.0,0.0,0.0,0.0,0.0,0.0,0.0,0.0,0.0,0.0,0.0,0.0,0.0,-1.9798,0.0,0.0,0.0,0.0,0.0,0.0,0.0,0.0,0.0,0.0,0.0,0.0,0.0,0.0,-4.2359,-4.5785,-4.7908,-4.921,0.0,0.0,-4.8658,-4.791,-4.7055,-4.5611,0.0,0.0,0.0,0.0,0.0,0.0,0.0,0.0,0.0,0.0,0.0,0.0,0.0,0.0,0.0,0.0,0.0,0.0,0.0,0.0,0.0,0.0,0.0,0.0,0.0,0.0,0.0,0.0,0.0,0.0,0.0,0.0,0.0,0.0,0.0,0.0,0.0,0.0,0.0,0.0,0.0,0.0,0.0,0.0,0.0,0.0,0.0,0.0,0.0,0.0,0.0,0.0,0.0,0.0,-3.5419,-3.9471,-4.0199,-4.131,-4.2848,-4.1507,-4.039,-3.9758,-3.7477,-3.5103,0.0,0.0,0.0,0.0,0.0,0.0,0.0,0.0,0.0,0.0,0.0,0.0,0.0,0.0,0.0,0.0,0.0,0.0,0.0,0.0,0.0,0.0,0.0,0.0,0.0,0.0,0.0,0.0,0.0,0.0,0.0,0.0,0.0,0.0,0.0,0.0,0.0,0.0,0.0,0.0,0.0,0.0,-4.4066,-4.5471,0.0,0.0,0.0,-4.4356,-4.4258,0.0,0.0,0.0,0.0,0.0,0.0,0.0,0.0,0.0,0.0,0.0,0.0,0.0,0.0,0.0,0.0,0.0,0.0,0.0,0.0,0.0,0.0,0.0,0.0,0.0,0.0,0.0,0.0,0.0,0.0,0.0,0.0,0.0,0.0,0.0,0.0,0.0,0.0,0.0,0.0,0.0,0.0,0.0,0.0,0.0,0.0,0.0,0.0,0.0,0.0,0.0,0.0,0.0,0.0,0.0,0.0,0.0,-3.8191,-3.8225,-3.9217,-4.1253,-3.9662,-3.8636,-3.8347,-3.5382,-3.2843,0.0,0.0,0.0,0.0,0.0,0.0,0.0,0.0,0.0,0.0,0.0,0.0,0.0,0.0,0.0,0.0,0.0,0.0,0.0,0.0,0.0,0.0,0.0,0.0,0.0,0.0,0.0,0.0,0.0,0.0,0.0,0.0,0.0,0.0,0.0,0.0,0.0,0.0,0.0,0.0,0.0,-4.0417,-4.2616,-4.268,-4.2458,0.0,0.0,-3.9478,-4.0134,-3.8909,0.0,0.0,0.0,0.0,0.0,0.0,0.0,0.0,0.0,0.0,0.0,0.0,0.0,0.0,0.0,0.0,0.0,0.0,0.0,0.0,0.0,0.0,0.0,0.0,0.0,0.0,0.0,0.0,0.0,0.0,0.0,0.0,0.0,0.0,0.0,0.0,0.0,0.0,0.0,0.0,0.0,0.0,0.0,0.0,0.0,0.0,0.0,0.0,0.0,0.0,0.0,0.0,0.0,0.0,0.0,0.0,-3.6527,-3.8012,-3.909,-3.973,-3.9281,-3.825,-3.6877,-3.4469,-3.2174,0.0,0.0,0.0,0.0,0.0,0.0,0.0,0.0,0.0,0.0,0.0,0.0,0.0,0.0,0.0,0.0,0.0,0.0,0.0,0.0,0.0,0.0,0.0,0.0,0.0,0.0,0.0,0.0,0.0,0.0,0.0,0.0,0.0,0.0,0.0,0.0,0.0,0.0,0.0,0.0,0.0,-3.7197,-4.0901,-4.0027,0.0,0.0,0.0,0.0,-3.8,-3.7693,0.0,0.0,0.0,0.0,0.0,0.0,0.0,0.0,0.0,0.0,0.0,0.0,0.0,0.0,0.0,0.0,0.0,0.0,0.0,0.0,0.0,0.0,0.0,0.0,0.0,0.0,0.0,0.0,0.0,0.0,0.0,0.0,0.0,0.0,0.0,0.0,0.0,0.0,0.0,0.0,0.0,0.0,0.0,0.0,0.0,0.0,0.0,0.0,0.0,0.0,0.0,0.0,0.0,0.0,0.0,0.0,-3.4804,-3.5331,-3.656,-3.8643,-3.7572,-3.6421,-3.5436,-3.298,-3.0746,0.0,0.0,0.0,0.0,0.0,0.0,0.0,0.0,0.0,0.0,0.0,0.0,0.0,0.0,0.0,0.0,0.0,0.0,0.0,0.0,0.0,0.0,0.0,0.0,0.0,0.0,0.0,0.0,0.0,0.0,0.0,0.0,0.0,0.0,0.0,0.0,0.0,0.0,0.0,0.0,-3.2346,-3.4401,-3.6696,0.0,0.0,0.0,0.0,0.0,0.0,-3.5408,-3.4382,0.0,0.0,0.0,0.0,0.0,0.0,0.0,0.0,0.0,0.0,0.0,0.0,0.0,0.0,0.0,0.0,0.0,0.0,0.0,0.0,0.0,0.0,0.0,0.0,0.0,0.0,0.0,0.0,0.0,0.0,0.0,0.0,0.0,0.0,0.0,0.0,0.0,0.0,0.0,0.0,0.0,0.0,0.0,0.0,0.0,0.0,0.0,0.0,0.0,0.0,0.0,0.0,0.0,0.0,0.0,-3.3036,-3.2334,-3.3683,-3.7154,-3.5365,-3.4253,-3.388,-3.1345,-2.8836,-2.678,0.0,0.0,0.0,0.0,0.0,0.0,0.0,0.0,0.0,0.0,0.0,0.0,0.0,0.0,0.0,0.0,0.0,0.0,0.0,0.0,0.0,0.0,0.0,0.0,0.0,0.0,0.0,0.0,0.0,0.0,0.0,0.0,0.0,0.0,0.0,0.0,0.0,0.0,0.0,-3.066,-3.1693,0.0,0.0,0.0,0.0,0.0,0.0,0.0,0.0,-3.0852,0.0,0.0,0.0,0.0,0.0,0.0,0.0,0.0,0.0,0.0,0.0,0.0,0.0,0.0,0.0,0.0,0.0,0.0,0.0,0.0,0.0,0.0,0.0,0.0,0.0,0.0,0.0,0.0,0.0,0.0,0.0,0.0,0.0,0.0,0.0,0.0,0.0,0.0,0.0,0.0,0.0,0.0,0.0,0.0,0.0,0.0,0.0,0.0,0.0,0.0,0.0,0.0,0.0,0.0,0.0,0.0,-3.1934,-3.2804,-3.2871,-3.3648,-3.347,-3.2302,-2.9389,-2.6329,-2.2927,0.0,0.0,0.0,0.0,0.0,0.0,0.0,0.0,0.0,0.0,0.0,0.0,0.0,0.0,0.0,0.0,0.0,0.0,0.0,0.0,0.0,0.0,0.0,0.0,0.0,0.0,0.0,0.0,0.0,0.0,0.0,0.0,0.0,0.0,0.0,0.0,0.0,0.0,-2.8437,-2.8773,0.0,0.0,0.0,0.0,0.0,0.0,0.0,0.0,-2.7342,0.0,0.0,0.0,0.0,0.0,0.0,0.0,0.0,0.0,0.0,0.0,0.0,0.0,0.0,0.0,0.0,0.0,0.0,0.0,0.0,0.0,0.0,0.0,0.0,0.0,0.0,0.0,0.0,0.0,0.0,0.0,0.0,0.0,0.0,0.0,0.0,0.0,0.0,0.0,0.0,0.0,0.0,0.0,0.0,0.0,0.0,0.0,0.0,0.0,0.0,0.0,0.0,0.0,0.0,0.0,0.0,0.0,0.0,-3.124,-3.2446,-3.2243,-3.1496,-3.0093,-2.7227,-2.4618,0.0,0.0,0.0,0.0,0.0,0.0,0.0,0.0,0.0,0.0,0.0,0.0,0.0,0.0,0.0,0.0,0.0,0.0,0.0,0.0,0.0,0.0,0.0,0.0,0.0,0.0,0.0,0.0,0.0,0.0,0.0,0.0,0.0,0.0,0.0,0.0,0.0,0.0,0.0,0.0,0.0,0.0,0.0,0.0,0.0,0.0,0.0,0.0,0.0,0.0,0.0,0.0,0.0,0.0,0.0,0.0,0.0,0.0,0.0,0.0,0.0,0.0,0.0,0.0,0.0,0.0,0.0,0.0,0.0,0.0,0.0,0.0,0.0,0.0,0.0,0.0,0.0,0.0,0.0,0.0,0.0,0.0,0.0,0.0,0.0,0.0,0.0,0.0,0.0,0.0,0.0,0.0,0.0,0.0,0.0,0.0,0.0,0.0,0.0,0.0,0.0,0.0,0.0,0.0,0.0,0.0,0.0,0.0,-2.9618,-3.153,-3.0573,-2.9524,-2.8183,-2.5171,-2.2779,0.0,0.0,0.0,0.0,0.0,0.0,0.0,0.0,0.0,0.0,0.0,0.0,0.0,0.0,0.0,0.0,0.0,0.0,0.0,0.0,0.0,0.0,0.0,0.0,0.0,0.0,0.0,0.0,0.0,0.0,0.0,0.0,0.0,0.0,0.0,0.0,0.0,0.0,0.0,0.0,0.0,0.0,0.0,0.0,0.0,0.0,0.0,0.0,-2.4566,0.0,0.0,0.0,0.0,0.0,0.0,0.0,0.0,0.0,0.0,0.0,0.0,0.0,0.0,0.0,0.0,0.0,0.0,0.0,0.0,0.0,0.0,0.0,0.0,0.0,0.0,0.0,0.0,0.0,0.0,0.0,0.0,0.0,0.0,0.0,0.0,0.0,0.0,0.0,0.0,0.0,0.0,0.0,0.0,0.0,0.0,0.0,0.0,0.0,0.0,0.0,0.0,0.0,0.0,0.0,0.0,0.0,0.0,0.0,-2.8212,-2.72,-2.8498,-2.8534,-2.6929,-2.3338,-2.0412,0.0,0.0,0.0,0.0,0.0,0.0,0.0,0.0,0.0,0.0,0.0,0.0,0.0,0.0,0.0,0.0,0.0,0.0,0.0,0.0,0.0,0.0,0.0,0.0,0.0,0.0,0.0,0.0,0.0,0.0,0.0,0.0,0.0,0.0,0.0,0.0,0.0,0.0,0.0,0.0,0.0,0.0,0.0,0.0,0.0,0.0,0.0,0.0,0.0,0.0,0.0,0.0,0.0,0.0,0.0,0.0,0.0,0.0,0.0,0.0,0.0,0.0,0.0,0.0,0.0,0.0,0.0,0.0,0.0,0.0,0.0,0.0,0.0,0.0,0.0,0.0,0.0,0.0,0.0,0.0,0.0,0.0,0.0,0.0,0.0,0.0,0.0,0.0,0.0,0.0,0.0,0.0,0.0,0.0,0.0,0.0,0.0,0.0,0.0,0.0,0.0,0.0,0.0,0.0,0.0,0.0,0.0,0.0,-2.6726,-2.6502,-2.5919,-2.4535,-2.2277,-2.0637,-1.8771,0.0,0.0,0.0,0.0,0.0,0.0,0.0,0.0,0.0,0.0,0.0,0.0,0.0,0.0,0.0,0.0,0.0,0.0,0.0,0.0,0.0,0.0,0.0,0.0,0.0,0.0,0.0,0.0,0.0,0.0,0.0,0.0,0.0,0.0,0.0,0.0,0.0,0.0,0.0,0.0,0.0,0.0,0.0,0.0,0.0,0.0,0.0,0.0,0.0,0.0,0.0,0.0,0.0,0.0,0.0,0.0,0.0,0.0,0.0,0.0,0.0,0.0,0.0,0.0,0.0,0.0,0.0,0.0,0.0,0.0,0.0,0.0,0.0,0.0,0.0,0.0,0.0,0.0,0.0,0.0,0.0,0.0,0.0,0.0,0.0,0.0,0.0,0.0,0.0,0.0,0.0,0.0,0.0,0.0,0.0,0.0,0.0,0.0,0.0,0.0,0.0,0.0,0.0,0.0,0.0,0.0,0.0,0.0,0.0,-2.5179,-2.2704,-2.0483,-1.8865,-1.8251,-1.7414,0.0,0.0,0.0,0.0,0.0,0.0,0.0,0.0,0.0,0.0,0.0,0.0,0.0,0.0,0.0,0.0,0.0,0.0,0.0,0.0,0.0,0.0,0.0,0.0,0.0,0.0,0.0,0.0,0.0,0.0,0.0,0.0,0.0,0.0,0.0,0.0,0.0,0.0,0.0,0.0,0.0,0.0,0.0,0.0,0.0,0.0,0.0,0.0,0.0,0.0,0.0,0.0,0.0,0.0,0.0,0.0,0.0,0.0,0.0,0.0,0.0,0.0,0.0,0.0,0.0,0.0,0.0,0.0,0.0,0.0,0.0,0.0,0.0,0.0,0.0,0.0,0.0,0.0,0.0,0.0,0.0,0.0,0.0,0.0,0.0,0.0,0.0,0.0,0.0,0.0,0.0,0.0,0.0,0.0,0.0,0.0,0.0,0.0,0.0,0.0,0.0,0.0,0.0,0.0,0.0,0.0,0.0,0.0,0.0,-2.2399,-1.8436,-1.7105,-1.8481,-1.6657,-1.6241,0.0,0.0,0.0,0.0,0.0,0.0,0.0,0.0,0.0,0.0,0.0,0.0,0.0,0.0,0.0,0.0,0.0,0.0,0.0,0.0,0.0,0.0,0.0,0.0,0.0,0.0,0.0,0.0,0.0,0.0,0.0,0.0,0.0,0.0,0.0,0.0,0.0,0.0,0.0,0.0,0.0,0.0,0.0,0.0,0.0,0.0,0.0,0.0,0.0,0.0,0.0,0.0,0.0,0.0,0.0,0.0,0.0,0.0,0.0,0.0,0.0,0.0,0.0,0.0,0.0,0.0,0.0,0.0,0.0,0.0,0.0,0.0,0.0,0.0,0.0,0.0,0.0,0.0,0.0,0.0,0.0,0.0,0.0,0.0,0.0,0.0,0.0,0.0,0.0,0.0,0.0,0.0,0.0,0.0,0.0,0.0,0.0,0.0,0.0,0.0,0.0,0.0,0.0,0.0,0.0,0.0,0.0,0.0,0.0,-1.9541,-1.6939,-1.5391,-1.4992,-1.4986,-1.4795,-1.4389,0.0,0.0,0.0,0.0,0.0,0.0,0.0,0.0,0.0,0.0,0.0,0.0,0.0,0.0,0.0,0.0,0.0,0.0,0.0,0.0,0.0,0.0,0.0,0.0,0.0,0.0,0.0,0.0,0.0,0.0,0.0,0.0,0.0,0.0,0.0,0.0,0.0,0.0,0.0,0.0,0.0,0.0,0.0,0.0,0.0,0.0,0.0,0.0,0.0,0.0,0.0,0.0,0.0,0.0,0.0,0.0,0.0,0.0,0.0,0.0,0.0,0.0,0.0,0.0,0.0,0.0,0.0,0.0,0.0,0.0,0.0,0.0,0.0,0.0,0.0,0.0,0.0,0.0,0.0,0.0,0.0,0.0,0.0,0.0,0.0,0.0,0.0,0.0,0.0,0.0,0.0,0.0,0.0,0.0,0.0,0.0,0.0,0.0,0.0,0.0,0.0,0.0,0.0,0.0,0.0,0.0,0.0,0.0,-1.667,-1.5174,-1.4008,-1.3134,-1.366,-1.3781,0.0,0.0,0.0,0.0,0.0,0.0,0.0,0.0,0.0,0.0,0.0,0.0,0.0,0.0,0.0,0.0,0.0,0.0,0.0,0.0,0.0,0.0,0.0,0.0,0.0,0.0,0.0,0.0,0.0,0.0,0.0,0.0,0.0,0.0,0.0,0.0,0.0,0.0,0.0,0.0,0.0,0.0,0.0,0.0,0.0,0.0,0.0,0.0,0.0,0.0,0.0,0.0,0.0,0.0,0.0,0.0,0.0,0.0,0.0,0.0,0.0,0.0,0.0,0.0,0.0,0.0,0.0,0.0,0.0,0.0,0.0,0.0,0.0,0.0,0.0,0.0,0.0,0.0,0.0,0.0,0.0,0.0,0.0,0.0,0.0,0.0,0.0,0.0,0.0,0.0,0.0,0.0,0.0,0.0,0.0,0.0,0.0,0.0,0.0,0.0,0.0,0.0,0.0,0.0,0.0,0.0,0.0,0.0,-1.5979,-1.3647,-1.291,-1.2881,-1.3522,-1.2584,-1.3408,0.0,0.0,0.0,0.0,0.0,0.0,0.0,0.0,0.0,0.0,0.0,0.0,0.0,0.0,0.0,0.0,0.0,0.0,0.0,0.0,0.0,0.0,0.0,0.0,0.0,0.0,0.0,0.0,0.0,0.0,0.0,0.0,0.0,0.0,0.0,0.0,0.0,0.0,0.0,0.0,0.0,0.0,0.0,0.0,0.0,0.0,0.0,0.0,0.0,0.0,0.0,0.0,0.0,0.0,0.0,0.0,0.0,0.0,0.0,0.0,0.0,0.0,0.0,0.0,0.0,0.0,0.0,0.0,0.0,0.0,0.0,0.0,0.0,0.0,0.0,0.0,0.0,0.0,0.0,0.0,0.0,0.0,0.0,0.0,0.0,0.0,0.0,0.0,0.0,0.0,0.0,0.0,0.0,0.0,0.0,0.0,0.0,0.0,0.0,0.0,0.0,0.0,0.0,0.0,0.0,0.0,0.0,0.0,0.0,-1.5643,-1.3811,-1.2062,-1.0588,-1.1628,-1.251,0.0,0.0,0.0,0.0,0.0,0.0,0.0,0.0,0.0,0.0,0.0,0.0,0.0,0.0,0.0,0.0,0.0,0.0,0.0,0.0,0.0,0.0,0.0,0.0,0.0,0.0,0.0,0.0,0.0,0.0,0.0,0.0,0.0,0.0,0.0,0.0,0.0,0.0,0.0,0.0,0.0,0.0,0.0,0.0,0.0,0.0,0.0,0.0,0.0,0.0,0.0,0.0,0.0,0.0,0.0,0.0,0.0,0.0,0.0,0.0,0.0,0.0,0.0,0.0,0.0,0.0,0.0,0.0,0.0,0.0,0.0,0.0,0.0,0.0,0.0,0.0,0.0,0.0,0.0,0.0,0.0,0.0,0.0,0.0,0.0,0.0,0.0,0.0,0.0,0.0,0.0,0.0,0.0,0.0,0.0,0.0,0.0,0.0,0.0,0.0,0.0,0.0,0.0,0.0,0.0,0.0,0.0,0.0,0.0,-1.5359,-1.4053,-1.2154,-0.9756,-1.0994,-1.1577,0.0,0.0,0.0,0.0,0.0,0.0,0.0,0.0,0.0,0.0,0.0,0.0,0.0,0.0,0.0,0.0,0.0,0.0,0.0,0.0,0.0,0.0,0.0,0.0,0.0,0.0,0.0,0.0,0.0,0.0,0.0,0.0,0.0,0.0,0.0,0.0,0.0,0.0,0.0,0.0,0.0,0.0,0.0,0.0,0.0,0.0,0.0,0.0,0.0,0.0,0.0,0.0,0.0,0.0,0.0,0.0,0.0,0.0,0.0,0.0,0.0,0.0,0.0,0.0,0.0,0.0,0.0,0.0,0.0,0.0,0.0,0.0,0.0,0.0,0.0,0.0,0.0,0.0,0.0,0.0,0.0,0.0,0.0,0.0,0.0,0.0,0.0,0.0,0.0,0.0,0.0,0.0,0.0,0.0,0.0,0.0,0.0,0.0,0.0,0.0,0.0,0.0,0.0,0.0,0.0,0.0,0.0,0.0,0.0,-1.3116,-1.3559,-1.2835,-1.0706,-1.0692,-1.0765,0.0,0.0,0.0,0.0,0.0,0.0,0.0,0.0,0.0,0.0,0.0,0.0,0.0,0.0,0.0,0.0,0.0,0.0,0.0,0.0,0.0,0.0,0.0,0.0,0.0,0.0,0.0,0.0,0.0,0.0,0.0,0.0,0.0,0.0,0.0,0.0,0.0,0.0,0.0,0.0,0.0,0.0,0.0,0.0,0.0,0.0,0.0,0.0,0.0,0.0,0.0,0.0,0.0,0.0,0.0,0.0,0.0,0.0,0.0,0.0,0.0,0.0,0.0,0.0,0.0,0.0,0.0,0.0,0.0,0.0,0.0,0.0,0.0,0.0,0.0,0.0,0.0,0.0,0.0,0.0,0.0,0.0,0.0,0.0,0.0,0.0,0.0,0.0,0.0,0.0,0.0,0.0,0.0,0.0,0.0,0.0,0.0,0.0,0.0,0.0,0.0,0.0,0.0,0.0,0.0,0.0,0.0,0.0,0.0,0.0,-1.3141,-1.1707,-0.999,-1.0382,-1.0715,-1.0728,0.0,0.0,0.0,0.0,0.0,0.0,0.0,0.0,0.0,0.0,0.0,0.0,0.0,0.0,0.0,0.0,0.0,0.0,0.0,0.0,0.0,0.0,0.0,0.0,0.0,0.0,0.0,0.0,0.0,0.0,0.0,0.0,0.0,0.0,0.0,0.0,0.0,0.0,0.0,0.0,0.0,0.0,0.0,0.0,0.0,0.0,0.0,0.0,0.0,0.0,0.0,0.0,0.0,0.0,0.0,0.0,0.0,0.0,0.0,0.0,0.0,0.0,0.0,0.0,0.0,0.0,0.0,0.0,0.0,0.0,0.0,0.0,0.0,0.0,0.0,0.0,0.0,0.0,0.0,0.0,0.0,0.0,0.0,0.0,0.0,0.0,0.0,0.0,0.0,0.0,0.0,0.0,0.0,0.0,0.0,0.0,0.0,0.0,0.0,0.0,0.0,0.0,0.0,0.0,0.0,0.0,0.0,0.0,0.0,0.0,-1.1418,-1.0277,-1.0643,-1.0559,0.0,0.0,0.0,0.0,0.0,0.0,0.0,0.0,0.0,0.0,0.0,0.0,0.0,0.0,0.0,0.0,0.0,0.0,0.0,0.0,0.0,0.0,0.0,0.0,0.0,0.0,0.0,0.0,0.0,0.0,0.0,0.0,0.0,0.0,0.0,0.0,0.0,0.0,0.0,0.0,0.0,0.0,0.0,0.0,0.0,0.0,0.0,0.0,0.0,0.0,0.0,0.0,0.0,0.0,0.0,0.0,0.0,0.0,0.0,0.0,0.0,0.0,0.0,0.0,0.0,0.0,0.0,0.0,0.0,0.0,0.0,0.0,0.0,0.0,0.0,0.0,0.0,0.0,0.0,0.0,0.0,0.0,0.0,0.0,0.0,0.0,0.0,0.0,0.0,0.0,0.0,0.0,0.0,0.0,0.0,0.0,0.0,0.0,0.0,0.0,0.0,0.0,0.0,0.0,0.0,0.0,0.0,0.0,0.0,0.0,0.0,-1.1459,-1.094,-1.1088,0.0,-0.9266,0.0,0.0,0.0,0.0,0.0,0.0,0.0,0.0,0.0,0.0,0.0,0.0,0.0,0.0,0.0,0.0,0.0,0.0,0.0,0.0,0.0,0.0,0.0,0.0,0.0,0.0,0.0,0.0,0.0,0.0,0.0,0.0,0.0,0.0,0.0,0.0,0.0,0.0,0.0,0.0,0.0,0.0,0.0,0.0,0.0,0.0,0.0,0.0,0.0,0.0,0.0,0.0,0.0,0.0,0.0,0.0,0.0,0.0,0.0,0.0,0.0,0.0,0.0,0.0,0.0,0.0,0.0,0.0,0.0,0.0,0.0,0.0,0.0,0.0,0.0,0.0,0.0,0.0,0.0,0.0,0.0,0.0,0.0,0.0,0.0,0.0,0.0,0.0,0.0,0.0,0.0,0.0,0.0,0.0,0.0,0.0,0.0,0.0,0.0,0.0,0.0,0.0,0.0,0.0,0.0,0.0,0.0,0.0,0.0,0.0,0.0,0.0,-1.0707,-1.1845,-1.144,0.0,0.0,0.0,0.0,0.0,0.0,0.0,0.0,0.0,0.0,0.0,0.0,0.0,0.0,0.0,0.0,0.0,0.0,0.0,0.0,0.0,0.0,0.0,0.0,0.0,0.0,0.0,0.0,0.0,0.0,0.0,0.0,0.0,0.0,0.0,0.0,0.0,0.0,0.0,0.0,0.0,0.0,0.0,0.0,0.0,0.0,0.0,0.0,0.0,0.0,0.0,0.0,0.0,0.0,0.0,0.0,0.0,0.0,0.0,0.0,0.0,0.0,0.0,0.0,0.0,0.0,0.0,0.0,0.0,0.0,0.0,0.0,0.0,0.0,0.0,0.0,0.0,0.0,0.0,0.0,0.0,0.0,0.0,0.0,0.0,0.0,0.0,0.0,0.0,0.0,0.0,0.0,0.0,0.0,0.0,0.0,0.0,0.0,0.0,0.0,0.0,0.0,0.0,0.0,0.0,0.0,0.0,0.0,0.0,0.0,-0.8574,-0.8351,-1.0145,-1.0434,-0.8849,0.0,0.0,0.0,0.0,0.0,0.0,0.0,0.0,0.0,0.0,0.0,0.0,0.0,0.0,0.0,0.0,0.0,0.0,0.0,0.0,0.0,0.0,0.0,0.0,0.0,0.0,0.0,0.0,0.0,0.0,0.0,0.0,0.0,0.0,0.0,0.0,0.0,0.0,0.0,0.0,0.0,0.0,0.0,0.0,0.0,0.0,0.0,0.0,0.0,0.0,0.0,0.0,0.0,0.0,0.0,0.0,0.0,0.0,0.0,0.0,0.0,0.0,0.0,0.0,0.0,0.0,0.0,0.0,0.0,0.0,0.0,0.0,0.0,0.0,0.0,0.0,0.0,0.0,0.0,0.0,0.0,0.0,0.0,0.0,0.0,0.0,0.0,0.0,0.0,0.0,0.0,0.0,0.0,0.0,0.0,0.0,0.0,0.0,0.0,0.0,0.0,0.0,0.0,0.0,0.0,0.0,0.0,0.0,0.0,0.0,-0.7859,0.0,0.0,0.0,-0.4573,0.0,0.0,0.0,0.0,0.0,0.0,0.0,0.0,0.0,0.0,0.0,0.0,0.0,0.0,0.0,0.0,0.0,0.0,0.0,0.0,0.0,0.0,0.0,0.0,0.0,0.0,0.0,0.0,0.0,0.0,0.0,0.0,0.0,0.0,0.0,0.0,0.0,0.0,0.0,0.0,0.0,0.0,0.0,0.0,0.0,0.0,0.0,0.0,0.0,0.0,0.0,0.0,0.0,0.0,0.0,0.0,0.0,0.0,0.0,0.0,0.0,0.0,0.0,0.0,0.0,0.0,0.0,0.0,0.0,0.0,0.0,0.0,0.0,0.0,0.0,0.0,0.0,0.0,0.0,0.0,0.0,0.0,0.0,0.0,0.0,0.0,0.0,0.0,0.0,0.0,0.0,0.0,0.0,0.0,0.0,0.0,0.0,0.0,0.0,0.0,0.0,0.0,0.0,0.0,0.0,0.0,0.0,0.0,0.0,0.0,0.0,0.0,0.0,0.0,0.0,0.0,0.0,0.0,0.0,0.0,0.0,0.0,0.0,0.0,0.0,0.0,0.0,0.0,0.0,0.0,0.0,0.0,0.0,0.0,0.0,0.0,0.0,0.0,0.0,0.0,0.0,0.0,0.0,0.0,0.0,0.0,0.0,0.0,0.0,0.0,0.0,0.0,0.0,0.0,0.0,0.0,0.0,0.0,0.0,0.0,0.0,0.0,0.0,0.0,0.0,0.0,0.0,0.0,0.0,0.0,0.0,0.0,0.0,0.0,0.0,0.0,0.0,0.0,0.0,0.0,0.0,0.0,0.0,0.0,0.0,0.0,0.0,0.0,0.0,0.0,0.0,0.0,0.0,0.0,0.0,0.0,0.0,0.0,0.0,0.0,0.0,0.0,0.0,0.0,0.0,0.0,0.0,0.0,0.0,0.0,0.0,0.0,0.0,0.0,0.0,0.0,0.0,0.0,0.0,0.0,0.0,0.0,0.0,0.0,0.0,0.0,0.0,0.0,0.0,0.0,0.0,0.0,0.0,0.0,0.0,0.0,0.0,0.0,0.0,0.0,0.0,0.0,0.0,0.0,0.0,0.0,0.0,0.0,0.0,0.0,0.0,0.0,0.0,0.0,0.0,0.0,0.0,0.0,0.0,0.0,0.0,0.0,0.0,0.0,0.0,0.0,0.0,0.0,0.0,0.0,0.0,0.0,0.0,0.0,0.0,0.0,0.0,0.0,0.0,0.0,0.0,0.0,0.0,0.0,0.0,0.0,0.0,0.0,0.0,0.0,0.0,0.0,0.0,0.0,0.0,0.0,0.0,0.0,0.0,0.0,0.0,0.0,0.0,0.0,0.0,0.0,0.0,0.0,0.0,0.0,0.0,0.0,0.0,0.0,0.0,0.0,0.0,0.0,0.0,0.0,0.0,0.0,0.0,0.0,0.0,0.0,0.0,0.0,0.0,0.0,0.0,0.0,0.0,0.0,0.0,0.0,0.0,0.0,0.0,0.0,0.0,0.0,0.0,0.0,0.0,0.0,0.0,0.0,0.0,0.0,0.0,0.0,0.0,0.0,0.0,0.0,0.0,0.0,0.0,0.0,0.0,0.0,0.0,0.0,0.0,0.0,0.0,0.0,0.0,0.0,0.0,0.0,0.0,0.0,0.0,0.0,0.0,0.0,0.0,0.0,0.0,0.0,0.0,0.0,0.0,0.0,0.0,0.0,0.0,0.0,0.0,0.0,0.0,0.0,0.0,0.0,0.0,0.0,0.0,0.0,0.0,0.0,0.0,0.0,0.0,0.0,0.0,0.0,0.0,0.0,0.0,0.0,0.0,0.0,0.0,0.0,0.0,0.0,0.0,0.0,0.0,0.0,0.0,0.0,0.0,0.0,0.0,0.0,0.0,0.0,0.0,0.0,0.0,0.0,0.0,0.0,0.0,0.0,0.0,0.0,0.0,0.0,0.0,0.0,0.0,0.0,0.0,0.0,0.0,0.0,0.0,0.0,0.0,0.0,0.0,0.0,0.0,0.0,0.0,0.0,0.0,0.0,0.0,0.0,0.0,0.0,0.0,0.0,0.0,0.0,0.0,0.0,0.0,0.0,0.0,0.0,0.0,0.0,0.0,0.0,0.0,0.0,0.0,0.0,0.0,0.0,0.0,0.0,0.0,0.0,0.0,0.0,0.0,0.0,0.0,0.0,0.0,0.0,0.0,0.0,0.0,0.0,0.0,0.0,0.0,0.0,0.0,0.0,0.0,0.0,0.0,0.0,0.0,0.0,0.0,0.0,0.0,0.0,0.0,0.0,0.0,0.0,0.0,0.0,0.0,0.0,0.0,0.0,0.0,0.0,0.0,0.0,0.0,0.0,0.0,0.0,0.0,0.0,0.0,0.0,0.0,0.0,0.0,0.0,0.0,0.0,0.0,0.0,0.0,0.0,0.0,0.0,0.0,0.0,0.0,0.0,0.0,0.0,0.0,0.0,0.0,0.0,0.0,0.0,0.0,0.0,0.0,0.0,0.0,0.0,0.0,0.0,0.0,0.0,0.0,0.0,0.0,0.0,0.0,0.0,0.0,0.0,0.0,0.0,0.0,0.0,0.0,0.0,0.0,0.0,0.0,0.0,0.0,0.0,0.0,0.0,0.0,0.0,0.0,0.0,0.0,0.0,0.0,0.0,0.0,0.0,0.0,0.0,0.0,0.0,0.0,0.0,0.0,0.0,0.0,0.0,0.0,0.0,0.0,0.0,0.0,0.0,0.0,0.0,0.0,0.0,0.0,0.0,0.0,0.0,0.0,0.0,0.0,0.0,0.0,0.0,0.0,0.0,0.0,0.0,0.0,0.0,0.0,0.0,0.0,0.0,0.0,0.0,0.0,0.0,0.0,0.0,0.0,0.0,0.0,0.0,0.0,0.0,0.0,0.0,0.0,0.0,0.0,0.0,0.0,0.0,0.0,0.0,0.0,0.0,0.0,0.0,0.0,0.0,0.0,0.0,0.0,0.0,0.0,0.0,0.0,0.0,0.0,0.0,0.0,0.0,0.0,0.0,0.0,0.0,0.0,0.0,0.0,0.0,0.0,0.0,0.0,0.0,0.0,0.0,0.0,0.0,0.0,0.0,0.0,0.0,0.0,0.0,0.0,0.0,0.0,0.0,0.0,0.0,0.0,0.0,0.0,0.0,0.0,0.0,0.0,0.0,0.0,0.0,0.0,0.0,0.0,0.0,0.0,0.0,0.0,0.0,0.0,0.0,0.0,0.0,0.0,0.0,0.0,0.0,0.0,0.0,0.0,0.0,0.0,0.0,0.0,0.0,0.0,0.0,0.0,0.0,0.0,0.0,0.0,0.0,0.0,0.0,0.0,0.0,0.0,0.0,0.0,0.0,0.0,0.0,0.0,0.0,0.0,0.0,0.0,0.0,0.0,0.0,0.0,0.0,0.0,0.0,0.0,0.0,0.0,0.0,0.0,0.0,0.0,0.0,0.0,0.0,0.0,0.0,0.0,0.0,0.0,0.0,0.0,0.0,0.0,0.0,0.0,0.0,0.0,0.0,0.0,0.0,0.0,0.0,0.0,0.0,0.0,0.0,0.0,0.0,0.0,0.0,0.0,0.0,0.0,0.0,0.0,0.0,0.0,0.0,0.0,0.0,0.0,0.0,0.0,0.0,0.0,0.0,0.0,0.0,0.0,0.0,0.0,0.0,0.0,0.0,0.0,0.0,0.0,0.0,0.0,0.0,0.0,0.0,0.0,0.0,0.0,0.0,0.0,0.0,0.0,0.0,0.0,0.0,0.0,0.0,0.0,0.0,0.0,0.0,0.0,0.0,0.0,0.0,0.0,0.0,0.0,0.0,0.0,0.0,0.0,0.0,0.0,0.0,0.0,0.0,0.0,0.0,0.0,0.0,0.0,0.0,0.0,0.0,0.0,0.0,0.0,0.0,0.0,0.0,0.0,0.0,0.0,0.0,0.0,0.0,0.0,0.0,0.0,0.0,0.0,0.0,0.0,0.0,0.0,0.0,0.0,0.0,0.0,0.0,0.0,0.0,0.0,0.0,0.0,0.0,0.0,0.0,0.0,0.0,0.0,0.0,0.0,0.0,0.0,0.0,0.0,0.0,0.0,0.0,0.0,0.0,0.0,0.0,0.0,0.0,0.0,0.0,0.0,0.0,0.0,0.0,0.0,0.0,0.0,0.0,0.0,0.0,0.0,0.0,0.0,0.0,0.0,0.0,0.0,0.0,0.0,0.0,0.0,0.0,0.0,0.0,0.0,0.0,0.0,0.0,0.0,0.0,0.0,0.0,0.0,0.0,0.0,0.0,0.0,0.0,0.0,0.0,0.0,0.0,0.0,0.0,0.0,0.0,0.0,0.0]}]]]